[[{"header":{"parameterUnit":"m.s-1","parameterCategory":1,"la1":31.0,"la2":29.5877,"lo1":-88.7671,"lo2":-86.6584,"dy":0.0162,"dx":0.0185,"nx":115,"ny":88,"refTime":"2023-07-26T06:00:00:Z","depth":0,"parameterNumber":2,"parameterNumberName":"U-component_of_WINDS"},"data":[0.0,0.0,0.0,0.0,0.0,0.0,0.0,0.0,0.0,0.0,0.0,0.0,0.0,0.0,0.0,0.0,0.0,0.0,0.0,0.0,0.0,0.0,0.0,0.0,0.0,0.0,0.0,0.0,0.0,0.0,0.0,0.0,0.0,0.0,0.0,0.0,0.0,0.0,0.0,0.0,0.0,0.0,0.0,0.0,0.0,0.0,0.0,0.0,0.0,0.0,0.0,0.0,0.0,0.0,0.0,0.0,0.0,0.0,0.0,0.0,0.0,0.0,0.0,0.0,0.0,0.0,0.0,0.0,0.0,0.0,0.0,0.0,0.0,0.0,0.0,0.0,0.0,0.0,0.0,0.0,0.0,0.0,0.0,0.0,0.0,0.0,0.0,0.0,0.0,0.0,0.0,0.0,0.0,0.0,0.0,0.0,0.0,0.0,0.0,0.0,0.0,0.0,0.0,0.0,0.0,0.0,0.0,0.0,0.0,0.0,0.0,0.0,0.0,0.0,0.0,0.0,0.0,0.0,0.0,0.0,0.0,0.0,0.0,0.0,0.0,0.0,0.0,0.0,0.0,0.0,0.0,0.0,0.0,0.0,0.0,0.0,0.0,0.0,0.0,0.0,0.0,0.0,0.0,0.0,0.0,0.0,0.0,0.0,0.0,0.0,0.0,0.0,0.0,0.0,0.0,0.0,0.0,0.0,0.0,0.0,0.0,0.0,0.0,0.0,0.0,0.0,0.0,0.0,0.0,0.0,0.0,0.0,0.0,0.0,0.0,0.0,0.0,0.0,0.0,0.0,0.0,0.0,0.0,0.0,0.0,0.0,0.0,0.0,0.0,0.0,0.0,0.0,0.0,0.0,0.0,0.0,0.0,0.0,0.0,0.0,0.0,0.0,0.0,0.0,0.0,0.0,0.0,0.0,0.0,0.0,0.0,0.0,0.0,0.0,0.0,0.0,0.0,0.0,0.0,0.0,0.0,0.0,0.0,0.0,0.0,0.0,0.0,0.0,0.0,0.0,0.0,0.0,0.0,0.0,0.0,0.0,0.0,0.0,0.0,0.0,0.0,0.0,0.0,0.0,0.0,0.0,0.0,0.0,0.0,0.0,0.0,0.0,0.0,0.0,0.0,0.0,0.0,0.0,0.0,0.0,0.0,0.0,0.0,0.0,0.0,0.0,0.0,0.0,0.0,0.0,0.0,0.0,0.0,0.0,0.0,0.0,0.0,0.0,0.0,0.0,0.0,0.0,0.0,0.0,0.0,0.0,0.0,0.0,0.0,0.0,0.0,0.0,0.0,0.0,0.0,0.0,0.0,0.0,0.0,0.0,0.0,0.0,0.0,0.0,0.0,0.0,0.0,0.0,0.0,0.0,0.0,0.0,0.0,0.0,0.0,0.0,0.0,0.0,0.0,0.0,0.0,0.0,0.0,0.0,0.0,0.0,0.0,0.0,0.0,0.0,0.0,0.0,0.0,0.0,0.0,0.0,0.0,0.0,0.0,0.0,0.0,0.0,0.0,0.0,0.0,0.0,0.0,0.0,0.0,0.0,0.0,0.0,0.0,0.0,0.0,0.0,0.0,0.0,0.0,0.0,0.0,0.0,0.0,0.0,0.0,0.0,0.0,0.0,0.0,0.0,0.0,0.0,0.0,0.0,0.0,0.0,0.0,0.0,0.0,0.0,0.0,0.0,0.0,0.0,0.0,0.0,0.0,0.0,0.0,0.0,0.0,0.0,0.0,0.0,0.0,0.0,0.0,0.0,0.0,0.0,0.0,0.0,0.0,0.0,0.0,0.0,0.0,0.0,0.0,0.0,0.0,0.0,0.0,0.0,0.0,0.0,0.0,0.0,0.0,0.0,0.0,0.0,0.0,0.0,0.0,0.0,0.0,0.0,0.0,0.0,0.0,0.0,0.0,0.0,0.0,0.0,0.0,0.0,0.0,0.0,0.0,0.0,0.0,0.0,0.0,0.0,0.0,0.0,0.0,0.0,0.0,0.0,0.0,0.0,0.0,0.0,0.0,0.0,0.0,0.0,0.0,0.0,0.0,0.0,0.0,0.0,0.0,0.0,0.0,0.0,0.0,0.0,0.0,0.0,0.0,0.0,0.0,0.0,0.0,0.0,0.0,0.0,0.0,0.0,0.0,0.0,0.0,0.0,0.0,0.0,0.0,0.0,0.0,0.0,0.0,0.0,0.0,0.0,0.0,0.0,0.0,0.0,0.0,0.0,0.0,0.0,0.0,0.0,0.0,0.0,0.0,0.0,0.0,0.0,0.0,0.0,0.0,0.0,0.0,0.0,0.0,0.0,0.0,0.0,0.0,0.0,0.0,0.0,0.0,0.0,0.0,0.0,0.0,0.0,0.0,0.0,0.0,0.0,0.0,0.0,0.0,0.0,0.0,0.0,0.0,0.0,0.0,0.0,0.0,0.0,0.0,0.0,0.0,0.0,0.0,0.0,0.0,0.0,0.0,0.0,0.0,0.0,0.0,0.0,0.0,0.0,0.0,0.0,0.0,0.0,0.0,0.0,0.0,0.0,0.0,0.0,0.0,0.0,0.0,0.0,0.0,0.0,0.0,0.0,0.0,0.0,0.0,0.0,0.0,0.0,0.0,0.0,0.0,0.0,0.0,0.0,0.0,0.0,0.0,0.0,0.0,0.0,0.0,0.0,0.0,0.0,0.0,0.0,0.0,0.0,0.0,0.0,0.0,0.0,0.0,0.0,0.0,0.0,0.0,0.0,0.0,0.0,0.0,0.0,0.0,0.0,0.0,0.0,0.0,0.0,0.0,0.0,0.0,0.0,0.0,0.0,0.0,0.0,0.0,0.0,0.0,0.0,0.0,0.0,0.0,0.0,0.0,0.0,0.0,0.0,0.0,0.0,0.0,0.0,0.0,0.0,0.0,0.0,0.0,0.0,0.0,0.0,0.0,0.0,0.0,0.0,0.0,0.0,0.0,0.0,0.0,0.0,0.0,0.0,0.0,0.0,0.0,0.0,0.0,0.0,0.0,0.0,0.0,0.0,0.0,0.0,0.0,0.0,0.0,0.0,0.0,0.0,0.0,0.0,0.0,0.0,0.0,0.0,0.0,0.0,0.0,0.0,0.0,0.0,0.0,0.0,0.0,0.0,0.0,0.0,0.0,0.0,0.0,0.0,0.0,0.0,0.0,0.0,0.0,0.0,0.0,0.0,0.0,0.0,0.0,0.0,0.0,0.0,0.0,0.0,0.0,0.0,0.0,0.0,0.0,0.0,0.0,0.0,0.0,0.0,0.0,0.0,0.0,0.0,0.0,0.0,0.0,0.0,0.0,0.0,0.0,0.0,0.0,0.0,0.0,0.0,0.0,0.0,0.0,0.0,0.0,0.0,0.0,0.0,0.0,0.0,0.0,0.0,0.0,0.0,0.0,0.0,0.0,0.0,0.0,0.0,0.0,0.0,0.0,0.0,0.0,0.0,0.0,0.0,0.0,0.0,0.0,0.0,0.0,0.0,0.0,0.0,0.0,0.0,0.0,0.0,0.0,0.0,0.0,0.0,0.0,0.0,0.0,0.0,0.0,0.0,0.0,0.0,0.0,0.0,0.0,0.0,0.0,0.0,0.0,0.0,0.0,0.0,0.0,0.0,0.0,0.0,0.0,0.0,0.0,0.0,0.0,0.0,0.0,0.0,0.0,0.0,0.0,0.0,0.0,0.0,0.0,0.0,0.0,0.0,0.0,0.0,0.0,0.0,0.0,0.0,0.0,0.0,0.0,0.0,0.0,0.0,0.0,0.0,0.0,0.0,0.0,0.0,0.0,0.0,0.0,0.0,0.0,0.0,0.0,0.0,0.0,0.0,0.0,0.0,0.0,0.0,0.0,0.0,0.0,0.0,0.0,0.0,0.0,0.0,0.0,0.0,0.0,0.0,0.0,0.0,0.0,0.0,0.0,0.0,0.0,0.0,0.0,0.0,0.0,0.0,0.0,0.0,0.0,0.0,0.0,0.0,0.0,0.0,0.0,0.0,0.0,0.0,0.0,0.0,0.0,0.0,0.0,0.0,0.0,0.0,0.0,0.0,0.0,0.0,0.0,0.0,0.0,0.0,0.0,0.0,0.0,0.0,0.0,0.0,0.0,0.0,0.0,0.0,0.0,0.0,0.0,0.0,0.0,0.0,0.0,0.0,0.0,0.0,0.0,0.0,0.0,0.0,0.0,0.0,0.0,0.0,0.0,0.0,0.0,0.0,0.0,0.0,0.0,0.0,0.0,0.0,0.0,0.0,0.0,0.0,1.536,0.0,0.0,0.0,0.0,0.0,0.0,0.0,0.0,0.0,0.0,0.0,0.0,0.0,0.0,0.0,0.0,0.0,0.0,0.0,0.0,0.0,0.0,0.0,0.0,0.0,0.0,0.0,0.0,0.0,0.0,0.0,0.0,0.0,0.0,0.0,0.0,0.0,0.0,0.0,0.0,0.0,0.0,0.0,0.0,0.0,0.0,0.0,0.0,0.0,0.0,0.0,0.0,0.0,0.0,0.0,0.0,0.0,0.0,0.0,0.0,0.0,0.0,0.0,0.0,0.0,0.0,0.0,0.0,0.0,0.0,0.0,0.0,0.0,0.0,0.0,0.0,0.0,0.0,0.0,0.0,0.0,0.0,0.0,0.0,0.0,0.0,0.0,0.0,0.0,0.0,0.0,0.0,0.0,0.0,0.0,0.0,0.0,0.0,0.0,0.0,0.0,0.0,0.0,0.0,0.0,0.0,0.0,0.0,0.0,0.0,1.5945,1.5223,1.6735,1.6827,1.5202,0.0,0.0,0.0,0.0,0.0,0.0,0.0,0.0,0.0,0.0,0.0,0.0,0.0,0.0,0.0,0.0,0.0,0.0,0.0,0.0,0.0,0.0,0.0,0.0,0.0,0.0,0.0,0.0,0.0,0.0,0.0,0.0,0.0,0.0,0.0,0.0,0.0,0.0,0.0,0.0,0.0,0.0,0.0,0.0,0.0,0.0,0.0,0.0,0.0,0.0,0.0,0.0,0.0,0.0,0.0,0.0,0.0,0.0,0.0,0.0,0.0,0.0,0.0,0.0,0.0,0.0,0.0,0.0,0.0,0.0,0.0,0.0,0.0,0.0,0.0,0.0,0.0,0.0,0.0,0.0,0.0,0.0,0.0,0.0,0.0,0.0,0.0,0.0,0.0,0.0,0.0,0.0,0.0,0.0,0.0,0.0,0.0,0.0,0.0,0.0,0.0,0.0,0.0,0.0,0.0,0.0,0.0,0.0,0.0,0.0,0.0,0.0,1.6689,1.6854,1.5786,0.0,0.0,0.0,0.0,0.0,0.0,0.0,0.0,0.0,0.0,0.0,0.0,0.0,0.0,0.0,0.0,0.0,0.0,0.0,0.0,0.0,0.0,0.0,0.0,0.0,0.0,0.0,0.0,0.0,0.0,0.0,0.0,0.0,0.0,0.0,0.0,0.0,0.0,0.0,0.0,0.0,0.0,0.0,0.0,0.0,0.0,0.0,0.0,0.0,0.0,0.0,0.0,0.0,0.0,0.0,0.0,0.0,0.0,0.0,0.0,0.0,0.0,0.0,0.0,0.0,0.0,0.0,0.0,0.0,0.0,0.0,0.0,0.0,0.0,0.0,0.0,0.0,0.0,0.0,0.0,0.0,0.0,0.0,0.0,0.0,0.0,0.0,0.0,0.0,0.0,0.0,0.0,0.0,0.0,0.0,0.0,0.0,0.0,0.0,0.0,0.0,0.0,0.0,0.0,0.0,0.0,0.0,0.0,0.0,0.0,1.5642,1.6366,1.6536,0.0,1.7489,0.0,0.0,0.0,0.0,0.0,0.0,0.0,0.0,0.0,0.0,0.0,0.0,0.0,0.0,0.0,0.0,0.0,0.0,0.0,0.0,0.0,0.0,0.0,0.0,0.0,0.0,0.0,0.0,0.0,0.0,0.0,0.0,0.0,0.0,0.0,0.0,0.0,0.0,0.0,0.0,0.0,0.0,0.0,0.0,0.0,0.0,0.0,0.0,0.0,0.0,0.0,0.0,0.0,0.0,0.0,0.0,0.0,0.0,0.0,0.0,0.0,0.0,0.0,0.0,0.0,0.0,0.0,0.0,0.0,0.0,0.0,0.0,0.0,0.0,0.0,0.0,0.0,0.0,0.0,0.0,0.0,0.0,0.0,0.0,0.0,0.0,0.0,0.0,0.0,0.0,0.0,0.0,0.0,0.0,0.0,0.0,0.0,0.0,0.0,0.0,0.0,0.0,0.0,0.0,0.0,0.0,0.0,0.0,0.0,0.0,1.5676,1.6545,1.6565,1.6948,0.0,0.0,0.0,0.0,0.0,0.0,0.0,0.0,0.0,0.0,0.0,0.0,0.0,0.0,0.0,0.0,0.0,0.0,0.0,0.0,0.0,0.0,0.0,0.0,0.0,0.0,0.0,0.0,0.0,0.0,0.0,0.0,0.0,0.0,0.0,0.0,0.0,0.0,0.0,0.0,0.0,0.0,0.0,0.0,0.0,0.0,0.0,0.0,0.0,0.0,0.0,0.0,0.0,0.0,0.0,0.0,0.0,0.0,0.0,0.0,0.0,0.0,0.0,0.0,0.0,0.0,0.0,0.0,0.0,0.0,0.0,0.0,0.0,0.0,0.0,0.0,0.0,0.0,0.0,0.0,0.0,0.0,0.0,0.0,0.0,0.0,0.0,0.0,0.0,0.0,0.0,0.0,0.0,0.0,0.0,0.0,0.0,0.0,0.0,0.0,0.0,0.0,0.0,0.0,0.0,0.0,0.0,0.0,0.0,0.0,1.5793,1.6107,1.6931,1.6995,1.7342,1.8159,0.0,0.0,0.0,0.0,0.0,0.0,0.0,0.0,0.0,0.0,0.0,0.0,0.0,0.0,0.0,0.0,0.0,0.0,0.0,0.0,0.0,0.0,0.0,0.0,0.0,0.0,0.0,0.0,0.0,0.0,0.0,0.0,0.0,0.0,0.0,0.0,0.0,0.0,0.0,0.0,0.0,0.0,0.0,0.0,0.0,0.0,0.0,0.0,0.0,0.0,0.0,0.0,0.0,0.0,0.0,0.0,0.0,0.0,0.0,0.0,0.0,0.0,0.0,0.0,0.0,0.0,0.0,0.0,0.0,0.0,0.0,0.0,0.0,0.0,0.0,0.0,0.0,0.0,0.0,0.0,0.0,0.0,0.0,0.0,0.0,0.0,0.0,0.0,0.0,0.0,0.0,0.0,0.0,0.0,0.0,0.0,0.0,0.0,0.0,0.0,0.0,0.0,0.0,0.0,0.0,0.0,0.0,0.0,1.7627,1.7008,1.7057,1.7898,1.7919,1.8319,0.0,0.0,0.0,0.0,0.0,0.0,0.0,0.0,0.0,0.0,0.0,0.0,0.0,0.0,0.0,0.0,0.0,0.0,0.0,0.0,0.0,0.0,0.0,0.0,0.0,0.0,0.0,0.0,0.0,0.0,0.0,0.0,0.0,0.0,0.0,0.0,0.0,0.0,0.0,0.0,0.0,0.0,0.0,0.0,0.0,0.0,0.0,0.0,0.0,0.0,0.0,0.0,0.0,0.0,0.0,0.0,0.0,0.0,0.0,0.0,0.0,0.0,0.0,0.0,0.0,0.0,0.0,0.0,0.0,0.0,0.0,0.0,0.0,0.0,0.0,0.0,0.0,0.0,0.0,0.0,0.0,0.0,0.0,0.0,0.0,0.0,0.0,0.0,0.0,0.0,0.0,0.0,0.0,0.0,0.0,0.0,0.0,0.0,0.0,0.0,0.0,0.0,0.0,0.0,0.0,0.0,0.0,0.0,0.0,1.6288,1.7096,1.7958,1.8779,1.8309,1.8638,0.0,0.0,0.0,0.0,0.0,0.0,0.0,0.0,0.0,0.0,0.0,0.0,0.0,0.0,0.0,0.0,0.0,0.0,0.0,0.0,0.0,0.0,0.0,0.0,0.0,0.0,0.0,0.0,0.0,0.0,0.0,0.0,0.0,0.0,0.0,0.0,0.0,0.0,0.0,0.0,0.0,0.0,0.0,0.0,0.0,0.0,0.0,0.0,0.0,0.0,0.0,0.0,0.0,0.0,0.0,0.0,0.0,0.0,0.0,0.0,0.0,0.0,0.0,0.0,0.0,0.0,0.0,0.0,0.0,0.0,0.0,0.0,0.0,0.0,0.0,0.0,0.0,0.0,0.0,0.0,0.0,0.0,0.0,0.0,0.0,0.0,0.0,0.0,0.0,0.0,0.0,0.0,0.0,0.0,0.0,0.0,0.0,0.0,0.0,0.0,0.0,0.0,0.0,0.0,0.0,0.0,0.0,0.0,0.0,1.6247,0.0,1.8671,1.9196,1.8708,1.8941,0.0,0.0,0.0,0.0,0.0,0.0,0.0,0.0,0.0,0.0,0.0,0.0,0.0,0.0,0.0,0.0,0.0,0.0,0.0,0.0,0.0,0.0,0.0,0.0,0.0,0.0,0.0,0.0,0.0,0.0,0.0,0.0,0.0,0.0,0.0,0.0,0.0,0.0,0.0,0.0,0.0,0.0,0.0,0.0,0.0,0.0,0.0,0.0,0.0,0.0,0.0,0.0,0.0,0.0,0.0,0.0,0.0,0.0,0.0,0.0,0.0,0.0,0.0,0.0,0.0,0.0,0.0,0.0,0.0,0.0,0.0,0.0,0.0,0.0,0.0,0.0,0.0,0.0,0.0,0.0,0.0,0.0,0.0,0.0,0.0,0.0,0.0,0.0,0.0,0.0,0.0,0.0,0.0,0.0,0.0,0.0,0.0,0.0,0.0,0.0,0.0,0.0,0.0,0.0,0.0,0.0,0.0,0.0,1.7031,1.783,1.8699,1.9208,1.9237,1.9216,1.9258,0.0,0.0,0.0,0.0,0.0,0.0,0.0,0.0,0.0,0.0,0.0,0.0,0.0,0.0,0.0,0.0,0.0,0.0,0.0,0.0,0.0,0.0,0.0,0.0,0.0,0.0,0.0,0.0,0.0,0.0,0.0,0.0,0.0,0.0,0.0,0.0,0.0,0.0,0.0,0.0,0.0,0.0,0.0,0.0,0.0,0.0,0.0,0.0,0.0,0.0,0.0,0.0,0.0,0.0,0.0,0.0,0.0,0.0,0.0,0.0,0.0,0.0,0.0,0.0,0.0,0.0,0.0,0.0,0.0,0.0,0.0,0.0,0.0,0.0,0.0,0.0,0.0,0.0,0.0,0.0,0.0,0.0,0.0,0.0,0.0,0.0,0.0,0.0,0.0,0.0,0.0,0.0,0.0,0.0,0.0,0.0,0.0,0.0,0.0,0.0,0.0,0.0,0.0,0.0,0.0,0.0,0.0,0.0,0.0,1.7139,1.8461,1.9775,2.0893,1.9822,2.0076,0.0,0.0,0.0,0.0,0.0,0.0,0.0,0.0,0.0,0.0,0.0,0.0,0.0,0.0,0.0,0.0,0.0,0.0,0.0,0.0,0.0,0.0,0.0,0.0,0.0,0.0,0.0,0.0,0.0,0.0,0.0,0.0,0.0,0.0,0.0,0.0,0.0,0.0,0.0,0.0,0.0,0.0,0.0,0.0,0.0,0.0,0.0,0.0,0.0,0.0,0.0,0.0,0.0,0.0,0.0,0.0,0.0,0.0,0.0,0.0,0.0,0.0,0.0,0.0,0.0,0.0,0.0,0.0,0.0,0.0,0.0,0.0,0.0,0.0,0.0,0.0,0.0,0.0,0.0,0.0,0.0,0.0,0.0,0.0,0.0,0.0,0.0,0.0,0.0,0.0,0.0,0.0,0.0,0.0,0.0,0.0,0.0,0.0,0.0,0.0,0.0,0.0,0.0,0.0,0.0,0.0,0.0,0.0,0.0,1.8199,1.9432,2.0651,2.174,2.0689,2.0755,2.2029,0.0,0.0,0.0,0.0,0.0,0.0,0.0,0.0,0.0,0.0,0.0,0.0,0.0,0.0,0.0,0.0,0.0,0.0,0.0,0.0,0.0,0.0,0.0,0.0,0.0,0.0,0.0,0.0,0.0,0.0,0.0,0.0,0.0,0.0,0.0,0.0,0.0,0.0,0.0,0.0,0.0,0.0,0.0,0.0,0.0,0.0,0.0,0.0,0.0,0.0,0.0,0.0,0.0,0.0,0.0,0.0,0.0,0.0,0.0,0.0,0.0,0.0,0.0,0.0,0.0,0.0,0.0,0.0,0.0,0.0,0.0,0.0,0.0,0.0,0.0,0.0,0.0,0.0,0.0,0.0,0.0,0.0,0.0,0.0,0.0,0.0,0.0,0.0,0.0,0.0,0.0,0.0,0.0,0.0,0.0,0.0,0.0,0.0,0.0,0.0,0.0,0.0,0.0,0.0,0.0,0.0,0.0,0.0,2.0527,2.1365,2.1834,2.1862,2.1764,2.1351,0.0,0.0,0.0,0.0,0.0,0.0,0.0,0.0,0.0,0.0,0.0,0.0,0.0,0.0,0.0,0.0,0.0,0.0,0.0,0.0,0.0,0.0,0.0,0.0,0.0,0.0,0.0,0.0,0.0,0.0,0.0,0.0,0.0,0.0,0.0,0.0,0.0,0.0,0.0,0.0,0.0,0.0,0.0,0.0,0.0,0.0,0.0,0.0,0.0,0.0,0.0,0.0,0.0,0.0,0.0,0.0,0.0,0.0,0.0,0.0,0.0,0.0,0.0,0.0,0.0,0.0,0.0,0.0,0.0,0.0,0.0,0.0,0.0,0.0,0.0,0.0,0.0,0.0,0.0,0.0,0.0,0.0,0.0,0.0,0.0,0.0,0.0,0.0,0.0,0.0,0.0,0.0,0.0,0.0,0.0,0.0,0.0,0.0,0.0,0.0,0.0,0.0,0.0,0.0,0.0,0.0,0.0,0.0,0.0,2.2018,2.2834,2.3347,2.3508,2.2346,2.1913,0.0,0.0,0.0,0.0,0.0,0.0,0.0,0.0,0.0,0.0,0.0,0.0,0.0,0.0,0.0,0.0,0.0,0.0,0.0,0.0,0.0,0.0,0.0,0.0,0.0,0.0,0.0,0.0,0.0,0.0,0.0,0.0,0.0,0.0,0.0,0.0,0.0,0.0,0.0,0.0,0.0,0.0,0.0,0.0,0.0,0.0,0.0,0.0,0.0,0.0,0.0,0.0,0.0,0.0,0.0,0.0,0.0,0.0,0.0,0.0,0.0,0.0,0.0,0.0,0.0,0.0,0.0,0.0,0.0,0.0,0.0,0.0,0.0,0.0,0.0,0.0,0.0,0.0,0.0,0.0,0.0,0.0,0.0,0.0,0.0,0.0,0.0,0.0,0.0,0.0,0.0,0.0,0.0,0.0,0.0,0.0,0.0,0.0,0.0,0.0,0.0,0.0,0.0,0.0,0.0,0.0,0.0,0.0,2.2249,2.2552,2.3728,2.4436,2.4659,2.3358,2.2608,0.0,0.0,0.0,0.0,0.0,0.0,0.0,0.0,0.0,0.0,0.0,0.0,0.0,0.0,0.0,0.0,0.0,0.0,0.0,0.0,0.0,0.0,0.0,0.0,0.0,0.0,0.0,0.0,0.0,0.0,0.0,0.0,0.0,0.0,0.0,0.0,0.0,0.0,0.0,0.0,0.0,0.0,0.0,0.0,0.0,0.0,0.0,0.0,0.0,0.0,0.0,0.0,0.0,0.0,0.0,0.0,0.0,0.0,0.0,0.0,0.0,0.0,0.0,0.0,0.0,0.0,0.0,0.0,0.0,0.0,0.0,0.0,0.0,0.0,0.0,0.0,0.0,0.0,0.0,0.0,0.0,0.0,0.0,0.0,0.0,0.0,0.0,0.0,0.0,0.0,0.0,0.0,0.0,0.0,0.0,0.0,0.0,0.0,0.0,0.0,0.0,0.0,0.0,0.0,0.0,0.0,0.0,0.0,2.2708,2.2642,2.4212,2.5126,2.5234,2.4428,2.3309,0.0,0.0,0.0,0.0,0.0,0.0,0.0,0.0,0.0,0.0,0.0,0.0,0.0,0.0,0.0,0.0,0.0,0.0,0.0,0.0,0.0,0.0,0.0,0.0,0.0,0.0,0.0,0.0,0.0,0.0,0.0,0.0,0.0,0.0,0.0,0.0,0.0,0.0,0.0,0.0,0.0,0.0,0.0,0.0,0.0,0.0,0.0,0.0,0.0,0.0,0.0,0.0,0.0,0.0,0.0,0.0,0.0,0.0,0.0,0.0,0.0,0.0,0.0,0.0,0.0,0.0,0.0,0.0,0.0,0.0,0.0,0.0,0.0,0.0,0.0,0.0,0.0,0.0,0.0,0.0,0.0,0.0,0.0,0.0,0.0,0.0,0.0,0.0,0.0,0.0,0.0,0.0,0.0,0.0,0.0,0.0,0.0,0.0,0.0,0.0,0.0,0.0,0.0,0.0,0.0,0.0,0.0,0.0,2.2795,2.3291,2.4252,2.4847,2.4962,2.4347,2.3578,0.0,0.0,0.0,0.0,0.0,0.0,0.0,0.0,0.0,0.0,0.0,0.0,0.0,0.0,0.0,0.0,0.0,0.0,0.0,0.0,0.0,0.0,0.0,0.0,0.0,0.0,0.0,0.0,0.0,0.0,0.0,0.0,0.0,0.0,0.0,0.0,0.0,0.0,0.0,0.0,0.0,0.0,0.0,0.0,0.0,0.0,0.0,0.0,2.0648,0.0,0.0,0.0,0.0,0.0,0.0,0.0,0.0,0.0,0.0,0.0,0.0,0.0,0.0,0.0,0.0,0.0,0.0,0.0,0.0,0.0,0.0,0.0,0.0,0.0,0.0,0.0,0.0,0.0,0.0,0.0,0.0,0.0,0.0,0.0,0.0,0.0,0.0,0.0,0.0,0.0,0.0,0.0,0.0,0.0,0.0,0.0,0.0,0.0,0.0,0.0,0.0,0.0,0.0,0.0,0.0,0.0,0.0,0.0,2.3239,2.3502,2.4276,2.4764,2.4883,2.4593,2.3907,0.0,0.0,0.0,0.0,0.0,0.0,0.0,0.0,0.0,0.0,0.0,0.0,0.0,0.0,0.0,0.0,0.0,0.0,0.0,0.0,0.0,0.0,0.0,0.0,0.0,0.0,0.0,0.0,0.0,0.0,0.0,0.0,0.0,0.0,0.0,0.0,0.0,0.0,0.0,0.0,0.0,0.0,0.0,0.0,0.0,0.0,0.0,0.0,0.0,0.0,0.0,0.0,0.0,0.0,0.0,0.0,0.0,0.0,0.0,0.0,0.0,0.0,0.0,0.0,0.0,0.0,0.0,0.0,0.0,0.0,0.0,0.0,0.0,0.0,0.0,0.0,0.0,0.0,0.0,0.0,0.0,0.0,0.0,0.0,0.0,0.0,0.0,0.0,0.0,0.0,0.0,0.0,0.0,0.0,0.0,0.0,0.0,0.0,0.0,0.0,0.0,0.0,0.0,0.0,0.0,0.0,0.0,2.2874,2.3613,2.3708,2.4351,2.4749,2.4861,2.4861,2.417,2.2748,0.0,0.0,0.0,0.0,0.0,0.0,0.0,0.0,0.0,0.0,0.0,0.0,0.0,0.0,0.0,0.0,0.0,0.0,0.0,0.0,0.0,0.0,0.0,0.0,0.0,0.0,0.0,0.0,0.0,0.0,0.0,0.0,0.0,0.0,0.0,0.0,0.0,0.0,1.9618,2.0218,0.0,0.0,0.0,0.0,0.0,0.0,0.0,0.0,2.0398,0.0,0.0,0.0,0.0,0.0,0.0,0.0,0.0,0.0,0.0,0.0,0.0,0.0,0.0,0.0,0.0,0.0,0.0,0.0,0.0,0.0,0.0,0.0,0.0,0.0,0.0,0.0,0.0,0.0,0.0,0.0,0.0,0.0,0.0,0.0,0.0,0.0,0.0,0.0,0.0,0.0,0.0,0.0,0.0,0.0,0.0,0.0,0.0,0.0,0.0,0.0,0.0,0.0,0.0,0.0,0.0,2.2197,2.2507,2.3226,2.4463,2.4632,2.4723,2.4738,2.4719,2.4044,2.265,0.0,0.0,0.0,0.0,0.0,0.0,0.0,0.0,0.0,0.0,0.0,0.0,0.0,0.0,0.0,0.0,0.0,0.0,0.0,0.0,0.0,0.0,0.0,0.0,0.0,0.0,0.0,0.0,0.0,0.0,0.0,0.0,0.0,0.0,0.0,0.0,0.0,0.0,0.0,1.978,2.0551,0.0,0.0,0.0,0.0,0.0,0.0,0.0,0.0,1.953,0.0,0.0,0.0,0.0,0.0,0.0,0.0,0.0,0.0,0.0,0.0,0.0,0.0,0.0,0.0,0.0,0.0,0.0,0.0,0.0,0.0,0.0,0.0,0.0,0.0,0.0,0.0,0.0,0.0,0.0,0.0,0.0,0.0,0.0,0.0,0.0,0.0,0.0,0.0,0.0,0.0,0.0,0.0,0.0,0.0,0.0,0.0,0.0,0.0,0.0,0.0,0.0,0.0,0.0,0.0,2.2312,2.3079,2.3821,2.4476,2.4561,2.4594,2.4594,2.4679,2.4007,0.0,0.0,0.0,0.0,0.0,0.0,0.0,0.0,0.0,0.0,0.0,0.0,0.0,0.0,0.0,0.0,0.0,0.0,0.0,0.0,0.0,0.0,0.0,0.0,0.0,0.0,0.0,0.0,0.0,0.0,0.0,0.0,0.0,0.0,0.0,0.0,0.0,0.0,0.0,0.0,1.9606,1.9925,2.0385,0.0,0.0,0.0,0.0,0.0,0.0,1.9384,1.9236,0.0,0.0,0.0,0.0,0.0,0.0,0.0,0.0,0.0,0.0,0.0,0.0,0.0,0.0,0.0,0.0,0.0,0.0,0.0,0.0,0.0,0.0,0.0,0.0,0.0,0.0,0.0,0.0,0.0,0.0,0.0,0.0,0.0,0.0,0.0,0.0,0.0,0.0,0.0,0.0,0.0,0.0,0.0,0.0,0.0,0.0,0.0,0.0,0.0,0.0,0.0,0.0,0.0,0.0,0.0,2.2257,2.3534,2.4278,2.4338,2.4444,2.4512,2.4545,2.4666,2.3997,0.0,0.0,0.0,0.0,0.0,0.0,0.0,0.0,0.0,0.0,0.0,0.0,0.0,0.0,0.0,0.0,0.0,0.0,0.0,0.0,0.0,0.0,0.0,0.0,0.0,0.0,0.0,0.0,0.0,0.0,0.0,0.0,0.0,0.0,0.0,0.0,0.0,0.0,0.0,0.0,0.0,1.9455,1.9829,1.9603,0.0,0.0,0.0,0.0,1.9295,1.9035,0.0,0.0,0.0,0.0,0.0,0.0,0.0,0.0,0.0,0.0,0.0,0.0,0.0,0.0,0.0,0.0,0.0,0.0,0.0,0.0,0.0,0.0,0.0,0.0,0.0,0.0,0.0,0.0,0.0,0.0,0.0,0.0,0.0,0.0,0.0,0.0,0.0,0.0,0.0,0.0,0.0,0.0,0.0,0.0,0.0,0.0,0.0,0.0,0.0,0.0,0.0,0.0,0.0,0.0,0.0,0.0,2.22,2.2943,2.3735,2.4422,2.4476,2.458,2.4676,2.4679,2.3953,0.0,0.0,0.0,0.0,0.0,0.0,0.0,0.0,0.0,0.0,0.0,0.0,0.0,0.0,0.0,0.0,0.0,0.0,0.0,0.0,0.0,0.0,0.0,0.0,0.0,0.0,0.0,0.0,0.0,0.0,0.0,0.0,0.0,0.0,0.0,0.0,0.0,0.0,0.0,0.0,0.0,1.9621,1.9551,1.931,1.9236,0.0,0.0,1.863,1.863,1.8226,0.0,0.0,0.0,0.0,0.0,0.0,0.0,0.0,0.0,0.0,0.0,0.0,0.0,0.0,0.0,0.0,0.0,0.0,0.0,0.0,0.0,0.0,0.0,0.0,0.0,0.0,0.0,0.0,0.0,0.0,0.0,0.0,0.0,0.0,0.0,0.0,0.0,0.0,0.0,0.0,0.0,0.0,0.0,0.0,0.0,0.0,0.0,0.0,0.0,0.0,0.0,0.0,0.0,0.0,0.0,2.1865,2.2111,2.3205,2.3933,2.4266,2.4445,2.4547,2.4559,2.4631,2.3941,0.0,0.0,0.0,0.0,0.0,0.0,0.0,0.0,0.0,0.0,0.0,0.0,0.0,0.0,0.0,0.0,0.0,0.0,0.0,0.0,0.0,0.0,0.0,0.0,0.0,0.0,0.0,0.0,0.0,0.0,0.0,0.0,0.0,0.0,0.0,0.0,0.0,0.0,0.0,0.0,0.0,0.0,1.8869,1.8784,0.0,0.0,0.0,1.8266,1.8054,0.0,0.0,0.0,0.0,0.0,0.0,0.0,0.0,0.0,0.0,0.0,0.0,0.0,0.0,0.0,0.0,0.0,0.0,0.0,0.0,0.0,0.0,0.0,0.0,0.0,0.0,0.0,0.0,0.0,0.0,0.0,0.0,0.0,0.0,0.0,0.0,0.0,0.0,0.0,0.0,0.0,0.0,0.0,0.0,0.0,0.0,0.0,0.0,0.0,0.0,0.0,0.0,0.0,0.0,0.0,0.0,0.0,2.1975,2.34,2.4134,2.4132,2.4321,2.4461,2.4495,2.4564,0.0,0.0,0.0,0.0,0.0,0.0,0.0,0.0,0.0,0.0,0.0,0.0,0.0,0.0,0.0,0.0,0.0,0.0,0.0,0.0,0.0,0.0,0.0,0.0,0.0,0.0,0.0,1.8828,0.0,0.0,0.0,0.0,0.0,0.0,0.0,0.0,0.0,0.0,0.0,0.0,0.0,0.0,1.8878,1.8226,1.8226,1.8147,0.0,0.0,1.7814,1.7476,1.7271,1.7284,0.0,0.0,0.0,0.0,0.0,0.0,0.0,0.0,0.0,0.0,0.0,0.0,0.0,0.0,0.0,0.0,0.0,0.0,0.0,0.0,0.0,0.0,0.0,0.0,0.0,0.0,0.0,0.0,0.0,0.0,0.0,0.0,0.0,0.0,0.0,0.0,0.0,0.0,0.0,0.0,0.0,0.0,0.0,0.0,0.0,0.0,0.0,0.0,0.0,0.0,0.0,0.0,0.0,0.0,2.2081,2.1867,2.3253,2.4036,2.4094,2.4229,2.4375,2.4495,2.4564,2.383,0.0,0.0,0.0,0.0,0.0,0.0,0.0,0.0,0.0,0.0,0.0,0.0,0.0,0.0,0.0,0.0,0.0,0.0,0.0,0.0,0.0,0.0,0.0,0.0,0.0,0.0,0.0,0.0,0.0,0.0,0.0,0.0,0.0,0.0,0.0,0.0,0.0,0.0,0.0,0.0,0.0,1.8422,1.7828,1.776,1.7693,0.0,1.716,1.6879,1.6879,1.6565,1.6479,1.6951,0.0,0.0,0.0,0.0,0.0,0.0,0.0,0.0,0.0,0.0,0.0,0.0,0.0,0.0,0.0,0.0,0.0,0.0,0.0,0.0,0.0,0.0,0.0,0.0,0.0,0.0,0.0,0.0,0.0,0.0,0.0,0.0,0.0,0.0,0.0,0.0,0.0,0.0,0.0,0.0,0.0,0.0,0.0,0.0,0.0,0.0,0.0,0.0,0.0,0.0,0.0,0.0,0.0,2.2111,2.1943,2.3382,2.4096,2.4113,2.4321,2.4444,2.4512,2.4564,2.4057,0.0,0.0,0.0,0.0,0.0,0.0,0.0,0.0,0.0,0.0,0.0,0.0,0.0,0.0,0.0,0.0,0.0,0.0,0.0,0.0,0.0,0.0,0.0,0.0,0.0,0.0,0.0,0.0,1.9108,1.8875,1.873,0.0,0.0,0.0,0.0,0.0,0.0,0.0,0.0,0.0,0.0,1.7585,1.7214,1.7118,0.0,0.0,1.7089,1.7262,1.7055,1.6859,1.6826,1.7068,1.739,0.0,0.0,0.0,0.0,0.0,0.0,0.0,0.0,0.0,0.0,0.0,0.0,0.0,0.0,0.0,0.0,0.0,0.0,0.0,0.0,0.0,0.0,0.0,0.0,0.0,0.0,0.0,0.0,0.0,0.0,0.0,0.0,0.0,0.0,0.0,0.0,0.0,0.0,0.0,0.0,0.0,0.0,0.0,0.0,0.0,0.0,0.0,0.0,0.0,0.0,0.0,0.0,2.2125,2.194,2.34,2.4115,2.4112,2.4339,2.4461,2.4495,2.4564,2.4241,0.0,0.0,0.0,0.0,0.0,0.0,0.0,0.0,0.0,0.0,0.0,0.0,0.0,0.0,0.0,0.0,0.0,0.0,0.0,0.0,0.0,0.0,0.0,0.0,0.0,0.0,0.0,0.0,1.9427,1.9072,1.914,0.0,0.0,0.0,0.0,0.0,0.0,0.0,0.0,0.0,0.0,1.748,1.7131,1.6948,1.6717,1.6421,1.686,1.7175,1.6933,1.6785,1.6699,1.6825,0.0,0.0,0.0,0.0,0.0,0.0,0.0,0.0,0.0,0.0,0.0,0.0,0.0,0.0,0.0,0.0,0.0,0.0,0.0,0.0,0.0,0.0,0.0,0.0,0.0,0.0,0.0,2.2804,0.0,0.0,2.2785,0.0,0.0,0.0,0.0,0.0,0.0,0.0,0.0,0.0,0.0,0.0,0.0,0.0,0.0,0.0,0.0,0.0,0.0,0.0,0.0,0.0,0.0,2.2062,2.183,2.3253,2.4036,2.4094,2.4247,2.4356,2.4495,2.4564,2.4222,2.3419,0.0,0.0,0.0,0.0,0.0,0.0,0.0,0.0,0.0,0.0,0.0,0.0,0.0,0.0,0.0,0.0,0.0,0.0,0.0,0.0,0.0,0.0,0.0,0.0,0.0,0.0,1.9065,1.8795,1.8829,0.0,0.0,0.0,0.0,0.0,0.0,0.0,0.0,0.0,1.8239,1.8403,1.8384,1.7797,1.7319,1.6883,1.6779,1.6467,1.6249,1.6242,1.6099,1.5962,0.0,0.0,0.0,0.0,0.0,0.0,0.0,0.0,0.0,0.0,0.0,0.0,0.0,0.0,0.0,0.0,0.0,0.0,0.0,0.0,0.0,0.0,0.0,0.0,0.0,0.0,0.0,2.2643,2.2805,0.0,0.0,0.0,0.0,0.0,0.0,0.0,0.0,0.0,0.0,0.0,2.5261,2.5248,0.0,0.0,0.0,0.0,0.0,0.0,0.0,0.0,0.0,0.0,0.0,0.0,2.2044,2.1937,2.3271,2.3996,2.3958,2.4191,2.4321,2.4375,2.4532,2.4174,2.3293,0.0,0.0,0.0,0.0,0.0,0.0,0.0,0.0,0.0,0.0,0.0,0.0,0.0,0.0,0.0,0.0,0.0,0.0,0.0,0.0,0.0,0.0,0.0,0.0,0.0,2.0225,0.0,0.0,0.0,0.0,0.0,0.0,0.0,0.0,0.0,0.0,1.7372,1.73,1.7015,1.6929,1.6851,1.6811,1.6474,1.6261,0.0,0.0,0.0,0.0,0.0,0.0,0.0,0.0,0.0,0.0,0.0,0.0,0.0,0.0,1.6011,1.7194,1.7368,1.73,1.7311,0.0,0.0,0.0,0.0,0.0,0.0,0.0,0.0,0.0,0.0,0.0,0.0,0.0,0.0,2.3454,2.3647,2.3375,0.0,0.0,0.0,0.0,0.0,0.0,0.0,0.0,2.4278,2.4536,2.5006,2.5025,2.5019,2.5025,2.5006,2.5152,0.0,0.0,0.0,0.0,0.0,0.0,0.0,0.0,2.2691,2.2345,2.3418,2.3996,2.3976,2.4115,2.4247,2.4284,2.4446,2.4205,2.351,2.4649,2.4871,0.0,0.0,0.0,0.0,0.0,0.0,0.0,0.0,0.0,0.0,0.0,0.0,0.0,0.0,0.0,0.0,0.0,0.0,0.0,0.0,0.0,0.0,0.0,2.0525,0.0,0.0,0.0,0.0,0.0,0.0,0.0,0.0,0.0,1.6883,1.7049,1.7082,1.6717,1.6826,1.6951,1.6818,0.0,0.0,0.0,0.0,0.0,0.0,0.0,1.6651,1.6957,1.7008,1.7002,1.7013,1.6563,1.6244,1.6265,0.0,0.0,1.6937,1.7148,1.7146,1.7146,1.7211,1.7244,1.7,1.612,1.5385,0.0,0.0,0.0,0.0,2.4296,0.0,0.0,0.0,2.4491,2.4543,0.0,2.4446,0.0,0.0,0.0,0.0,2.5115,2.4277,0.0,0.0,2.4839,2.4814,2.4738,2.4776,2.4779,2.4776,2.5007,2.5404,2.5882,2.5231,0.0,0.0,0.0,0.0,0.0,0.0,2.393,2.3069,2.3709,2.4109,2.4184,2.4203,2.4244,2.4377,2.445,2.4376,2.4107,2.4394,2.482,2.5461,2.4819,0.0,0.0,0.0,0.0,0.0,0.0,0.0,0.0,0.0,0.0,0.0,0.0,0.0,0.0,0.0,0.0,0.0,0.0,0.0,0.0,2.1108,0.0,0.0,0.0,0.0,0.0,0.0,0.0,0.0,0.0,1.7277,1.6831,1.7594,1.8017,1.7358,0.0,0.0,0.0,0.0,1.6716,1.6631,1.6277,1.5979,1.5979,1.585,1.5735,1.5725,0.0,0.0,1.572,1.573,1.573,1.5846,1.5856,1.5788,1.5478,1.5682,1.5788,1.5798,1.5876,1.5828,1.574,1.5584,1.54,2.6343,0.0,0.0,0.0,0.0,2.5971,2.5721,2.5321,2.5072,2.507,2.5206,2.4998,0.0,0.0,0.0,0.0,0.0,0.0,2.435,2.5056,2.4476,2.4472,2.507,2.5621,2.5926,2.5926,2.6455,2.6719,2.6735,2.6444,2.6301,2.6327,0.0,0.0,0.0,0.0,2.3619,2.3822,2.4492,2.5124,2.5667,2.5768,2.5813,2.58,2.58,2.5713,2.543,2.6,2.6144,2.5796,2.6074,0.0,0.0,0.0,0.0,0.0,0.0,0.0,0.0,0.0,0.0,0.0,0.0,0.0,0.0,0.0,0.0,0.0,0.0,0.0,2.1214,2.1228,2.1089,0.0,0.0,0.0,0.0,0.0,0.0,0.0,0.0,0.0,1.6776,1.7179,1.7323,0.0,0.0,1.7446,1.7234,1.6613,1.6259,1.6594,1.6144,0.0,1.5583,1.5659,1.5806,1.6069,1.6058,1.6036,1.6093,1.5758,1.5478,1.5536,1.5536,1.5478,1.5468,1.5546,1.5672,1.5682,1.5614,1.5546,1.5478,1.541,1.542,2.8394,2.883,2.7862,2.7119,2.6638,2.6621,2.6487,2.6271,2.6247,2.624,2.6192,2.6173,2.6192,2.6173,2.586,0.0,0.0,0.0,2.5332,2.6054,2.5551,2.5533,2.5999,2.6418,2.6582,2.662,2.7016,2.7262,2.7382,2.7381,2.7643,2.8082,0.0,2.5761,2.5529,2.5208,2.5001,2.5024,2.5458,2.5885,2.625,2.6336,2.6313,2.6168,2.6254,2.6186,2.5918,2.6659,2.6864,2.6365,2.6726,2.6728,0.0,0.0,0.0,0.0,0.0,0.0,0.0,0.0,0.0,0.0,0.0,2.2865,2.2501,0.0,0.0,0.0,2.1512,2.1386,2.1565,2.1262,0.0,0.0,0.0,0.0,0.0,0.0,0.0,1.8378,1.8047,1.7589,1.6944,1.7034,1.6989,1.6488,1.674,1.6899,1.657,0.0,1.5904,1.6104,1.5836,1.5546,1.542,1.5488,1.5652,1.5931,1.5968,1.5911,1.5911,1.5633,1.541,1.542,1.542,1.542,1.542,1.5478,1.5604,1.5604,1.5478,1.542,1.542,1.542,1.542,3.0316,3.0105,2.786,2.6839,2.6707,2.6696,2.7063,2.7701,2.7701,2.7701,2.7701,2.7701,2.7701,2.7663,2.6924,0.0,2.7682,2.6924,2.688,2.7409,2.7428,2.7354,2.7215,2.71,2.7028,2.7028,2.7084,2.7395,2.7908,2.8118,2.857,2.9235,2.8338,2.7564,2.697,2.7417,2.7303,2.6516,2.6494,2.6445,2.6403,2.6362,2.6225,2.6022,2.6231,2.6182,2.5896,2.6675,2.7092,2.704,2.6952,2.6943,2.6926,0.0,0.0,0.0,0.0,0.0,0.0,0.0,0.0,0.0,0.0,0.0,0.0,0.0,0.0,2.1594,2.1427,0.0,2.22,2.1195,0.0,0.0,0.0,2.0067,2.0182,1.9604,1.9226,1.9121,0.0,0.0,1.7146,1.7157,1.6944,1.642,1.6751,1.674,1.6077,1.5856,1.5662,1.5594,1.5468,1.542,1.542,1.541,1.542,1.5468,1.542,1.5468,1.5478,1.541,1.542,1.542,1.542,1.542,1.542,1.542,1.542,1.541,1.542,1.542,1.542,1.542,1.541,3.0379,3.0321,2.9744,2.9118,2.8487,2.8408,2.8134,2.772,2.7714,2.7701,2.7701,2.7701,2.7701,2.7701,2.7504,2.751,2.7701,2.7491,2.7478,2.7643,2.7643,2.7523,2.738,2.7935,2.8118,2.8015,2.8633,2.895,2.8952,2.8975,2.9024,2.9071,2.8838,2.8412,2.7787,2.7135,2.7002,2.7314,2.7245,2.7507,2.8015,2.7951,2.7797,2.7647,2.7584,2.7429,2.7145,2.7303,2.7379,2.7308,2.7235,2.7187,2.7187,2.644,0.0,0.0,0.0,0.0,0.0,0.0,0.0,0.0,0.0,2.3258,2.2916,0.0,2.2289,0.0,2.2044,2.1911,2.1707,2.1481,0.0,0.0,2.0755,2.0502,1.999,1.9823,1.9448,1.8471,1.8093,1.749,1.6492,1.6513,1.6477,1.6239,1.6616,1.6899,1.6591,1.6077,1.5836,1.6171,1.5758,1.5468,1.5546,1.5478,1.542,1.542,1.542,1.542,1.542,1.542,1.542,1.542,1.542,1.542,1.542,1.542,1.542,1.542,1.542,1.542,1.542,1.542,1.5352,3.0398,3.0398,3.0398,2.9898,2.9118,2.9454,2.9289,2.8823,2.8817,2.8823,2.8809,2.8829,2.8809,2.8829,2.8809,2.8809,2.8809,2.8741,2.866,2.8679,2.8567,2.849,2.8412,2.8741,2.8858,2.8764,2.9152,2.927,2.9163,2.9181,2.9115,2.8998,2.8975,2.8823,2.8473,2.786,2.7725,2.8135,2.804,2.8184,2.8569,2.8476,2.8327,2.8219,2.8081,2.7882,2.76,2.7526,2.7483,2.7407,2.7362,2.7299,2.7299,2.6693,2.6578,0.0,0.0,0.0,0.0,0.0,0.0,0.0,0.0,0.0,0.0,0.0,2.2556,2.2367,2.1806,2.139,2.1236,2.0948,2.0677,2.0359,2.045,2.0284,1.9862,1.9436,1.891,1.8201,1.76,1.6933,1.6228,1.6192,1.6192,1.6019,1.6296,1.6457,1.641,1.5894,1.5662,1.5989,1.57,1.542,1.5536,1.5478,1.542,1.542,1.542,1.542,1.542,1.542,1.542,1.542,1.542,1.542,1.542,1.542,1.542,1.542,1.5362,1.5294,1.541,1.5352,1.5254,3.0398,3.0398,3.0398,2.9948,2.9313,3.0021,3.0152,2.9895,2.9895,2.9945,3.0032,3.0114,3.0157,3.0157,3.0142,3.0128,3.0128,2.9937,2.9855,2.9855,2.9681,2.9608,2.9589,2.9435,2.9334,2.9293,2.9115,2.9021,2.8975,2.8975,2.8975,2.8975,2.8994,2.8952,2.8905,2.8881,2.8815,2.8761,2.8662,2.8587,2.8587,2.8476,2.8327,2.8201,2.8053,2.7853,2.7604,2.7526,2.7483,2.7376,2.733,2.7299,2.7299,2.694,2.6758,0.0,2.6367,0.0,0.0,0.0,0.0,0.0,0.0,0.0,0.0,2.3098,2.2737,2.2328,2.1321,2.0696,2.0759,2.0207,1.9798,1.9798,1.9798,1.9798,1.9747,1.8898,1.8309,1.8201,1.7157,1.6436,1.6332,1.6275,1.6228,1.6181,1.6181,1.6239,1.6114,1.5768,1.541,1.542,1.542,1.5478,1.541,1.542,1.542,1.542,1.542,1.542,1.542,1.542,1.542,1.542,1.542,1.542,1.542,1.542,1.541,1.5352,1.5245,1.5186,1.5303,1.5245,1.5147,3.0398,3.0398,3.0398,3.0302,3.0167,3.0321,2.9567,2.8234,2.8204,2.853,2.9197,2.9734,2.9956,2.9956,2.9805,2.9735,2.9716,2.9662,2.9662,2.9681,2.9607,2.9608,2.9608,2.957,2.9436,2.9314,2.927,2.9141,2.8975,2.8975,2.8975,2.8975,2.8952,2.8905,2.8905,0.0,0.0,0.0,2.863,2.8587,2.8587,2.838,2.8228,2.8201,2.7904,0.0,2.7526,2.7478,2.7452,2.7313,2.7299,0.0,0.0,0.0,0.0,0.0,0.0,0.0,0.0,0.0,0.0,0.0,2.3651,2.358,2.3406,2.3098,2.2706,2.2263,2.1623,2.1091,2.0646,2.0156,1.9798,1.9798,1.9798,1.9798,1.9798,1.9592,1.9267,1.8685,1.8417,1.7972,1.7224,1.7268,1.7279,1.7,1.7112,1.7145,1.703,1.6066,1.5488,1.5585,1.5634,1.5546,1.542,1.542,1.542,1.542,1.542,1.542,1.542,1.542,1.542,1.542,1.542,1.542,1.542,1.542,1.5362,1.5254,1.5215,1.5205,1.5205,1.501,1.4883,3.0398,3.0398,3.0398,3.016,0.0,2.9756,2.9033,2.7907,2.8663,2.9174,2.956,2.9908,3.0049,3.0015,2.9501,2.9263,2.9244,2.8747,2.8716,2.9093,2.9005,2.9194,2.9608,2.9513,2.9397,2.9293,2.9225,2.9093,2.8998,2.8975,2.8975,2.8975,2.8929,2.8863,2.8858,2.8694,2.8619,2.8587,2.8587,2.8562,2.8484,2.8327,2.8164,2.8109,2.7864,0.0,0.0,0.0,0.0,0.0,0.0,0.0,0.0,2.6505,0.0,2.6139,2.5977,2.5535,2.4799,2.4599,2.4173,2.345,2.326,2.3083,2.3024,2.2586,2.2137,2.1636,2.114,2.061,2.0156,1.9901,1.9811,1.9708,1.9747,1.9747,1.9708,1.9552,1.9069,1.8363,1.7984,1.749,1.6662,1.6616,1.6606,1.6436,1.6492,1.6585,1.6398,1.6099,1.5816,1.5614,1.5556,1.5546,1.542,1.542,1.541,1.542,1.542,1.542,1.542,1.542,1.542,1.542,1.542,1.542,1.5303,1.5313,1.5254,1.5147,1.5029,1.4961,1.497,1.4834,1.4756,3.0398,3.0398,3.0398,2.9987,2.9333,2.9313,2.8948,2.8398,2.9569,0.0,0.0,3.0099,3.0142,3.0085,2.9351,2.9017,2.896,2.8161,2.8121,2.8693,2.8537,2.8839,2.9533,2.9357,2.9293,2.9293,2.9138,2.9021,2.8998,2.8975,2.8975,2.8994,2.8929,2.8858,2.8785,2.8644,2.8587,2.8562,2.8605,2.851,2.8398,2.8273,2.8136,2.7968,2.7789,2.7612,2.7465,2.7496,2.7244,2.6725,2.6708,2.6505,2.6139,2.5799,2.5577,2.5503,2.5246,2.4871,2.4457,2.4151,2.3797,2.3334,2.3053,2.2857,2.2661,2.2217,2.1698,2.1091,2.061,2.0131,1.9604,1.9668,1.9708,1.9565,1.9656,1.9708,1.9565,1.9251,1.8815,1.805,1.7667,1.7,1.6503,1.6457,1.6218,1.614,1.6492,1.6156,1.5925,1.6038,1.5853,1.5526,1.542,1.541,1.5575,1.5575,1.5584,1.5633,1.569,1.5633,1.5459,1.5468,1.5526,1.5362,1.5362,1.5313,1.5215,1.5156,1.5088,1.497,1.4849,1.4818,1.4768,1.4773,1.4731,3.0398,3.0398,3.0398,3.0321,3.0217,3.0206,3.011,2.9913,2.9423,2.9149,2.9121,2.968,2.9937,2.9921,2.9619,2.9511,2.9492,2.9362,2.927,2.9209,2.9169,2.9223,2.9355,2.9314,2.9293,2.9293,2.927,2.9181,2.8998,2.8975,2.8975,2.8994,2.8947,2.8815,2.8718,2.8694,2.8612,2.8432,2.8536,2.8466,2.8228,2.8201,2.8091,2.7847,2.773,2.76,2.7421,2.7483,2.7261,2.6725,2.6708,2.6505,2.6139,2.6033,2.5872,2.554,2.5481,2.5059,2.4151,2.4009,2.3726,2.3068,2.2947,2.2888,2.2843,2.2615,2.2123,2.1272,2.0858,2.0359,1.9565,1.9473,1.9473,1.942,1.942,1.9473,1.942,1.9368,1.921,1.8893,1.8893,1.8721,1.8278,1.8267,1.8213,1.8375,1.7941,1.819,1.7423,1.6451,1.5575,1.541,1.542,1.5642,1.5911,1.614,1.6093,1.6197,1.6472,1.6368,1.5517,1.573,1.5866,1.5342,1.5322,1.5204,1.5086,1.5039,1.5037,1.4877,1.4981,1.5124,1.5019,1.5042,1.4818,3.0398,3.0398,3.0398,3.0398,3.0398,3.0398,3.0367,3.0266,2.9889,2.9698,2.9685,2.9999,3.0123,3.0071,2.9447,2.9158,2.9139,2.8551,2.8483,2.8802,2.8764,2.9007,2.9418,2.9355,2.9293,2.9293,2.9293,2.9203,2.904,2.9115,2.9115,2.8994,2.8905,2.8791,2.8712,2.8612,2.844,2.83,2.8432,2.8353,2.8109,2.8081,2.795,2.7719,2.7659,2.7557,2.7425,2.7438,2.7103,2.6385,2.635,2.6104,2.5535,2.5497,2.5422,2.523,2.5036,2.4695,2.4024,2.364,2.3201,2.2752,2.2752,2.2661,2.2509,2.2231,2.1698,2.0845,2.0446,2.0016,1.9368,1.9368,1.9368,1.9275,1.9316,1.9368,1.9328,1.9368,1.921,1.8709,1.8667,1.8548,1.8093,1.8038,1.8038,1.8038,1.8038,1.7929,1.771,1.6978,1.6255,1.5968,1.5921,1.5796,1.5864,1.5796,1.5796,1.5796,1.5979,1.5874,1.5391,1.5684,1.5752,1.5552,1.5559,1.5683,1.5524,1.5477,1.5397,1.5263,1.5132,1.5151,1.5132,1.5121,1.5003,3.0398,3.0398,3.0398,3.0398,3.0398,3.0398,3.0379,3.0336,3.0316,3.0323,3.0318,3.0305,3.0312,3.0222,2.947,2.9127,2.9017,2.8244,2.8223,2.87,2.8684,2.9005,2.9533,2.9435,2.9355,2.9314,2.9293,2.9185,2.9044,2.916,2.9141,2.8975,2.8858,2.8743,2.8644,2.851,2.8327,2.8191,2.8246,2.8209,2.794,2.7986,2.7853,2.7617,2.7557,2.7434,2.7264,2.7184,2.6808,2.6033,2.5944,2.5668,2.5005,2.4982,2.5021,2.4942,2.4661,2.4333,2.3882,2.3275,2.2797,2.2615,2.2615,2.2463,2.2137,2.1746,2.1264,2.066,2.0207,1.9759,1.938,1.9316,1.9263,1.917,1.9275,1.9263,1.917,1.9275,1.9093,1.8429,1.8375,1.8267,1.7765,1.7589,1.7699,1.7754,1.7589,1.7589,1.7589,1.76,1.7257,1.6754,1.6539,1.6312,1.5874,1.5758,1.5748,1.5642,1.5751,1.5704,1.5545,1.5645,1.5813,1.5799,1.5885,1.5883,1.5753,1.5679,1.5551,1.5322,1.5198,1.5134,1.519,1.5207,1.512,3.0398,3.0398,3.0398,3.0398,3.0398,3.0398,3.0398,3.0398,3.0398,3.0379,3.0386,3.0337,3.0312,3.0292,3.0125,3.0021,3.0008,2.9961,2.9806,2.9702,2.9758,2.9693,2.9589,2.9551,2.9474,2.9314,2.9293,2.9185,2.9017,2.9021,2.8975,2.8929,2.8905,2.8743,2.8543,2.8492,2.8335,2.8025,2.8025,2.794,2.776,2.7929,2.7824,2.7509,2.7465,2.7198,2.6791,2.6657,2.6247,2.5635,2.5577,2.5329,2.4886,2.4942,2.4942,2.4822,2.462,2.4193,2.3508,2.3083,2.2812,2.2615,2.2569,2.237,2.1916,2.1492,2.1237,2.1006,2.0523,1.9965,1.9604,1.9251,1.9052,1.9052,1.9052,1.9052,1.9088,1.904,1.8987,1.8922,1.8917,1.8881,1.8709,1.8709,1.8762,1.8655,1.8602,1.859,1.8602,1.8441,1.8104,1.76,1.7101,1.6888,1.6775,1.6606,1.6322,1.6353,1.6838,1.6593,1.6127,1.6309,1.6766,1.6017,1.5983,1.5919,1.5494,1.5145,1.5124,1.5151,1.5152,1.5189,1.5286,1.5329,1.5124,3.0398,3.0398,3.0398,3.0398,3.0398,3.0367,3.0367,3.0398,3.0362,3.0343,3.0355,3.0305,3.0305,3.0299,3.0174,3.0118,3.0071,2.9969,2.9872,2.977,2.9626,2.9513,2.9415,2.9291,2.9185,2.9119,2.9249,2.9206,2.9021,2.8952,2.8929,2.8887,2.8815,2.8687,2.851,2.8388,2.8201,2.7996,2.7893,2.7777,2.7677,2.7736,2.7677,2.7496,2.723,2.6973,2.6691,2.6419,2.6035,2.554,2.5519,2.5291,2.4806,2.4862,2.4862,2.4782,2.4261,2.3595,2.2754,2.2555,2.2526,2.2628,2.2334,2.2088,2.2081,2.1403,2.1076,2.1255,2.0463,1.9668,1.9316,1.9093,1.8987,1.8987,1.8987,1.9107,1.9432,1.9179,1.9095,1.9372,1.9179,1.8999,1.8987,1.8987,1.8987,1.8987,1.8987,1.8946,1.8774,1.8667,1.8344,1.7854,1.7468,1.7123,1.6797,1.6513,1.64,1.6472,1.6774,1.6707,1.6578,1.6984,1.7263,1.6421,1.6457,1.6327,1.5694,1.554,1.542,1.5274,1.5085,1.518,1.4991,1.5284,1.5184,3.059,3.0456,3.0648,3.0732,3.0751,3.0919,3.1015,3.1046,3.1015,3.0861,3.0676,3.067,3.0471,3.0196,3.0147,3.0104,3.0041,2.9902,2.9805,2.9734,2.9551,2.9435,2.9375,2.9249,2.9138,2.9134,2.9228,2.9185,2.8994,2.8905,2.8863,2.8815,2.8737,2.8587,2.8414,2.8246,2.8081,2.794,2.7748,2.7659,2.7617,2.7557,2.7544,2.7434,2.6971,2.6674,2.6539,2.612,2.5705,2.5368,2.5329,2.5114,2.4766,2.4726,2.4723,2.459,2.3995,2.336,2.2724,2.2704,2.279,2.2857,2.2525,2.2267,2.2169,2.1549,2.1193,2.129,2.042,1.9731,1.9665,1.9341,1.9263,1.9396,1.9324,1.9384,1.9739,1.9408,1.93,1.9492,1.9348,1.9131,1.9023,1.8987,1.8999,1.8881,1.8881,1.8774,1.8506,1.841,1.8193,1.7767,1.7656,1.7256,1.6581,1.641,1.6353,1.6141,1.6316,1.6576,1.6554,1.7111,1.7642,1.6766,1.7079,1.6954,1.6122,1.5922,1.5709,1.5488,1.5259,1.4974,1.4713,1.5133,1.4974,3.116,3.059,3.1239,3.154,3.1578,3.2286,3.2631,3.2516,3.2579,3.2234,3.155,3.1511,3.0949,3.0057,3.0242,3.0194,3.0161,3.0123,3.0,2.9872,2.9857,2.977,2.9589,2.957,2.9436,2.9249,2.923,2.9123,2.8905,2.8815,2.8761,2.8694,2.8569,2.8414,2.8228,2.8081,2.7893,2.773,2.7659,2.7569,2.7587,2.7452,2.7376,2.7327,2.6808,2.6419,2.6173,2.5642,2.5272,2.506,2.5021,2.4829,2.4692,2.4651,2.4599,2.4343,2.3868,2.3683,2.38,2.3769,2.3724,2.3589,2.3427,2.3159,2.2509,2.1952,2.1511,2.1104,2.0677,2.0476,2.0865,2.02,1.9961,2.0334,2.0021,1.9817,1.9817,1.9841,1.9516,1.9312,1.9444,1.9384,1.9047,1.8987,1.8881,1.8721,1.8614,1.8518,1.8193,1.792,1.7755,1.7645,1.7434,1.7166,1.6684,1.6637,1.6228,1.6083,1.6347,1.635,1.6179,1.6239,1.6723,1.7111,1.7245,1.7047,1.6524,1.6026,1.5613,1.5267,1.4919,1.4641,1.4617,1.4497,1.433,3.2301,3.2026,3.2321,3.2403,3.2382,3.2504,3.2634,3.2776,3.2419,3.2233,3.2088,3.1951,3.1618,3.1243,3.1335,3.0785,2.9857,2.982,2.9769,2.9698,2.957,2.9474,2.9397,2.9291,2.9181,2.9052,2.9048,2.898,2.8815,2.8669,2.8612,2.8543,2.8388,2.8228,2.8081,2.8025,2.7911,2.7701,2.763,2.7587,2.7544,2.7198,2.7006,2.694,2.6488,2.6426,2.678,2.6115,2.5876,2.6209,2.6199,2.6056,2.5827,2.5507,2.5078,2.4637,2.4187,2.3808,2.3551,2.3502,2.3615,2.3837,2.3537,2.3469,2.3257,2.2498,2.1908,2.1865,2.1076,2.0913,2.1448,2.0897,2.0382,2.0526,2.0454,2.0442,2.0658,2.0526,2.0213,2.0029,1.966,1.9179,1.9071,1.8987,1.8881,1.8667,1.8602,1.8344,1.7975,1.7767,1.7656,1.7501,1.739,1.7166,1.6694,1.6864,1.6917,1.689,1.6964,1.7011,1.6973,1.7271,1.7755,1.6748,1.6932,1.6715,1.6,1.5401,1.5125,1.5259,1.4848,1.4561,1.4585,1.4577,1.4243,3.2814,3.3234,3.3202,3.3134,3.3092,3.3086,3.3163,3.3304,3.2957,3.2766,3.2676,3.2502,3.2248,3.1942,3.1902,3.132,3.0297,3.0076,2.9964,2.9849,2.9446,2.923,2.9144,2.9003,2.8923,2.8858,2.8791,2.8743,2.8687,2.8492,2.8388,2.8388,2.8228,2.8109,2.7996,2.7911,2.7777,2.7659,2.7587,2.76,2.7681,2.7141,2.6894,2.6894,2.6343,2.6233,2.6934,2.6583,2.6519,2.6875,2.6835,2.666,2.6198,2.571,2.5217,2.4805,2.4329,2.4041,2.3824,2.3811,2.3987,2.434,2.4055,2.3906,2.4041,2.3065,2.2622,2.2439,2.1778,2.1425,2.1861,2.1536,2.1127,2.1091,2.0971,2.1007,2.1308,2.0923,2.0493,2.0064,1.9407,1.8911,1.8721,1.8721,1.856,1.8344,1.829,1.8084,1.7711,1.7545,1.7557,1.7334,1.7267,1.7088,1.6797,1.692,1.6694,1.6576,1.6967,1.7255,1.7387,1.782,1.7831,1.6762,1.6192,1.5913,1.5438,1.484,1.4848,1.5046,1.4848,1.4433,1.4505,1.4617,1.4266,3.2678,3.3997,3.3815,3.3747,3.3787,3.4166,3.4435,3.4405,3.4379,3.3909,3.3424,3.3304,3.2801,3.1987,3.1974,3.17,3.1538,3.1092,3.0742,3.046,2.9749,2.93,2.913,2.9132,2.9083,2.898,2.8659,2.8564,2.8575,2.8434,2.8308,2.8245,2.8099,2.8021,2.8003,2.7889,2.7704,2.7727,2.7674,2.791,2.8278,2.7436,2.7147,2.7533,2.6451,2.6069,2.6645,2.6834,2.6902,2.6942,2.6811,2.6334,2.5798,2.5305,2.4891,2.484,2.4434,2.4408,2.4842,2.4869,2.4829,2.4896,2.4937,2.4639,2.4231,2.371,2.3237,2.2808,2.2359,2.2135,2.2115,2.2027,2.1968,2.2113,2.1668,2.1452,2.1308,2.09,2.0327,1.9672,1.9006,1.8499,1.8259,1.8205,1.8139,1.792,1.781,1.77,1.7434,1.7323,1.7278,1.7267,1.7145,1.6965,1.6909,1.6853,1.6332,1.607,1.6553,1.6951,1.6773,1.7021,1.7309,1.66,1.6477,1.6209,1.5852,1.5251,1.4633,1.4633,1.4441,1.4289,1.4194,1.4266,1.4232,3.4438,3.4906,3.4843,3.4691,3.4548,3.4718,3.4773,3.4753,3.4572,3.44,3.4252,3.4127,3.3729,3.3303,3.3172,3.3096,3.2928,3.2261,3.163,3.1204,3.0891,3.0625,3.0465,3.0432,3.0355,3.0062,2.9404,2.9042,2.9015,2.8891,2.8805,2.8687,2.8129,2.8094,2.8539,2.8452,2.839,2.8345,2.8722,2.9055,2.9161,2.8296,2.7931,2.8073,2.7575,2.7174,2.6836,2.6456,2.6659,2.7373,2.7361,2.718,2.6831,2.6402,2.5925,2.5542,2.5053,2.4774,2.4951,2.5005,2.5005,2.5005,2.5005,2.4937,2.4705,2.43,2.3817,2.3354,2.2921,2.2506,2.2002,2.1851,2.1925,2.2197,2.2041,2.1786,2.1436,2.0581,2.0052,1.9958,1.8998,1.8412,1.8483,1.837,1.7965,1.7711,1.7656,1.7545,1.7323,1.7145,1.7078,1.7078,1.6955,1.6853,1.6797,1.6684,1.6343,1.6165,1.6567,1.6757,1.6584,1.6539,1.6764,1.6635,1.6578,1.633,1.5965,1.5384,1.4625,1.4353,1.4289,1.4106,1.3822,1.3765,1.3833,3.4986,3.5242,3.5176,3.5037,3.4831,3.4752,3.4672,3.4609,3.4375,3.4371,3.4439,3.4208,3.4049,3.3895,3.3807,3.3698,3.355,3.3002,3.2566,3.2044,3.1404,3.118,3.1048,3.0939,3.0856,3.0643,3.0011,2.9663,2.968,2.9531,2.947,2.9352,2.8838,2.8745,2.9155,2.9112,2.903,2.9034,2.9331,2.9713,2.9695,2.8841,2.8384,2.8464,2.7747,2.7013,2.6459,2.6052,2.6373,2.747,2.7783,2.7695,2.7268,2.6768,2.6283,2.5605,2.5118,2.4835,2.4892,2.4892,2.4948,2.4948,2.4948,2.4892,2.4821,2.4421,2.3872,2.3399,2.2798,2.2273,2.1651,2.1526,2.16,2.18,2.1788,2.1655,2.1222,2.0442,1.9881,1.9693,1.9032,1.86,1.8351,1.8227,1.7768,1.7501,1.7379,1.7323,1.7155,1.6965,1.6965,1.6909,1.6797,1.6751,1.6694,1.6513,1.6285,1.6368,1.6618,1.6701,1.6608,1.6728,1.6852,1.6318,1.6102,1.56,1.5201,1.4681,1.4072,1.4072,1.4114,1.3825,1.3578,1.3593,1.363,3.4534,3.5138,3.5001,3.4851,3.4694,3.4542,3.4386,3.4221,3.4055,3.408,3.4105,3.3895,3.3734,3.3788,3.3615,3.3473,3.3502,3.3372,3.3128,3.2672,3.183,3.1142,3.1196,3.0915,3.0814,3.079,3.0477,3.0344,3.0344,3.0223,3.0144,3.0091,2.9834,2.9889,2.9859,2.9761,2.9678,2.9695,2.9713,3.0127,3.0571,2.9202,2.8556,2.9075,2.738,2.6291,2.6127,2.6053,2.643,2.7396,2.7902,2.767,2.6849,2.6496,2.5906,2.4948,2.4677,2.4677,2.4778,2.4778,2.4835,2.4892,2.4721,2.4721,2.4549,2.3943,2.3339,2.2859,2.2322,2.1765,2.1336,2.1158,2.1158,2.1158,2.1158,2.0974,2.0561,2.0373,1.9957,1.9387,1.9093,1.8795,1.8137,1.8002,1.7615,1.7241,1.7056,1.7013,1.697,1.6981,1.6828,1.6761,1.6705,1.6648,1.6591,1.641,1.6239,1.6327,1.6477,1.6389,1.6555,1.6727,1.684,1.6341,1.5744,1.5144,1.4638,1.423,1.381,1.3705,1.3584,1.352,1.3492,1.3484,1.3317,3.4999,3.5174,3.5091,3.4908,3.4694,3.4609,3.4435,3.4293,3.4189,3.4136,3.413,3.3917,3.368,3.3504,3.335,3.322,3.3099,3.3037,3.3024,3.2908,3.2478,3.2242,3.213,3.156,3.1501,3.1824,3.1288,3.0944,3.0961,3.0898,3.0849,3.0814,3.0225,3.0141,3.0456,3.0508,3.0456,3.0525,3.0938,3.0942,3.0666,3.0125,2.959,2.9198,2.8379,2.7625,2.7176,2.6994,2.6796,2.6816,2.7319,2.7056,2.6094,2.5837,2.5412,2.4765,2.462,2.462,2.462,2.4664,2.4677,2.4607,2.4234,2.393,2.3872,2.3267,2.2665,2.2237,2.1951,2.1577,2.0955,2.0775,2.0646,2.0464,2.0646,2.0707,2.0475,2.0017,1.9662,1.9626,1.9062,1.87,1.8556,1.8283,1.7977,1.7726,1.7482,1.7281,1.718,1.699,1.6869,1.6644,1.6591,1.6488,1.6431,1.6306,1.6249,1.6249,1.6165,1.5944,1.6214,1.6514,1.6647,1.6594,1.5946,1.5274,1.4714,1.4187,1.3837,1.3472,1.3267,1.3211,1.3317,1.3331,1.315,3.5,3.4926,3.4812,3.4653,3.4483,3.4439,3.4302,3.4062,3.3949,3.3924,3.3839,3.3597,3.3429,3.3302,3.3142,3.2975,3.2802,3.277,3.2755,3.2674,3.2521,3.2537,3.2482,3.2062,3.2117,3.2384,3.1897,3.167,3.1618,3.1567,3.155,3.1446,3.0976,3.0925,3.1219,3.1216,3.1055,3.0905,3.1189,3.1133,3.0603,3.0084,2.9696,2.9188,2.8683,2.7969,2.7597,2.7473,2.7347,2.7319,2.7305,2.6872,2.6054,2.5508,2.5077,2.4536,2.4434,2.439,2.4492,2.4478,2.4492,2.4434,2.3943,2.3564,2.3267,2.2592,2.1803,2.1628,2.1325,2.0892,2.0582,2.0399,2.027,2.0205,2.0205,2.0335,2.0388,1.9953,1.9727,1.9706,1.9361,1.8827,1.8882,1.8543,1.8332,1.7976,1.7664,1.762,1.7546,1.7214,1.6905,1.6759,1.6655,1.6618,1.6311,1.6124,1.6009,1.6009,1.5994,1.5732,1.5488,1.5881,1.593,1.5879,1.5699,1.535,1.4658,1.4162,1.3955,1.359,1.3256,1.3078,1.323,1.2834,1.2683,3.4674,3.4551,3.4357,3.4213,3.4179,3.4124,3.3891,3.3634,3.3458,3.3419,3.3343,3.3037,3.2988,3.3124,3.293,3.2755,3.2573,3.2573,3.2489,3.2439,3.2388,3.2388,3.2371,3.23,3.2265,3.2335,3.2249,3.2127,3.2022,3.2039,3.2038,3.1898,3.1826,3.1806,3.1664,3.1642,3.1376,3.0965,3.0807,3.0549,3.002,2.956,2.9268,2.893,2.8311,2.7845,2.7627,2.7518,2.7559,2.8204,2.7565,2.6782,2.6229,2.5398,2.4894,2.4408,2.4203,2.4157,2.4261,2.4305,2.4376,2.4332,2.3636,2.3122,2.2774,2.1803,2.0996,2.0869,2.0388,2.0205,2.0064,2.0074,2.0064,2.0009,1.9965,1.9965,2.002,1.9944,1.9868,1.9868,1.9649,1.9327,1.8965,1.8711,1.8553,1.8374,1.8051,1.7947,1.7853,1.7584,1.7222,1.6943,1.686,1.6739,1.6348,1.5941,1.5826,1.5768,1.5772,1.5448,1.4616,1.4694,1.4746,1.4762,1.4714,1.4595,1.4282,1.3936,1.3786,1.3365,1.2721,1.2886,1.3082,1.227,1.1834,3.4401,3.4338,3.408,3.3981,3.3899,3.3552,3.339,3.3284,3.3099,3.3024,3.2975,3.2752,3.2705,3.2719,3.259,3.2473,3.2439,3.2439,3.2388,3.2267,3.2214,3.2232,3.2196,3.2232,3.2232,3.2249,3.2161,3.2126,3.2072,3.2018,3.193,3.1913,3.1785,3.1765,3.1565,3.121,3.101,3.0788,3.0468,2.9972,2.9504,2.9268,2.8966,2.8607,2.8292,2.8165,2.7957,2.7584,2.7345,2.7232,2.6782,2.6026,2.5119,2.458,2.4319,2.4203,2.4112,2.4112,2.4112,2.4157,2.4099,2.3936,2.298,2.2125,2.1916,2.0921,2.0183,1.9987,1.9933,1.9868,1.9736,1.9738,1.9748,1.9726,1.9681,1.9681,1.9681,1.9681,1.9605,1.9473,1.9407,1.9299,1.9007,1.8955,1.8861,1.8713,1.8526,1.8288,1.808,1.7883,1.7657,1.7287,1.704,1.6878,1.6392,1.6004,1.5838,1.5781,1.5772,1.5537,1.4689,1.4118,1.4466,1.427,1.3899,1.376,1.3822,1.3343,1.3099,1.258,1.2204,1.2307,1.221,1.1506,1.1319,3.3949,3.3873,3.3552,3.3429,3.34,3.3154,3.2988,3.2925,3.2816,3.2722,3.2674,3.2523,3.2456,3.2422,3.2318,3.2301,3.2267,3.2267,3.2232,3.2144,3.2144,3.2144,3.2108,3.2055,3.2073,3.2092,3.202,3.2001,3.1965,3.1894,3.1666,3.1353,3.1373,3.1083,3.0866,3.0627,3.0327,3.0048,2.9832,2.9406,2.8951,2.8826,2.8669,2.8381,2.8299,2.8137,2.763,2.7414,2.6834,2.6293,2.5863,2.5481,2.4794,2.4319,2.4112,2.4112,2.3995,2.3995,2.3995,2.3865,2.3688,2.3305,2.231,2.1678,2.1112,2.0237,1.9802,1.9671,1.9671,1.9671,1.9605,1.9573,1.9573,1.9594,1.9494,1.9483,1.9473,1.9473,1.9417,1.9341,1.9274,1.8921,1.8787,1.8865,1.8432,1.8061,1.8746,1.8541,1.8233,1.8082,1.8066,1.7748,1.7328,1.6951,1.6475,1.6077,1.5879,1.5881,1.5908,1.5704,1.5213,1.4747,1.4399,1.4036,1.363,1.367,1.3618,1.3013,1.253,1.2328,1.2045,1.1811,1.1442,1.1128,1.1082,3.3447,3.3321,3.2993,3.2852,3.2852,3.282,3.2705,3.2623,3.2573,3.2507,3.2371,3.2354,3.2301,3.2232,3.2179,3.2144,3.2126,3.2126,3.2108,3.2055,3.2073,3.2037,3.2001,3.1965,3.1948,3.2038,3.193,3.1894,3.1858,3.1785,3.1522,3.0984,3.0862,3.0718,3.0168,2.9897,2.9789,2.9361,2.915,2.8951,2.8573,2.8444,2.8348,2.8235,2.7974,2.7695,2.7225,2.6797,2.6322,2.5287,2.5077,2.5021,2.4865,2.4492,2.4067,2.4067,2.3949,2.3819,2.3819,2.3688,2.3378,2.2592,2.1928,2.1239,2.0602,1.9977,1.9605,1.9483,1.9473,1.9473,1.955,1.9462,1.9473,1.9483,1.9362,1.9295,1.9208,1.9208,1.9218,1.9218,1.9142,1.8865,1.8519,1.8385,1.7833,1.756,1.824,1.8654,1.824,1.7958,1.7701,1.7686,1.7199,1.7079,1.6627,1.6397,1.6167,1.6196,1.624,1.6046,1.579,1.5575,1.5046,1.3933,1.3567,1.3461,1.3292,1.2772,1.2386,1.2187,1.1859,1.1482,1.1101,1.0717,1.079,3.3099,3.2961,3.2719,3.2639,3.2639,3.2541,3.2491,3.2457,3.2422,3.2388,3.2267,3.2214,3.2179,3.2108,3.2108,3.2108,3.2073,3.2073,3.2037,3.1948,3.1948,3.1929,3.1856,3.1819,3.1819,3.1819,3.1819,3.1819,3.1765,3.1674,3.1408,3.1316,3.0903,3.0523,3.0096,2.9783,2.9287,2.9044,2.8779,2.8525,2.8444,2.8363,2.8235,2.8073,2.7645,2.7174,2.6678,2.5986,2.5356,2.4991,2.4434,2.4216,2.4157,2.3995,2.3949,2.3891,2.376,2.3641,2.3556,2.3556,2.3185,2.2494,2.1753,2.0996,2.0291,1.9726,1.9407,1.9208,1.9208,1.9208,1.9208,1.9198,1.9208,1.9142,1.9142,1.9019,1.8942,1.8875,1.8942,1.9008,1.8998,1.8798,1.8317,1.7901,1.7482,1.707,1.7207,1.7482,1.7345,1.7083,1.6788,1.6825,1.6863,1.6908,1.6868,1.6727,1.6533,1.6684,1.6724,1.6744,1.6552,1.6387,1.5797,1.474,1.3545,1.287,1.2646,1.2505,1.2051,1.1646,1.1424,1.1217,1.0928,1.0668,1.0641,3.2802,3.2737,3.2557,3.2489,3.2507,3.2422,3.2336,3.2301,3.2301,3.2232,3.2179,3.2144,3.2108,3.2037,3.1984,3.2001,3.1965,3.1929,3.1893,3.1856,3.1839,3.1765,3.1691,3.1709,3.1688,3.1651,3.1668,3.1668,3.1668,3.1334,3.107,3.0527,3.017,2.9756,2.9362,2.8976,2.8795,2.8653,2.8525,2.8348,2.8299,2.825,2.7989,2.7494,2.7122,2.6573,2.5769,2.5329,2.4751,2.4319,2.3923,2.376,2.376,2.37,2.3641,2.3713,2.3582,2.3318,2.3053,2.2859,2.2298,2.1302,2.0869,2.0355,1.9781,1.9341,1.9142,1.9065,1.8942,1.8942,1.8942,1.8865,1.8798,1.8818,1.8828,1.8761,1.8684,1.8674,1.8674,1.8808,1.8741,1.8405,1.7852,1.7501,1.707,1.6724,1.6446,1.6376,1.6446,1.6253,1.6044,1.6204,1.6327,1.6487,1.6735,1.6761,1.679,1.6915,1.7086,1.7101,1.7015,1.6821,1.6399,1.5755,1.4421,1.3119,1.2611,1.2592,1.1896,1.1228,1.1061,1.0947,1.0739,1.0624,1.0618,3.2573,3.2539,3.2439,3.2388,3.2354,3.2354,3.2267,3.2196,3.2179,3.2108,3.2037,3.2037,3.1965,3.1875,3.1875,3.1856,3.18,3.1783,3.1746,3.1763,3.1726,3.1688,3.1596,3.1579,3.1559,3.1555,3.15,3.1517,3.15,3.1218,3.0589,3.0192,2.9599,2.9019,2.8614,2.8561,2.8398,2.8348,2.8348,2.8299,2.8152,2.784,2.7509,2.6849,2.6587,2.5809,2.4951,2.4567,2.4176,2.3839,2.3628,2.3569,2.3522,2.3403,2.339,2.345,2.339,2.2944,2.2494,2.2237,2.1729,2.0549,2.0226,1.9781,1.933,1.9142,1.9008,1.8942,1.8875,1.8741,1.8741,1.8607,1.8529,1.8539,1.8502,1.8522,1.8492,1.8482,1.8414,1.8482,1.8414,1.8134,1.7647,1.701,1.6645,1.6515,1.6167,1.5807,1.5877,1.5666,1.5545,1.5713,1.5834,1.608,1.6344,1.6713,1.6798,1.7026,1.7216,1.7331,1.7203,1.7079,1.6651,1.6234,1.5375,1.4119,1.3461,1.2613,1.1992,1.1456,1.1055,1.0778,1.075,1.0641,1.0618,3.2523,3.244,3.2406,3.2301,3.2232,3.2232,3.2179,3.2108,3.2126,3.2018,3.1837,3.1837,3.1783,3.1691,3.1746,3.1783,3.1746,3.1671,3.1634,3.1634,3.1593,3.1555,3.15,3.1524,3.1504,3.1462,3.1372,3.1372,3.1368,3.1235,3.0891,3.0369,2.9778,2.9403,2.8793,2.848,2.8332,2.8235,2.8235,2.8152,2.7905,2.7291,2.6901,2.6347,2.5591,2.4838,2.4408,2.406,2.3675,2.3616,2.345,2.3403,2.3403,2.3198,2.3138,2.3138,2.3078,2.2811,2.2237,2.1916,2.1353,2.0226,1.9966,1.9715,1.9198,1.8875,1.8741,1.8549,1.8549,1.8549,1.8549,1.8492,1.8492,1.8424,1.8434,1.8367,1.8357,1.8279,1.8279,1.8212,1.8212,1.793,1.7579,1.6862,1.6289,1.6158,1.5956,1.5596,1.5313,1.5242,1.4824,1.4917,1.5317,1.5601,1.5866,1.6238,1.6496,1.6834,1.6999,1.7163,1.6807,1.6594,1.689,1.6392,1.5494,1.4695,1.3757,1.2899,1.2278,1.1764,1.1354,1.1122,1.1002,1.0815,1.0628,3.2353,3.2284,3.2301,3.2232,3.2161,3.2161,3.2073,3.1929,3.1929,3.1837,3.1651,3.1614,3.1576,3.1559,3.1614,3.1614,3.1614,3.1559,3.1521,3.1521,3.15,3.1479,3.1406,3.1411,3.1372,3.1329,3.1291,3.1252,3.1173,3.0723,3.0293,3.0123,2.9454,2.8873,2.8732,2.8429,2.8284,2.8186,2.8039,2.7775,2.7357,2.6864,2.6269,2.5605,2.4838,2.435,2.3897,2.3675,2.345,2.3378,2.3271,2.321,2.321,2.3138,2.3005,2.2494,2.2567,2.2187,2.1628,2.1239,2.0473,1.977,1.9386,1.9131,1.8798,1.8674,1.8607,1.8539,1.8405,1.8414,1.8347,1.8289,1.8221,1.8221,1.8231,1.8221,1.8154,1.8144,1.8076,1.8008,1.8008,1.7794,1.7657,1.7157,1.6724,1.6585,1.6306,1.5816,1.5392,1.5037,1.4545,1.4049,1.453,1.5043,1.5362,1.5608,1.5852,1.6027,1.6027,1.6123,1.5922,1.5886,1.6105,1.5816,1.4704,1.4076,1.368,1.3252,1.2632,1.2097,1.163,1.1403,1.1176,1.1009,1.0842,3.2179,3.2144,3.2179,3.2108,3.2037,3.2037,3.1929,3.1746,3.1726,3.1614,3.15,3.1462,3.1462,3.1462,3.1479,3.15,3.1517,3.1462,3.1462,3.1462,3.1423,3.1346,3.1329,3.1257,3.1274,3.119,3.1009,3.0992,3.0716,3.0182,2.9705,2.975,2.909,2.8573,2.8332,2.825,2.8152,2.8024,2.784,2.7423,2.6864,2.639,2.555,2.4894,2.4279,2.3884,2.345,2.3343,2.3198,2.3138,2.3138,2.3138,2.3138,2.2884,2.2616,2.2113,2.1865,2.1227,2.0794,2.0355,1.9639,1.9065,1.8741,1.8741,1.8549,1.8482,1.8405,1.8337,1.7988,1.792,1.792,1.7794,1.7716,1.7725,1.7872,1.794,1.794,1.7872,1.794,1.8008,1.8008,1.8008,1.7794,1.751,1.7226,1.7079,1.6655,1.6097,1.5675,1.5251,1.4681,1.4122,1.4266,1.4752,1.4887,1.5108,1.5251,1.5251,1.5251,1.5108,1.4887,1.4958,1.5171,1.4601,1.3962,1.3818,1.368,1.3368,1.2961,1.2404,1.1844,1.157,1.1349,1.1189,1.091,3.2091,3.1948,3.2073,3.202,3.1912,3.1856,3.1746,3.1579,3.1538,3.1445,3.1351,3.1312,3.1312,3.1351,3.1423,3.1462,3.1479,3.1351,3.1351,3.1329,3.1252,3.123,3.1213,3.123,3.119,3.1072,3.084,3.0601,3.0326,2.9556,2.9438,2.9572,2.8904,2.8605,2.8332,2.8103,2.794,2.7775,2.7539,2.7049,2.6375,2.5728,2.4964,2.4337,2.3649,2.3185,2.3138,2.3138,2.3138,2.3125,2.3078,2.3078,2.3005,2.2567,2.2175,2.1729,2.0846,2.0279,1.9901,1.9781,1.9452,1.8931,1.8607,1.8472,1.8347,1.8269,1.8202,1.7998,1.7638,1.7217,1.7148,1.701,1.6941,1.701,1.7157,1.7373,1.7442,1.7588,1.7657,1.794,1.793,1.7794,1.793,1.7647,1.7657,1.751,1.7217,1.6655,1.6306,1.5877,1.5171,1.4681,1.4402,1.4474,1.4466,1.4537,1.4545,1.4474,1.433,1.4186,1.3962,1.4106,1.4171,1.4171,1.3745,1.3673,1.3608,1.3011,1.2551,1.2364,1.2044,1.1673,1.1418,1.1149,1.0857,3.1948,3.1839,3.1819,3.1765,3.1711,3.1651,3.1521,3.1428,3.1389,3.1329,3.1252,3.1252,3.1252,3.1252,3.1269,3.1308,3.1308,3.1269,3.1252,3.1213,3.123,3.119,3.119,3.1112,3.1072,3.0773,3.0467,3.0152,2.9848,2.9104,2.8966,2.8919,2.8637,2.8332,2.8054,2.794,2.774,2.7488,2.7063,2.651,2.5783,2.5063,2.435,2.3734,2.3424,2.3125,2.3138,2.3125,2.3125,2.3078,2.3017,2.2957,2.2836,2.2199,2.1678,2.1215,2.0204,1.9507,1.9131,1.8998,1.8808,1.8607,1.8337,1.8202,1.8134,1.8134,1.8076,1.7794,1.7364,1.6941,1.6862,1.6515,1.6167,1.6237,1.6446,1.6733,1.6872,1.7019,1.7019,1.7088,1.7295,1.7432,1.7579,1.7794,1.7862,1.7872,1.7579,1.7217,1.6793,1.6376,1.5737,1.5037,1.4752,1.4114,1.4042,1.397,1.3833,1.3688,1.3542,1.3397,1.3171,1.2959,1.3025,1.3171,1.331,1.3098,1.2813,1.2445,1.2204,1.2178,1.1959,1.1657,1.1378,1.1166,1.0906,3.1819,3.1688,3.1579,3.1542,3.1559,3.1483,3.1406,3.1295,3.1257,3.1235,3.119,3.119,3.119,3.119,3.1151,3.1151,3.1151,3.1112,3.1112,3.1072,3.0998,3.0958,3.0878,3.0699,3.0435,3.0182,2.9897,2.9544,2.93,2.8732,2.8511,2.8334,2.8088,2.7955,2.7905,2.7755,2.759,2.7335,2.6907,2.619,2.5398,2.4851,2.406,2.3497,2.3138,2.3078,2.3017,2.3017,2.2957,2.2969,2.2921,2.2848,2.2469,2.1951,2.1164,2.0462,1.9759,1.8988,1.8607,1.8414,1.8414,1.8212,1.8144,1.8008,1.8008,1.8008,1.8008,1.794,1.7364,1.6793,1.6724,1.6298,1.6018,1.6167,1.6446,1.6655,1.6446,1.6446,1.6306,1.6237,1.6446,1.6585,1.6724,1.6941,1.7373,1.752,1.7588,1.7373,1.7166,1.6742,1.6315,1.5604,1.5037,1.433,1.3615,1.3397,1.3251,1.3105,1.2959,1.2739,1.2526,1.2305,1.2305,1.2592,1.2666,1.2378,1.2231,1.215,1.215,1.215,1.1859,1.1584,1.1439,1.1232,1.1053,3.1688,3.15,3.1351,3.1406,3.1462,3.1351,3.1295,3.1274,3.1252,3.119,3.119,3.119,3.119,3.1134,3.1015,3.0878,3.0855,3.0814,3.0773,3.0699,3.0435,3.0351,3.0225,2.9995,2.9805,2.939,2.915,2.8935,2.8685,2.8238,2.791,2.7825,2.7725,2.769,2.774,2.7539,2.7401,2.735,2.7041,2.6136,2.5412,2.4851,2.3989,2.3424,2.3078,2.303,2.2969,2.2909,2.2848,2.28,2.2739,2.2604,2.242,2.1313,2.0655,2.0333,1.911,1.8462,1.8269,1.8279,1.8212,1.8076,1.8008,1.8008,1.8008,1.8008,1.8008,1.794,1.7295,1.6585,1.6367,1.6228,1.6018,1.5956,1.6237,1.6237,1.6026,1.5886,1.5824,1.5675,1.5604,1.5525,1.5666,1.5877,1.6594,1.7019,1.7392,1.7392,1.7185,1.6968,1.6533,1.5965,1.5259,1.4545,1.3753,1.2959,1.2599,1.2526,1.2526,1.2378,1.2305,1.2305,1.2305,1.2305,1.2231,1.2231,1.2157,1.2157,1.2009,1.1855,1.1781,1.1569,1.144,1.1335,1.1059,3.1614,3.1462,3.1351,3.1334,3.1368,3.1269,3.1252,3.1213,3.123,3.119,3.119,3.1112,3.1072,3.0958,3.0601,3.0393,3.0351,2.9995,2.9951,2.9951,2.9761,2.9717,2.9629,2.9496,2.921,2.895,2.8638,2.8334,2.8107,2.7775,2.7625,2.7539,2.7437,2.7437,2.7437,2.7335,2.7248,2.6974,2.6312,2.5522,2.5021,2.4266,2.3577,2.3125,2.3017,2.2969,2.2921,2.2787,2.2739,2.2616,2.2555,2.2359,2.1901,2.0794,2.0085,1.9628,1.8529,1.8134,1.8076,1.8076,1.8066,1.8008,1.8008,1.8008,1.8008,1.8008,1.8008,1.7862,1.7364,1.6733,1.6524,1.6026,1.5745,1.548,1.5551,1.5613,1.5471,1.5401,1.5338,1.5259,1.518,1.5037,1.5037,1.4958,1.5525,1.6026,1.6385,1.6821,1.676,1.683,1.6612,1.6114,1.5471,1.476,1.397,1.3171,1.2519,1.2452,1.2378,1.2305,1.2305,1.2231,1.2231,1.2231,1.2157,1.2083,1.2009,1.1861,1.1558,1.1409,1.1484,1.1409,1.1323,1.1242,1.1137,3.0905,3.1011,3.0938,3.1036,3.1201,3.1173,3.1134,3.1095,3.0975,3.0878,3.0838,3.0576,3.0435,3.0293,3.0021,2.9805,2.9761,2.9512,2.9345,2.93,2.9134,2.9134,2.9042,2.8919,2.8543,2.8367,2.8174,2.791,2.769,2.7524,2.7423,2.7335,2.7196,2.7196,2.7196,2.7144,2.6974,2.6592,2.592,2.53,2.4681,2.4002,2.3424,2.3125,2.2957,2.286,2.28,2.2678,2.2555,2.2494,2.2309,2.1975,2.1262,2.0537,1.9759,1.9054,1.8395,1.8066,1.8008,1.8008,1.8008,1.8008,1.8008,1.794,1.793,1.7862,1.7862,1.7657,1.7304,1.6941,1.6524,1.5956,1.5965,1.5762,1.5621,1.5683,1.5613,1.5613,1.5267,1.5117,1.4689,1.4545,1.433,1.4322,1.4458,1.4958,1.5384,1.5816,1.6263,1.6542,1.6551,1.6044,1.5542,1.4824,1.4034,1.3237,1.2732,1.2378,1.2305,1.2305,1.2157,1.215,1.215,1.2077,1.2003,1.1855,1.1787,1.1564,1.1409,1.126,1.126,1.1186,1.1117,1.1117,1.1117,2.9687,3.0095,3.0187,3.059,3.1067,3.0975,3.0878,3.0935,3.0477,3.0251,3.0251,2.9717,2.9585,2.9435,2.9239,2.9194,2.9102,2.9012,2.895,2.8888,2.8622,2.8543,2.8319,2.8107,2.7944,2.771,2.7524,2.7575,2.7386,2.7284,2.7233,2.7181,2.7041,2.6937,2.6884,2.6779,2.6592,2.6204,2.5591,2.4978,2.4292,2.3943,2.3424,2.3138,2.2909,2.2787,2.2665,2.2494,2.2371,2.2309,2.2197,2.1726,2.1135,2.0484,1.977,1.8977,1.8259,1.8066,1.8008,1.8008,1.794,1.794,1.794,1.7862,1.7784,1.7716,1.7657,1.7598,1.7382,1.695,1.6515,1.6733,1.689,1.6603,1.6315,1.6245,1.6175,1.5895,1.5401,1.4974,1.4258,1.3897,1.339,1.3317,1.3673,1.3818,1.4243,1.4386,1.5037,1.6263,1.6193,1.5903,1.533,1.4752,1.4027,1.331,1.2732,1.2305,1.2231,1.2231,1.2077,1.2003,1.1929,1.1855,1.1781,1.1632,1.1484,1.1409,1.1335,1.1186,1.1186,1.1111,1.1117,1.1117,1.1117,2.96,3.017,3.0129,3.0381,3.0673,3.0192,3.0192,3.0393,2.9908,2.9629,2.9629,2.939,2.9164,2.9239,2.8795,2.8607,2.8432,2.8255,2.8091,2.7993,2.8042,2.7894,2.776,2.7625,2.7488,2.7437,2.7321,2.7233,2.7233,2.713,2.7041,2.7041,2.6884,2.6621,2.6394,2.6233,2.6042,2.5701,2.509,2.4523,2.4002,2.3543,2.3198,2.2969,2.2726,2.2604,2.2482,2.2371,2.2247,2.2197,2.2197,2.1726,2.042,2.0161,1.9639,1.8462,1.8066,1.8008,1.8008,1.7862,1.7794,1.7794,1.7735,1.7725,1.7647,1.7579,1.752,1.7461,1.7392,1.7028,1.6811,1.6959,1.7038,1.6821,1.6603,1.6603,1.6542,1.6394,1.5903,1.5259,1.4545,1.3825,1.3244,1.2806,1.3171,1.3025,1.3098,1.3317,1.389,1.518,1.5613,1.533,1.4966,1.4386,1.3954,1.3302,1.2732,1.2305,1.2157,1.2083,1.2003,1.1855,1.1787,1.1706,1.1558,1.1403,1.126,1.1186,1.1186,1.1186,1.1117,1.1117,1.1117,1.1117,1.1117,2.8574,2.8999,2.9029,2.9165,2.9305,2.895,2.8846,2.8833,2.8971,2.9058,2.8996,2.8701,2.856,2.8465,2.811,2.7978,2.7978,2.776,2.7625,2.7625,2.7539,2.7473,2.7423,2.7386,2.7335,2.7284,2.7181,2.713,2.7078,2.6989,2.6899,2.6884,2.6674,2.6272,2.5879,2.5495,2.509,2.4794,2.4394,2.3943,2.3484,2.3138,2.2909,2.2787,2.2543,2.242,2.2359,2.2247,2.2197,2.2061,2.2061,2.1273,2.0096,1.9639,1.9121,1.8076,1.8008,1.793,1.7862,1.7784,1.7706,1.7579,1.7451,1.7442,1.7442,1.7373,1.7314,1.7254,1.7254,1.7185,1.7107,1.7107,1.6968,1.6908,1.6908,1.6908,1.6908,1.6908,1.6403,1.5762,1.5046,1.433,1.368,1.3105,1.2666,1.2592,1.2592,1.2739,1.331,1.4314,1.4673,1.4537,1.4243,1.3882,1.352,1.3157,1.2512,1.2083,1.1935,1.1861,1.1781,1.1706,1.1558,1.1484,1.1329,1.118,1.1111,1.1111,1.1117,1.1117,1.1117,1.1117,1.1117,1.1117,1.1117,2.7027,2.7226,2.73,2.7502,2.7524,2.7447,2.7055,2.6561,2.769,2.8276,2.8181,2.7754,2.7555,2.7715,2.756,2.7575,2.7575,2.7488,2.7386,2.7386,2.7386,2.7335,2.7284,2.7181,2.7196,2.713,2.7078,2.6989,2.6951,2.6899,2.6846,2.6779,2.6394,2.6002,2.5522,2.4908,2.4394,2.3872,2.3636,2.3352,2.3017,2.28,2.269,2.2616,2.2482,2.2359,2.2359,2.2309,2.2197,2.1925,2.1537,2.0805,1.9824,1.8921,1.8279,1.8086,1.8008,1.793,1.7784,1.7706,1.7588,1.7461,1.7323,1.7245,1.7176,1.7166,1.7107,1.7047,1.7047,1.7047,1.7047,1.6968,1.6908,1.6908,1.6908,1.6908,1.6908,1.6936,1.6763,1.6219,1.5879,1.5073,1.421,1.3638,1.291,1.2566,1.2378,1.2378,1.2659,1.3593,1.381,1.3745,1.3665,1.352,1.323,1.2799,1.2144,1.1787,1.1713,1.1632,1.1632,1.1484,1.1329,1.1254,1.1186,1.1186,1.1117,1.1117,1.1117,1.1117,1.1117,1.1117,1.1117,1.1117,1.1117,2.6551,2.6675,2.6789,2.6814,2.6698,2.6351,2.5984,2.5693,2.5963,2.6429,2.6816,2.6723,2.6876,2.7318,2.7181,2.7261,2.7386,2.7284,2.7233,2.7233,2.7233,2.7233,2.7196,2.7093,2.7041,2.6989,2.6951,2.6899,2.6846,2.6846,2.6779,2.6779,2.6379,2.592,2.505,2.4439,2.3917,2.3125,2.2944,2.2896,2.2739,2.2543,2.2482,2.242,2.2297,2.2247,2.2247,2.2247,2.1862,2.14,2.1262,2.0473,1.9299,1.8462,1.8076,1.8008,1.794,1.7862,1.7716,1.7579,1.7451,1.7314,1.7107,1.7047,1.6978,1.6968,1.6968,1.6908,1.6908,1.6908,1.6908,1.6908,1.6908,1.6908,1.6917,1.6917,1.6917,1.693,1.6933,1.6777,1.6517,1.5883,1.5014,1.4148,1.3393,1.2864,1.2486,1.2305,1.2157,1.2586,1.3091,1.3164,1.331,1.3164,1.2799,1.2432,1.1855,1.1558,1.1558,1.1484,1.1409,1.1335,1.1186,1.1186,1.1117,1.1117,1.1117,1.1117,1.1117,1.1117,1.1117,1.1117,1.1117,1.1117,1.1117,2.5875,2.5783,2.5823,2.5628,2.5341,2.5244,2.497,2.4579,2.4458,2.4734,2.5416,2.5678,2.6199,2.6781,2.6739,2.699,2.7144,2.7144,2.7144,2.7093,2.7078,2.7026,2.6989,2.6937,2.6937,2.6899,2.6846,2.6794,2.6779,2.6779,2.6779,2.6539,2.619,2.5508,2.4483,2.4079,2.3518,2.2604,2.2432,2.2432,2.2506,2.2371,2.2309,2.2247,2.2247,2.2197,2.2197,2.2135,2.1737,2.1008,2.0537,1.9552,1.8633,1.8056,1.7872,1.7803,1.7735,1.7666,1.752,1.7442,1.7323,1.7135,1.7047,1.6927,1.6908,1.6899,1.6899,1.6908,1.6908,1.6908,1.6908,1.6908,1.6908,1.6908,1.6945,1.6963,1.711,1.7266,1.7387,1.7561,1.7249,1.6954,1.613,1.5304,1.4419,1.3297,1.2886,1.223,1.2061,1.1861,1.2224,1.2512,1.2579,1.2505,1.2137,1.1842,1.1552,1.1409,1.1409,1.1335,1.126,1.1186,1.1117,1.1117,1.1117,1.1117,1.1117,1.1117,1.1117,1.1117,1.1117,1.1117,1.1123,1.1141,1.1129,2.5137,2.4708,2.4663,2.4326,2.3874,2.4179,2.406,2.3511,2.3348,2.3551,2.4063,2.4772,2.5438,2.5864,2.6073,2.652,2.6828,2.6967,2.6974,2.6951,2.6951,2.6937,2.6884,2.6832,2.6846,2.6846,2.6794,2.6727,2.6659,2.6659,2.6418,2.6,2.5329,2.4584,2.3989,2.3424,2.2726,2.2482,2.2309,2.2309,2.2247,2.2197,2.2197,2.2197,2.2197,2.2197,2.2197,2.1999,2.1663,2.0741,1.9683,1.87,1.8182,1.7784,1.7657,1.7598,1.7598,1.7461,1.7314,1.7235,1.7153,1.7051,1.6972,1.7009,1.7027,1.7082,1.7092,1.7092,1.7092,1.7064,1.7073,1.7101,1.7101,1.711,1.7147,1.7193,1.7403,1.7587,1.7853,1.8137,1.7968,1.7734,1.7046,1.6283,1.5349,1.419,1.3237,1.2565,1.2003,1.1757,1.1781,1.1848,1.1848,1.1626,1.1477,1.1403,1.1335,1.126,1.126,1.1186,1.1117,1.1117,1.1117,1.1117,1.1117,1.1129,1.1117,1.1117,1.1117,1.119,1.1232,1.1274,1.1175,1.1175,1.1103,2.4558,2.3967,2.3818,2.3672,2.3568,2.3555,2.3378,2.3274,2.3653,2.3681,2.3429,2.3851,2.4571,2.5311,2.5704,2.6104,2.6345,2.6622,2.6817,2.6846,2.6846,2.6846,2.6846,2.6794,2.6794,2.6794,2.6779,2.6606,2.6433,2.6351,2.6014,2.5398,2.5342,2.4526,2.3551,2.304,2.2763,2.242,2.2247,2.2247,2.2185,2.2197,2.2197,2.2197,2.2197,2.2197,2.2061,2.16,2.1008,2.002,1.8942,1.8163,1.7802,1.7722,1.7631,1.7609,1.759,1.7502,1.7381,1.7372,1.7315,1.7447,1.7422,1.7523,1.7605,1.7752,1.7761,1.777,1.7752,1.766,1.766,1.7734,1.7761,1.777,1.7807,1.7834,1.7954,1.8045,1.8192,1.843,1.8519,1.8127,1.7579,1.6899,1.6162,1.4964,1.3774,1.3092,1.2451,1.191,1.144,1.1366,1.1303,1.1335,1.1409,1.1403,1.1335,1.1186,1.1117,1.1117,1.1117,1.1117,1.1117,1.1117,1.1135,1.116,1.1148,1.1238,1.1323,1.1413,1.1449,1.139,1.1284,1.1266,1.1318]},{"header":{"parameterUnit":"m.s-1","parameterCategory":1,"la1":31.0,"la2":29.5877,"lo1":-88.7671,"lo2":-86.6584,"dy":0.0162,"dx":0.0185,"nx":115,"ny":88,"refTime":"2023-07-26T06:00:00:Z","depth":0,"parameterNumber":3,"parameterNumberName":"V-component_of_WINDS"},"data":[0.0,0.0,0.0,0.0,0.0,0.0,0.0,0.0,0.0,0.0,0.0,0.0,0.0,0.0,0.0,0.0,0.0,0.0,0.0,0.0,0.0,0.0,0.0,0.0,0.0,0.0,0.0,0.0,0.0,0.0,0.0,0.0,0.0,0.0,0.0,0.0,0.0,0.0,0.0,0.0,0.0,0.0,0.0,0.0,0.0,0.0,0.0,0.0,0.0,0.0,0.0,0.0,0.0,0.0,0.0,0.0,0.0,0.0,0.0,0.0,0.0,0.0,0.0,0.0,0.0,0.0,0.0,0.0,0.0,0.0,0.0,0.0,0.0,0.0,0.0,0.0,0.0,0.0,0.0,0.0,0.0,0.0,0.0,0.0,0.0,0.0,0.0,0.0,0.0,0.0,0.0,0.0,0.0,0.0,0.0,0.0,0.0,0.0,0.0,0.0,0.0,0.0,0.0,0.0,0.0,0.0,0.0,0.0,0.0,0.0,0.0,0.0,0.0,0.0,0.0,0.0,0.0,0.0,0.0,0.0,0.0,0.0,0.0,0.0,0.0,0.0,0.0,0.0,0.0,0.0,0.0,0.0,0.0,0.0,0.0,0.0,0.0,0.0,0.0,0.0,0.0,0.0,0.0,0.0,0.0,0.0,0.0,0.0,0.0,0.0,0.0,0.0,0.0,0.0,0.0,0.0,0.0,0.0,0.0,0.0,0.0,0.0,0.0,0.0,0.0,0.0,0.0,0.0,0.0,0.0,0.0,0.0,0.0,0.0,0.0,0.0,0.0,0.0,0.0,0.0,0.0,0.0,0.0,0.0,0.0,0.0,0.0,0.0,0.0,0.0,0.0,0.0,0.0,0.0,0.0,0.0,0.0,0.0,0.0,0.0,0.0,0.0,0.0,0.0,0.0,0.0,0.0,0.0,0.0,0.0,0.0,0.0,0.0,0.0,0.0,0.0,0.0,0.0,0.0,0.0,0.0,0.0,0.0,0.0,0.0,0.0,0.0,0.0,0.0,0.0,0.0,0.0,0.0,0.0,0.0,0.0,0.0,0.0,0.0,0.0,0.0,0.0,0.0,0.0,0.0,0.0,0.0,0.0,0.0,0.0,0.0,0.0,0.0,0.0,0.0,0.0,0.0,0.0,0.0,0.0,0.0,0.0,0.0,0.0,0.0,0.0,0.0,0.0,0.0,0.0,0.0,0.0,0.0,0.0,0.0,0.0,0.0,0.0,0.0,0.0,0.0,0.0,0.0,0.0,0.0,0.0,0.0,0.0,0.0,0.0,0.0,0.0,0.0,0.0,0.0,0.0,0.0,0.0,0.0,0.0,0.0,0.0,0.0,0.0,0.0,0.0,0.0,0.0,0.0,0.0,0.0,0.0,0.0,0.0,0.0,0.0,0.0,0.0,0.0,0.0,0.0,0.0,0.0,0.0,0.0,0.0,0.0,0.0,0.0,0.0,0.0,0.0,0.0,0.0,0.0,0.0,0.0,0.0,0.0,0.0,0.0,0.0,0.0,0.0,0.0,0.0,0.0,0.0,0.0,0.0,0.0,0.0,0.0,0.0,0.0,0.0,0.0,0.0,0.0,0.0,0.0,0.0,0.0,0.0,0.0,0.0,0.0,0.0,0.0,0.0,0.0,0.0,0.0,0.0,0.0,0.0,0.0,0.0,0.0,0.0,0.0,0.0,0.0,0.0,0.0,0.0,0.0,0.0,0.0,0.0,0.0,0.0,0.0,0.0,0.0,0.0,0.0,0.0,0.0,0.0,0.0,0.0,0.0,0.0,0.0,0.0,0.0,0.0,0.0,0.0,0.0,0.0,0.0,0.0,0.0,0.0,0.0,0.0,0.0,0.0,0.0,0.0,0.0,0.0,0.0,0.0,0.0,0.0,0.0,0.0,0.0,0.0,0.0,0.0,0.0,0.0,0.0,0.0,0.0,0.0,0.0,0.0,0.0,0.0,0.0,0.0,0.0,0.0,0.0,0.0,0.0,0.0,0.0,0.0,0.0,0.0,0.0,0.0,0.0,0.0,0.0,0.0,0.0,0.0,0.0,0.0,0.0,0.0,0.0,0.0,0.0,0.0,0.0,0.0,0.0,0.0,0.0,0.0,0.0,0.0,0.0,0.0,0.0,0.0,0.0,0.0,0.0,0.0,0.0,0.0,0.0,0.0,0.0,0.0,0.0,0.0,0.0,0.0,0.0,0.0,0.0,0.0,0.0,0.0,0.0,0.0,0.0,0.0,0.0,0.0,0.0,0.0,0.0,0.0,0.0,0.0,0.0,0.0,0.0,0.0,0.0,0.0,0.0,0.0,0.0,0.0,0.0,0.0,0.0,0.0,0.0,0.0,0.0,0.0,0.0,0.0,0.0,0.0,0.0,0.0,0.0,0.0,0.0,0.0,0.0,0.0,0.0,0.0,0.0,0.0,0.0,0.0,0.0,0.0,0.0,0.0,0.0,0.0,0.0,0.0,0.0,0.0,0.0,0.0,0.0,0.0,0.0,0.0,0.0,0.0,0.0,0.0,0.0,0.0,0.0,0.0,0.0,0.0,0.0,0.0,0.0,0.0,0.0,0.0,0.0,0.0,0.0,0.0,0.0,0.0,0.0,0.0,0.0,0.0,0.0,0.0,0.0,0.0,0.0,0.0,0.0,0.0,0.0,0.0,0.0,0.0,0.0,0.0,0.0,0.0,0.0,0.0,0.0,0.0,0.0,0.0,0.0,0.0,0.0,0.0,0.0,0.0,0.0,0.0,0.0,0.0,0.0,0.0,0.0,0.0,0.0,0.0,0.0,0.0,0.0,0.0,0.0,0.0,0.0,0.0,0.0,0.0,0.0,0.0,0.0,0.0,0.0,0.0,0.0,0.0,0.0,0.0,0.0,0.0,0.0,0.0,0.0,0.0,0.0,0.0,0.0,0.0,0.0,0.0,0.0,0.0,0.0,0.0,0.0,0.0,0.0,0.0,0.0,0.0,0.0,0.0,0.0,0.0,0.0,0.0,0.0,0.0,0.0,0.0,0.0,0.0,0.0,0.0,0.0,0.0,0.0,0.0,0.0,0.0,0.0,0.0,0.0,0.0,0.0,0.0,0.0,0.0,0.0,0.0,0.0,0.0,0.0,0.0,0.0,0.0,0.0,0.0,0.0,0.0,0.0,0.0,0.0,0.0,0.0,0.0,0.0,0.0,0.0,0.0,0.0,0.0,0.0,0.0,0.0,0.0,0.0,0.0,0.0,0.0,0.0,0.0,0.0,0.0,0.0,0.0,0.0,0.0,0.0,0.0,0.0,0.0,0.0,0.0,0.0,0.0,0.0,0.0,0.0,0.0,0.0,0.0,0.0,0.0,0.0,0.0,0.0,0.0,0.0,0.0,0.0,0.0,0.0,0.0,0.0,0.0,0.0,0.0,0.0,0.0,0.0,0.0,0.0,0.0,0.0,0.0,0.0,0.0,0.0,0.0,0.0,0.0,0.0,0.0,0.0,0.0,0.0,0.0,0.0,0.0,0.0,0.0,0.0,0.0,0.0,0.0,0.0,0.0,0.0,0.0,0.0,0.0,0.0,0.0,0.0,0.0,0.0,0.0,0.0,0.0,0.0,0.0,0.0,0.0,0.0,0.0,0.0,0.0,0.0,0.0,0.0,0.0,0.0,0.0,0.0,0.0,0.0,0.0,0.0,0.0,0.0,0.0,0.0,0.0,0.0,0.0,0.0,0.0,0.0,0.0,0.0,0.0,0.0,0.0,0.0,0.0,0.0,0.0,0.0,0.0,0.0,0.0,0.0,0.0,0.0,0.0,0.0,0.0,0.0,0.0,0.0,0.0,0.0,0.0,0.0,0.0,0.0,0.0,0.0,0.0,0.0,0.0,0.0,0.0,0.0,0.0,0.0,0.0,0.0,0.0,0.0,0.0,0.0,0.0,0.0,0.0,0.0,0.0,0.0,0.0,0.0,0.0,0.0,0.0,0.0,0.0,0.0,0.0,0.0,0.0,0.0,0.0,0.0,0.0,0.0,0.0,0.0,0.0,0.0,0.0,0.0,0.0,0.0,0.0,0.0,0.0,0.0,0.0,0.0,0.0,0.0,0.0,0.0,0.0,0.0,0.0,0.0,0.0,0.0,0.0,0.0,0.0,0.0,0.0,0.0,0.0,0.0,0.0,0.0,0.0,0.0,0.0,0.0,0.0,0.0,0.0,0.0,0.0,0.0,0.0,0.0,0.0,0.0,0.0,0.0,0.0,0.0,0.0,0.0,0.0,0.0,0.0,-0.3265,0.0,0.0,0.0,0.0,0.0,0.0,0.0,0.0,0.0,0.0,0.0,0.0,0.0,0.0,0.0,0.0,0.0,0.0,0.0,0.0,0.0,0.0,0.0,0.0,0.0,0.0,0.0,0.0,0.0,0.0,0.0,0.0,0.0,0.0,0.0,0.0,0.0,0.0,0.0,0.0,0.0,0.0,0.0,0.0,0.0,0.0,0.0,0.0,0.0,0.0,0.0,0.0,0.0,0.0,0.0,0.0,0.0,0.0,0.0,0.0,0.0,0.0,0.0,0.0,0.0,0.0,0.0,0.0,0.0,0.0,0.0,0.0,0.0,0.0,0.0,0.0,0.0,0.0,0.0,0.0,0.0,0.0,0.0,0.0,0.0,0.0,0.0,0.0,0.0,0.0,0.0,0.0,0.0,0.0,0.0,0.0,0.0,0.0,0.0,0.0,0.0,0.0,0.0,0.0,0.0,0.0,0.0,0.0,0.0,0.0,-0.3426,-0.2959,-0.3367,-0.35,-0.3162,0.0,0.0,0.0,0.0,0.0,0.0,0.0,0.0,0.0,0.0,0.0,0.0,0.0,0.0,0.0,0.0,0.0,0.0,0.0,0.0,0.0,0.0,0.0,0.0,0.0,0.0,0.0,0.0,0.0,0.0,0.0,0.0,0.0,0.0,0.0,0.0,0.0,0.0,0.0,0.0,0.0,0.0,0.0,0.0,0.0,0.0,0.0,0.0,0.0,0.0,0.0,0.0,0.0,0.0,0.0,0.0,0.0,0.0,0.0,0.0,0.0,0.0,0.0,0.0,0.0,0.0,0.0,0.0,0.0,0.0,0.0,0.0,0.0,0.0,0.0,0.0,0.0,0.0,0.0,0.0,0.0,0.0,0.0,0.0,0.0,0.0,0.0,0.0,0.0,0.0,0.0,0.0,0.0,0.0,0.0,0.0,0.0,0.0,0.0,0.0,0.0,0.0,0.0,0.0,0.0,0.0,0.0,0.0,0.0,0.0,0.0,0.0,-0.298,-0.3162,-0.3033,0.0,0.0,0.0,0.0,0.0,0.0,0.0,0.0,0.0,0.0,0.0,0.0,0.0,0.0,0.0,0.0,0.0,0.0,0.0,0.0,0.0,0.0,0.0,0.0,0.0,0.0,0.0,0.0,0.0,0.0,0.0,0.0,0.0,0.0,0.0,0.0,0.0,0.0,0.0,0.0,0.0,0.0,0.0,0.0,0.0,0.0,0.0,0.0,0.0,0.0,0.0,0.0,0.0,0.0,0.0,0.0,0.0,0.0,0.0,0.0,0.0,0.0,0.0,0.0,0.0,0.0,0.0,0.0,0.0,0.0,0.0,0.0,0.0,0.0,0.0,0.0,0.0,0.0,0.0,0.0,0.0,0.0,0.0,0.0,0.0,0.0,0.0,0.0,0.0,0.0,0.0,0.0,0.0,0.0,0.0,0.0,0.0,0.0,0.0,0.0,0.0,0.0,0.0,0.0,0.0,0.0,0.0,0.0,0.0,0.0,-0.2094,-0.1973,-0.203,0.0,-0.2692,0.0,0.0,0.0,0.0,0.0,0.0,0.0,0.0,0.0,0.0,0.0,0.0,0.0,0.0,0.0,0.0,0.0,0.0,0.0,0.0,0.0,0.0,0.0,0.0,0.0,0.0,0.0,0.0,0.0,0.0,0.0,0.0,0.0,0.0,0.0,0.0,0.0,0.0,0.0,0.0,0.0,0.0,0.0,0.0,0.0,0.0,0.0,0.0,0.0,0.0,0.0,0.0,0.0,0.0,0.0,0.0,0.0,0.0,0.0,0.0,0.0,0.0,0.0,0.0,0.0,0.0,0.0,0.0,0.0,0.0,0.0,0.0,0.0,0.0,0.0,0.0,0.0,0.0,0.0,0.0,0.0,0.0,0.0,0.0,0.0,0.0,0.0,0.0,0.0,0.0,0.0,0.0,0.0,0.0,0.0,0.0,0.0,0.0,0.0,0.0,0.0,0.0,0.0,0.0,0.0,0.0,0.0,0.0,0.0,0.0,-0.1821,-0.1593,-0.1778,-0.2043,0.0,0.0,0.0,0.0,0.0,0.0,0.0,0.0,0.0,0.0,0.0,0.0,0.0,0.0,0.0,0.0,0.0,0.0,0.0,0.0,0.0,0.0,0.0,0.0,0.0,0.0,0.0,0.0,0.0,0.0,0.0,0.0,0.0,0.0,0.0,0.0,0.0,0.0,0.0,0.0,0.0,0.0,0.0,0.0,0.0,0.0,0.0,0.0,0.0,0.0,0.0,0.0,0.0,0.0,0.0,0.0,0.0,0.0,0.0,0.0,0.0,0.0,0.0,0.0,0.0,0.0,0.0,0.0,0.0,0.0,0.0,0.0,0.0,0.0,0.0,0.0,0.0,0.0,0.0,0.0,0.0,0.0,0.0,0.0,0.0,0.0,0.0,0.0,0.0,0.0,0.0,0.0,0.0,0.0,0.0,0.0,0.0,0.0,0.0,0.0,0.0,0.0,0.0,0.0,0.0,0.0,0.0,0.0,0.0,0.0,-0.1451,-0.1445,-0.1184,-0.1375,-0.167,-0.2109,0.0,0.0,0.0,0.0,0.0,0.0,0.0,0.0,0.0,0.0,0.0,0.0,0.0,0.0,0.0,0.0,0.0,0.0,0.0,0.0,0.0,0.0,0.0,0.0,0.0,0.0,0.0,0.0,0.0,0.0,0.0,0.0,0.0,0.0,0.0,0.0,0.0,0.0,0.0,0.0,0.0,0.0,0.0,0.0,0.0,0.0,0.0,0.0,0.0,0.0,0.0,0.0,0.0,0.0,0.0,0.0,0.0,0.0,0.0,0.0,0.0,0.0,0.0,0.0,0.0,0.0,0.0,0.0,0.0,0.0,0.0,0.0,0.0,0.0,0.0,0.0,0.0,0.0,0.0,0.0,0.0,0.0,0.0,0.0,0.0,0.0,0.0,0.0,0.0,0.0,0.0,0.0,0.0,0.0,0.0,0.0,0.0,0.0,0.0,0.0,0.0,0.0,0.0,0.0,0.0,0.0,0.0,0.0,-0.131,-0.0891,-0.067,-0.0664,-0.0626,-0.088,0.0,0.0,0.0,0.0,0.0,0.0,0.0,0.0,0.0,0.0,0.0,0.0,0.0,0.0,0.0,0.0,0.0,0.0,0.0,0.0,0.0,0.0,0.0,0.0,0.0,0.0,0.0,0.0,0.0,0.0,0.0,0.0,0.0,0.0,0.0,0.0,0.0,0.0,0.0,0.0,0.0,0.0,0.0,0.0,0.0,0.0,0.0,0.0,0.0,0.0,0.0,0.0,0.0,0.0,0.0,0.0,0.0,0.0,0.0,0.0,0.0,0.0,0.0,0.0,0.0,0.0,0.0,0.0,0.0,0.0,0.0,0.0,0.0,0.0,0.0,0.0,0.0,0.0,0.0,0.0,0.0,0.0,0.0,0.0,0.0,0.0,0.0,0.0,0.0,0.0,0.0,0.0,0.0,0.0,0.0,0.0,0.0,0.0,0.0,0.0,0.0,0.0,0.0,0.0,0.0,0.0,0.0,0.0,0.0,-0.0818,-0.0672,-0.0627,-0.0615,-0.0639,-0.0732,0.0,0.0,0.0,0.0,0.0,0.0,0.0,0.0,0.0,0.0,0.0,0.0,0.0,0.0,0.0,0.0,0.0,0.0,0.0,0.0,0.0,0.0,0.0,0.0,0.0,0.0,0.0,0.0,0.0,0.0,0.0,0.0,0.0,0.0,0.0,0.0,0.0,0.0,0.0,0.0,0.0,0.0,0.0,0.0,0.0,0.0,0.0,0.0,0.0,0.0,0.0,0.0,0.0,0.0,0.0,0.0,0.0,0.0,0.0,0.0,0.0,0.0,0.0,0.0,0.0,0.0,0.0,0.0,0.0,0.0,0.0,0.0,0.0,0.0,0.0,0.0,0.0,0.0,0.0,0.0,0.0,0.0,0.0,0.0,0.0,0.0,0.0,0.0,0.0,0.0,0.0,0.0,0.0,0.0,0.0,0.0,0.0,0.0,0.0,0.0,0.0,0.0,0.0,0.0,0.0,0.0,0.0,0.0,0.0,-0.0284,0.0,-0.0204,-0.0335,-0.0327,-0.0413,0.0,0.0,0.0,0.0,0.0,0.0,0.0,0.0,0.0,0.0,0.0,0.0,0.0,0.0,0.0,0.0,0.0,0.0,0.0,0.0,0.0,0.0,0.0,0.0,0.0,0.0,0.0,0.0,0.0,0.0,0.0,0.0,0.0,0.0,0.0,0.0,0.0,0.0,0.0,0.0,0.0,0.0,0.0,0.0,0.0,0.0,0.0,0.0,0.0,0.0,0.0,0.0,0.0,0.0,0.0,0.0,0.0,0.0,0.0,0.0,0.0,0.0,0.0,0.0,0.0,0.0,0.0,0.0,0.0,0.0,0.0,0.0,0.0,0.0,0.0,0.0,0.0,0.0,0.0,0.0,0.0,0.0,0.0,0.0,0.0,0.0,0.0,0.0,0.0,0.0,0.0,0.0,0.0,0.0,0.0,0.0,0.0,0.0,0.0,0.0,0.0,0.0,0.0,0.0,0.0,0.0,0.0,0.0,-0.0818,0.0272,0.0653,0.0629,0.0252,0.0335,0.0084,0.0,0.0,0.0,0.0,0.0,0.0,0.0,0.0,0.0,0.0,0.0,0.0,0.0,0.0,0.0,0.0,0.0,0.0,0.0,0.0,0.0,0.0,0.0,0.0,0.0,0.0,0.0,0.0,0.0,0.0,0.0,0.0,0.0,0.0,0.0,0.0,0.0,0.0,0.0,0.0,0.0,0.0,0.0,0.0,0.0,0.0,0.0,0.0,0.0,0.0,0.0,0.0,0.0,0.0,0.0,0.0,0.0,0.0,0.0,0.0,0.0,0.0,0.0,0.0,0.0,0.0,0.0,0.0,0.0,0.0,0.0,0.0,0.0,0.0,0.0,0.0,0.0,0.0,0.0,0.0,0.0,0.0,0.0,0.0,0.0,0.0,0.0,0.0,0.0,0.0,0.0,0.0,0.0,0.0,0.0,0.0,0.0,0.0,0.0,0.0,0.0,0.0,0.0,0.0,0.0,0.0,0.0,0.0,0.0,0.0561,0.0766,0.108,0.1369,0.0303,-0.0263,0.0,0.0,0.0,0.0,0.0,0.0,0.0,0.0,0.0,0.0,0.0,0.0,0.0,0.0,0.0,0.0,0.0,0.0,0.0,0.0,0.0,0.0,0.0,0.0,0.0,0.0,0.0,0.0,0.0,0.0,0.0,0.0,0.0,0.0,0.0,0.0,0.0,0.0,0.0,0.0,0.0,0.0,0.0,0.0,0.0,0.0,0.0,0.0,0.0,0.0,0.0,0.0,0.0,0.0,0.0,0.0,0.0,0.0,0.0,0.0,0.0,0.0,0.0,0.0,0.0,0.0,0.0,0.0,0.0,0.0,0.0,0.0,0.0,0.0,0.0,0.0,0.0,0.0,0.0,0.0,0.0,0.0,0.0,0.0,0.0,0.0,0.0,0.0,0.0,0.0,0.0,0.0,0.0,0.0,0.0,0.0,0.0,0.0,0.0,0.0,0.0,0.0,0.0,0.0,0.0,0.0,0.0,0.0,0.0,0.1512,0.1529,0.1716,0.2045,0.1175,0.0543,0.0288,0.0,0.0,0.0,0.0,0.0,0.0,0.0,0.0,0.0,0.0,0.0,0.0,0.0,0.0,0.0,0.0,0.0,0.0,0.0,0.0,0.0,0.0,0.0,0.0,0.0,0.0,0.0,0.0,0.0,0.0,0.0,0.0,0.0,0.0,0.0,0.0,0.0,0.0,0.0,0.0,0.0,0.0,0.0,0.0,0.0,0.0,0.0,0.0,0.0,0.0,0.0,0.0,0.0,0.0,0.0,0.0,0.0,0.0,0.0,0.0,0.0,0.0,0.0,0.0,0.0,0.0,0.0,0.0,0.0,0.0,0.0,0.0,0.0,0.0,0.0,0.0,0.0,0.0,0.0,0.0,0.0,0.0,0.0,0.0,0.0,0.0,0.0,0.0,0.0,0.0,0.0,0.0,0.0,0.0,0.0,0.0,0.0,0.0,0.0,0.0,0.0,0.0,0.0,0.0,0.0,0.0,0.0,0.0,0.2976,0.2908,0.2633,0.2201,0.2721,0.2386,0.0,0.0,0.0,0.0,0.0,0.0,0.0,0.0,0.0,0.0,0.0,0.0,0.0,0.0,0.0,0.0,0.0,0.0,0.0,0.0,0.0,0.0,0.0,0.0,0.0,0.0,0.0,0.0,0.0,0.0,0.0,0.0,0.0,0.0,0.0,0.0,0.0,0.0,0.0,0.0,0.0,0.0,0.0,0.0,0.0,0.0,0.0,0.0,0.0,0.0,0.0,0.0,0.0,0.0,0.0,0.0,0.0,0.0,0.0,0.0,0.0,0.0,0.0,0.0,0.0,0.0,0.0,0.0,0.0,0.0,0.0,0.0,0.0,0.0,0.0,0.0,0.0,0.0,0.0,0.0,0.0,0.0,0.0,0.0,0.0,0.0,0.0,0.0,0.0,0.0,0.0,0.0,0.0,0.0,0.0,0.0,0.0,0.0,0.0,0.0,0.0,0.0,0.0,0.0,0.0,0.0,0.0,0.0,0.0,0.4131,0.4335,0.3907,0.2939,0.2942,0.2788,0.0,0.0,0.0,0.0,0.0,0.0,0.0,0.0,0.0,0.0,0.0,0.0,0.0,0.0,0.0,0.0,0.0,0.0,0.0,0.0,0.0,0.0,0.0,0.0,0.0,0.0,0.0,0.0,0.0,0.0,0.0,0.0,0.0,0.0,0.0,0.0,0.0,0.0,0.0,0.0,0.0,0.0,0.0,0.0,0.0,0.0,0.0,0.0,0.0,0.0,0.0,0.0,0.0,0.0,0.0,0.0,0.0,0.0,0.0,0.0,0.0,0.0,0.0,0.0,0.0,0.0,0.0,0.0,0.0,0.0,0.0,0.0,0.0,0.0,0.0,0.0,0.0,0.0,0.0,0.0,0.0,0.0,0.0,0.0,0.0,0.0,0.0,0.0,0.0,0.0,0.0,0.0,0.0,0.0,0.0,0.0,0.0,0.0,0.0,0.0,0.0,0.0,0.0,0.0,0.0,0.0,0.0,0.0,0.3723,0.4845,0.5043,0.4695,0.374,0.3595,0.3328,0.0,0.0,0.0,0.0,0.0,0.0,0.0,0.0,0.0,0.0,0.0,0.0,0.0,0.0,0.0,0.0,0.0,0.0,0.0,0.0,0.0,0.0,0.0,0.0,0.0,0.0,0.0,0.0,0.0,0.0,0.0,0.0,0.0,0.0,0.0,0.0,0.0,0.0,0.0,0.0,0.0,0.0,0.0,0.0,0.0,0.0,0.0,0.0,0.0,0.0,0.0,0.0,0.0,0.0,0.0,0.0,0.0,0.0,0.0,0.0,0.0,0.0,0.0,0.0,0.0,0.0,0.0,0.0,0.0,0.0,0.0,0.0,0.0,0.0,0.0,0.0,0.0,0.0,0.0,0.0,0.0,0.0,0.0,0.0,0.0,0.0,0.0,0.0,0.0,0.0,0.0,0.0,0.0,0.0,0.0,0.0,0.0,0.0,0.0,0.0,0.0,0.0,0.0,0.0,0.0,0.0,0.0,0.0,0.4158,0.5332,0.5479,0.5226,0.4677,0.4417,0.3901,0.0,0.0,0.0,0.0,0.0,0.0,0.0,0.0,0.0,0.0,0.0,0.0,0.0,0.0,0.0,0.0,0.0,0.0,0.0,0.0,0.0,0.0,0.0,0.0,0.0,0.0,0.0,0.0,0.0,0.0,0.0,0.0,0.0,0.0,0.0,0.0,0.0,0.0,0.0,0.0,0.0,0.0,0.0,0.0,0.0,0.0,0.0,0.0,0.0,0.0,0.0,0.0,0.0,0.0,0.0,0.0,0.0,0.0,0.0,0.0,0.0,0.0,0.0,0.0,0.0,0.0,0.0,0.0,0.0,0.0,0.0,0.0,0.0,0.0,0.0,0.0,0.0,0.0,0.0,0.0,0.0,0.0,0.0,0.0,0.0,0.0,0.0,0.0,0.0,0.0,0.0,0.0,0.0,0.0,0.0,0.0,0.0,0.0,0.0,0.0,0.0,0.0,0.0,0.0,0.0,0.0,0.0,0.0,0.5106,0.635,0.6612,0.6426,0.5878,0.4843,0.3946,0.0,0.0,0.0,0.0,0.0,0.0,0.0,0.0,0.0,0.0,0.0,0.0,0.0,0.0,0.0,0.0,0.0,0.0,0.0,0.0,0.0,0.0,0.0,0.0,0.0,0.0,0.0,0.0,0.0,0.0,0.0,0.0,0.0,0.0,0.0,0.0,0.0,0.0,0.0,0.0,0.0,0.0,0.0,0.0,0.0,0.0,0.0,0.0,1.3028,0.0,0.0,0.0,0.0,0.0,0.0,0.0,0.0,0.0,0.0,0.0,0.0,0.0,0.0,0.0,0.0,0.0,0.0,0.0,0.0,0.0,0.0,0.0,0.0,0.0,0.0,0.0,0.0,0.0,0.0,0.0,0.0,0.0,0.0,0.0,0.0,0.0,0.0,0.0,0.0,0.0,0.0,0.0,0.0,0.0,0.0,0.0,0.0,0.0,0.0,0.0,0.0,0.0,0.0,0.0,0.0,0.0,0.0,0.0,0.5526,0.6684,0.6961,0.681,0.6204,0.5565,0.4755,0.0,0.0,0.0,0.0,0.0,0.0,0.0,0.0,0.0,0.0,0.0,0.0,0.0,0.0,0.0,0.0,0.0,0.0,0.0,0.0,0.0,0.0,0.0,0.0,0.0,0.0,0.0,0.0,0.0,0.0,0.0,0.0,0.0,0.0,0.0,0.0,0.0,0.0,0.0,0.0,0.0,0.0,0.0,0.0,0.0,0.0,0.0,0.0,0.0,0.0,0.0,0.0,0.0,0.0,0.0,0.0,0.0,0.0,0.0,0.0,0.0,0.0,0.0,0.0,0.0,0.0,0.0,0.0,0.0,0.0,0.0,0.0,0.0,0.0,0.0,0.0,0.0,0.0,0.0,0.0,0.0,0.0,0.0,0.0,0.0,0.0,0.0,0.0,0.0,0.0,0.0,0.0,0.0,0.0,0.0,0.0,0.0,0.0,0.0,0.0,0.0,0.0,0.0,0.0,0.0,0.0,0.0,0.5019,0.5724,0.6742,0.6982,0.6864,0.6372,0.6372,0.5747,0.4473,0.0,0.0,0.0,0.0,0.0,0.0,0.0,0.0,0.0,0.0,0.0,0.0,0.0,0.0,0.0,0.0,0.0,0.0,0.0,0.0,0.0,0.0,0.0,0.0,0.0,0.0,0.0,0.0,0.0,0.0,0.0,0.0,0.0,0.0,0.0,0.0,0.0,0.0,0.941,1.1265,0.0,0.0,0.0,0.0,0.0,0.0,0.0,0.0,1.5511,0.0,0.0,0.0,0.0,0.0,0.0,0.0,0.0,0.0,0.0,0.0,0.0,0.0,0.0,0.0,0.0,0.0,0.0,0.0,0.0,0.0,0.0,0.0,0.0,0.0,0.0,0.0,0.0,0.0,0.0,0.0,0.0,0.0,0.0,0.0,0.0,0.0,0.0,0.0,0.0,0.0,0.0,0.0,0.0,0.0,0.0,0.0,0.0,0.0,0.0,0.0,0.0,0.0,0.0,0.0,0.0,0.5431,0.556,0.6061,0.7015,0.7063,0.7031,0.6977,0.6972,0.633,0.5125,0.0,0.0,0.0,0.0,0.0,0.0,0.0,0.0,0.0,0.0,0.0,0.0,0.0,0.0,0.0,0.0,0.0,0.0,0.0,0.0,0.0,0.0,0.0,0.0,0.0,0.0,0.0,0.0,0.0,0.0,0.0,0.0,0.0,0.0,0.0,0.0,0.0,0.0,0.0,1.2968,1.3538,0.0,0.0,0.0,0.0,0.0,0.0,0.0,0.0,1.668,0.0,0.0,0.0,0.0,0.0,0.0,0.0,0.0,0.0,0.0,0.0,0.0,0.0,0.0,0.0,0.0,0.0,0.0,0.0,0.0,0.0,0.0,0.0,0.0,0.0,0.0,0.0,0.0,0.0,0.0,0.0,0.0,0.0,0.0,0.0,0.0,0.0,0.0,0.0,0.0,0.0,0.0,0.0,0.0,0.0,0.0,0.0,0.0,0.0,0.0,0.0,0.0,0.0,0.0,0.0,0.5926,0.6455,0.7056,0.7717,0.7509,0.7402,0.7402,0.7252,0.6545,0.0,0.0,0.0,0.0,0.0,0.0,0.0,0.0,0.0,0.0,0.0,0.0,0.0,0.0,0.0,0.0,0.0,0.0,0.0,0.0,0.0,0.0,0.0,0.0,0.0,0.0,0.0,0.0,0.0,0.0,0.0,0.0,0.0,0.0,0.0,0.0,0.0,0.0,0.0,0.0,1.3984,1.4543,1.5431,0.0,0.0,0.0,0.0,0.0,0.0,1.685,1.7018,0.0,0.0,0.0,0.0,0.0,0.0,0.0,0.0,0.0,0.0,0.0,0.0,0.0,0.0,0.0,0.0,0.0,0.0,0.0,0.0,0.0,0.0,0.0,0.0,0.0,0.0,0.0,0.0,0.0,0.0,0.0,0.0,0.0,0.0,0.0,0.0,0.0,0.0,0.0,0.0,0.0,0.0,0.0,0.0,0.0,0.0,0.0,0.0,0.0,0.0,0.0,0.0,0.0,0.0,0.0,0.6277,0.7195,0.7888,0.8203,0.7883,0.767,0.7563,0.7365,0.6655,0.0,0.0,0.0,0.0,0.0,0.0,0.0,0.0,0.0,0.0,0.0,0.0,0.0,0.0,0.0,0.0,0.0,0.0,0.0,0.0,0.0,0.0,0.0,0.0,0.0,0.0,0.0,0.0,0.0,0.0,0.0,0.0,0.0,0.0,0.0,0.0,0.0,0.0,0.0,0.0,0.0,1.5545,1.6201,1.6595,0.0,0.0,0.0,0.0,1.6921,1.7214,0.0,0.0,0.0,0.0,0.0,0.0,0.0,0.0,0.0,0.0,0.0,0.0,0.0,0.0,0.0,0.0,0.0,0.0,0.0,0.0,0.0,0.0,0.0,0.0,0.0,0.0,0.0,0.0,0.0,0.0,0.0,0.0,0.0,0.0,0.0,0.0,0.0,0.0,0.0,0.0,0.0,0.0,0.0,0.0,0.0,0.0,0.0,0.0,0.0,0.0,0.0,0.0,0.0,0.0,0.0,0.0,0.6261,0.7124,0.7598,0.7759,0.7717,0.7515,0.7192,0.7252,0.6812,0.0,0.0,0.0,0.0,0.0,0.0,0.0,0.0,0.0,0.0,0.0,0.0,0.0,0.0,0.0,0.0,0.0,0.0,0.0,0.0,0.0,0.0,0.0,0.0,0.0,0.0,0.0,0.0,0.0,0.0,0.0,0.0,0.0,0.0,0.0,0.0,0.0,0.0,0.0,0.0,0.0,1.6391,1.6625,1.6934,1.7018,0.0,0.0,1.7679,1.7679,1.8068,0.0,0.0,0.0,0.0,0.0,0.0,0.0,0.0,0.0,0.0,0.0,0.0,0.0,0.0,0.0,0.0,0.0,0.0,0.0,0.0,0.0,0.0,0.0,0.0,0.0,0.0,0.0,0.0,0.0,0.0,0.0,0.0,0.0,0.0,0.0,0.0,0.0,0.0,0.0,0.0,0.0,0.0,0.0,0.0,0.0,0.0,0.0,0.0,0.0,0.0,0.0,0.0,0.0,0.0,0.0,0.5859,0.6707,0.7652,0.8241,0.8415,0.7943,0.7622,0.745,0.7413,0.6922,0.0,0.0,0.0,0.0,0.0,0.0,0.0,0.0,0.0,0.0,0.0,0.0,0.0,0.0,0.0,0.0,0.0,0.0,0.0,0.0,0.0,0.0,0.0,0.0,0.0,0.0,0.0,0.0,0.0,0.0,0.0,0.0,0.0,0.0,0.0,0.0,0.0,0.0,0.0,0.0,0.0,0.0,1.7366,1.7516,0.0,0.0,0.0,1.8028,1.8212,0.0,0.0,0.0,0.0,0.0,0.0,0.0,0.0,0.0,0.0,0.0,0.0,0.0,0.0,0.0,0.0,0.0,0.0,0.0,0.0,0.0,0.0,0.0,0.0,0.0,0.0,0.0,0.0,0.0,0.0,0.0,0.0,0.0,0.0,0.0,0.0,0.0,0.0,0.0,0.0,0.0,0.0,0.0,0.0,0.0,0.0,0.0,0.0,0.0,0.0,0.0,0.0,0.0,0.0,0.0,0.0,0.0,0.714,0.8229,0.8844,0.8962,0.8256,0.783,0.7723,0.7568,0.0,0.0,0.0,0.0,0.0,0.0,0.0,0.0,0.0,0.0,0.0,0.0,0.0,0.0,0.0,0.0,0.0,0.0,0.0,0.0,0.0,0.0,0.0,0.0,0.0,0.0,0.0,0.9336,0.0,0.0,0.0,0.0,0.0,0.0,0.0,0.0,0.0,0.0,0.0,0.0,0.0,0.0,1.7299,1.8068,1.8068,1.8147,0.0,0.0,1.8447,1.8741,1.893,1.8945,0.0,0.0,0.0,0.0,0.0,0.0,0.0,0.0,0.0,0.0,0.0,0.0,0.0,0.0,0.0,0.0,0.0,0.0,0.0,0.0,0.0,0.0,0.0,0.0,0.0,0.0,0.0,0.0,0.0,0.0,0.0,0.0,0.0,0.0,0.0,0.0,0.0,0.0,0.0,0.0,0.0,0.0,0.0,0.0,0.0,0.0,0.0,0.0,0.0,0.0,0.0,0.0,0.0,0.0,0.6804,0.7583,0.8636,0.9106,0.9008,0.858,0.8156,0.7723,0.7568,0.7229,0.0,0.0,0.0,0.0,0.0,0.0,0.0,0.0,0.0,0.0,0.0,0.0,0.0,0.0,0.0,0.0,0.0,0.0,0.0,0.0,0.0,0.0,0.0,0.0,0.0,0.0,0.0,0.0,0.0,0.0,0.0,0.0,0.0,0.0,0.0,0.0,0.0,0.0,0.0,0.0,0.0,1.7868,1.8461,1.8553,1.8563,0.0,1.9058,1.9332,1.9332,1.9654,1.9726,1.9244,0.0,0.0,0.0,0.0,0.0,0.0,0.0,0.0,0.0,0.0,0.0,0.0,0.0,0.0,0.0,0.0,0.0,0.0,0.0,0.0,0.0,0.0,0.0,0.0,0.0,0.0,0.0,0.0,0.0,0.0,0.0,0.0,0.0,0.0,0.0,0.0,0.0,0.0,0.0,0.0,0.0,0.0,0.0,0.0,0.0,0.0,0.0,0.0,0.0,0.0,0.0,0.0,0.0,0.6707,0.7236,0.828,0.889,0.8956,0.8315,0.7883,0.767,0.7568,0.7355,0.0,0.0,0.0,0.0,0.0,0.0,0.0,0.0,0.0,0.0,0.0,0.0,0.0,0.0,0.0,0.0,0.0,0.0,0.0,0.0,0.0,0.0,0.0,0.0,0.0,0.0,0.0,0.0,1.2173,1.2672,1.386,0.0,0.0,0.0,0.0,0.0,0.0,0.0,0.0,0.0,0.0,1.8693,1.9035,1.9095,0.0,0.0,1.9745,2.0034,2.0236,2.0451,2.0503,2.0251,2.0542,0.0,0.0,0.0,0.0,0.0,0.0,0.0,0.0,0.0,0.0,0.0,0.0,0.0,0.0,0.0,0.0,0.0,0.0,0.0,0.0,0.0,0.0,0.0,0.0,0.0,0.0,0.0,0.0,0.0,0.0,0.0,0.0,0.0,0.0,0.0,0.0,0.0,0.0,0.0,0.0,0.0,0.0,0.0,0.0,0.0,0.0,0.0,0.0,0.0,0.0,0.0,0.0,0.6659,0.7182,0.8229,0.8837,0.9015,0.8262,0.783,0.7723,0.7568,0.7353,0.0,0.0,0.0,0.0,0.0,0.0,0.0,0.0,0.0,0.0,0.0,0.0,0.0,0.0,0.0,0.0,0.0,0.0,0.0,0.0,0.0,0.0,0.0,0.0,0.0,0.0,0.0,0.0,1.3042,1.3857,1.5499,0.0,0.0,0.0,0.0,0.0,0.0,0.0,0.0,0.0,0.0,1.9845,2.0147,2.002,2.001,2.0279,2.0272,2.0288,2.0541,2.0914,2.1182,2.1057,0.0,0.0,0.0,0.0,0.0,0.0,0.0,0.0,0.0,0.0,0.0,0.0,0.0,0.0,0.0,0.0,0.0,0.0,0.0,0.0,0.0,0.0,0.0,0.0,0.0,0.0,0.0,0.3053,0.0,0.0,0.305,0.0,0.0,0.0,0.0,0.0,0.0,0.0,0.0,0.0,0.0,0.0,0.0,0.0,0.0,0.0,0.0,0.0,0.0,0.0,0.0,0.0,0.0,0.6798,0.757,0.8636,0.9106,0.9008,0.8586,0.815,0.7723,0.7568,0.7348,0.7104,0.0,0.0,0.0,0.0,0.0,0.0,0.0,0.0,0.0,0.0,0.0,0.0,0.0,0.0,0.0,0.0,0.0,0.0,0.0,0.0,0.0,0.0,0.0,0.0,0.0,0.0,1.2204,1.3406,1.5045,0.0,0.0,0.0,0.0,0.0,0.0,0.0,0.0,0.0,1.9818,2.0619,2.1336,2.1879,2.1387,2.1036,2.1094,2.0518,2.0066,2.0147,2.098,2.167,0.0,0.0,0.0,0.0,0.0,0.0,0.0,0.0,0.0,0.0,0.0,0.0,0.0,0.0,0.0,0.0,0.0,0.0,0.0,0.0,0.0,0.0,0.0,0.0,0.0,0.0,0.0,0.2931,0.3459,0.0,0.0,0.0,0.0,0.0,0.0,0.0,0.0,0.0,0.0,0.0,0.4853,0.5022,0.0,0.0,0.0,0.0,0.0,0.0,0.0,0.0,0.0,0.0,0.0,0.0,0.6792,0.75,0.8585,0.9211,0.9256,0.8685,0.8315,0.8156,0.7735,0.7506,0.7568,0.0,0.0,0.0,0.0,0.0,0.0,0.0,0.0,0.0,0.0,0.0,0.0,0.0,0.0,0.0,0.0,0.0,0.0,0.0,0.0,0.0,0.0,0.0,0.0,0.0,1.436,0.0,0.0,0.0,0.0,0.0,0.0,0.0,0.0,0.0,0.0,2.0888,2.1652,2.1877,2.2263,2.2567,2.2718,2.2675,2.2588,0.0,0.0,0.0,0.0,0.0,0.0,0.0,0.0,0.0,0.0,0.0,0.0,0.0,0.0,2.5624,2.5977,2.5153,2.4366,2.4382,0.0,0.0,0.0,0.0,0.0,0.0,0.0,0.0,0.0,0.0,0.0,0.0,0.0,0.0,0.361,0.401,0.3859,0.0,0.0,0.0,0.0,0.0,0.0,0.0,0.0,0.5271,0.5552,0.5946,0.595,0.5891,0.5778,0.5946,0.5922,0.0,0.0,0.0,0.0,0.0,0.0,0.0,0.0,0.7209,0.7694,0.8639,0.9211,0.9263,0.8837,0.8527,0.8421,0.8002,0.7923,0.8268,0.8009,0.8021,0.0,0.0,0.0,0.0,0.0,0.0,0.0,0.0,0.0,0.0,0.0,0.0,0.0,0.0,0.0,0.0,0.0,0.0,0.0,0.0,0.0,0.0,0.0,1.5537,0.0,0.0,0.0,0.0,0.0,0.0,0.0,0.0,0.0,2.1609,2.2319,2.2979,2.3222,2.348,2.3655,2.3797,0.0,0.0,0.0,0.0,0.0,0.0,0.0,2.4342,2.4106,2.4404,2.4622,2.4638,2.5504,2.6123,2.5903,0.0,0.0,2.6587,2.6031,2.554,2.554,2.5637,2.5686,2.5684,2.5924,2.6118,0.0,0.0,0.0,0.0,0.3091,0.0,0.0,0.0,0.3934,0.4217,0.0,0.4201,0.0,0.0,0.0,0.0,0.5281,0.4994,0.0,0.0,0.6136,0.6475,0.6977,0.6987,0.7047,0.6987,0.6351,0.6452,0.7238,0.6879,0.0,0.0,0.0,0.0,0.0,0.0,0.8007,0.8169,0.8865,0.9134,0.9102,0.9049,0.8884,0.8513,0.8359,0.8572,0.9194,0.8698,0.8546,0.9079,0.8728,0.0,0.0,0.0,0.0,0.0,0.0,0.0,0.0,0.0,0.0,0.0,0.0,0.0,0.0,0.0,0.0,0.0,0.0,0.0,0.0,1.5834,0.0,0.0,0.0,0.0,0.0,0.0,0.0,0.0,0.0,2.3563,2.2849,2.3033,2.3374,2.3891,0.0,0.0,0.0,0.0,2.4321,2.4426,2.3794,2.3358,2.3358,2.429,2.5059,2.5043,0.0,0.0,2.6555,2.6572,2.6572,2.6503,2.652,2.6537,2.6674,2.6623,2.6537,2.6554,2.6553,2.6605,2.6589,2.659,2.6674,0.3702,0.0,0.0,0.0,0.0,0.3535,0.3901,0.4181,0.4365,0.4703,0.5128,0.4973,0.0,0.0,0.0,0.0,0.0,0.0,0.512,0.5555,0.537,0.5481,0.5845,0.5974,0.6045,0.6045,0.6351,0.691,0.7666,0.7896,0.748,0.6381,0.0,0.0,0.0,0.0,0.8075,0.8729,0.9279,0.9707,0.9981,0.9827,0.9651,0.9518,0.9518,0.9806,1.0468,1.0571,1.0629,1.0553,1.08,0.0,0.0,0.0,0.0,0.0,0.0,0.0,0.0,0.0,0.0,0.0,0.0,0.0,0.0,0.0,0.0,0.0,0.0,0.0,1.65,1.7421,1.8252,0.0,0.0,0.0,0.0,0.0,0.0,0.0,0.0,0.0,2.4989,2.4879,2.497,0.0,0.0,2.5384,2.5551,2.5704,2.5768,2.5553,2.5587,0.0,2.5681,2.5932,2.6048,2.5841,2.6077,2.6297,2.6262,2.6487,2.6674,2.664,2.664,2.6674,2.6657,2.6657,2.6606,2.6623,2.664,2.6657,2.6674,2.6691,2.6708,0.4752,0.4244,0.3978,0.3932,0.3981,0.4216,0.4551,0.4869,0.5102,0.5339,0.5567,0.5563,0.5567,0.5563,0.5438,0.0,0.0,0.0,0.5385,0.5836,0.5665,0.5836,0.6242,0.6587,0.6813,0.6822,0.7239,0.7882,0.8699,0.8765,0.8451,0.7854,0.0,0.8123,0.7683,0.8312,0.8915,0.9419,0.9709,1.0066,1.0473,1.0308,1.0365,1.0572,1.0408,1.058,1.1269,1.1523,1.1542,1.1464,1.176,1.19,0.0,0.0,0.0,0.0,0.0,0.0,0.0,0.0,0.0,0.0,0.0,1.4637,1.4335,0.0,0.0,0.0,1.6657,1.7164,1.8418,1.906,0.0,0.0,0.0,0.0,0.0,0.0,0.0,2.3736,2.45,2.5237,2.5721,2.5615,2.5668,2.6132,2.5901,2.5775,2.601,0.0,2.6468,2.6279,2.6486,2.6657,2.6708,2.6691,2.6572,2.6383,2.6315,2.635,2.635,2.6539,2.6691,2.6708,2.6708,2.6708,2.6708,2.6674,2.6623,2.6623,2.6674,2.6708,2.6708,2.6708,2.6708,0.555,0.5512,0.4975,0.4914,0.5191,0.525,0.5506,0.5888,0.5888,0.5888,0.5888,0.5888,0.5888,0.588,0.56,0.0,0.5884,0.56,0.5898,0.6644,0.6648,0.6947,0.7547,0.8156,0.8522,0.8587,0.8605,0.91,0.9951,0.934,0.9214,0.957,0.9965,0.9693,0.8893,0.9641,1.0073,1.0112,1.017,1.035,1.0667,1.0718,1.0997,1.1518,1.1134,1.1249,1.1938,1.1876,1.185,1.1968,1.2212,1.2279,1.2271,0.0,0.0,0.0,0.0,0.0,0.0,0.0,0.0,0.0,0.0,0.0,0.0,0.0,0.0,1.8443,1.9721,0.0,2.1067,2.0647,0.0,0.0,0.0,2.3495,2.3319,2.3782,2.4063,2.4147,0.0,0.0,2.554,2.5556,2.5721,2.6151,2.5917,2.5901,2.6364,2.652,2.6589,2.6607,2.6657,2.6708,2.6708,2.6691,2.6708,2.6657,2.6708,2.6657,2.6674,2.6691,2.6708,2.6708,2.6708,2.6708,2.6708,2.6708,2.6708,2.6691,2.6708,2.6708,2.6708,2.6708,2.6691,0.5425,0.5415,0.5312,0.5265,0.5344,0.5651,0.5724,0.5703,0.5828,0.5888,0.5888,0.5888,0.5888,0.5888,0.5783,0.5848,0.5888,0.5843,0.5903,0.6065,0.6065,0.6418,0.7081,0.7355,0.7798,0.8299,0.8482,0.892,0.9617,0.9485,0.9711,1.0295,1.0425,0.9991,0.9096,0.9676,1.0096,1.0485,1.0664,1.0905,1.1319,1.1578,1.1943,1.2237,1.2426,1.2718,1.3313,1.3391,1.3502,1.369,1.3877,1.3927,1.3927,1.3544,0.0,0.0,0.0,0.0,0.0,0.0,0.0,0.0,0.0,1.7132,1.6573,0.0,1.8953,0.0,2.0377,2.0975,2.0509,2.1387,0.0,0.0,2.3152,2.3481,2.3509,2.3625,2.3909,2.4623,2.4902,2.5329,2.6013,2.6046,2.6115,2.6241,2.5957,2.5775,2.6043,2.6364,2.6486,2.626,2.6487,2.6657,2.6657,2.6674,2.6708,2.6708,2.6708,2.6708,2.6708,2.6708,2.6708,2.6708,2.6708,2.6708,2.6708,2.6708,2.6708,2.6708,2.6708,2.6708,2.6708,2.6708,2.6725,0.5428,0.5428,0.5428,0.5339,0.5265,0.5592,0.5826,0.5864,0.5994,0.6061,0.6124,0.6128,0.6124,0.6128,0.6124,0.6124,0.6124,0.6438,0.6617,0.6621,0.6924,0.7236,0.7613,0.8038,0.8411,0.8794,0.9191,0.9652,0.997,0.9977,1.0168,1.0555,1.0618,1.0349,0.9874,1.014,1.0504,1.08,1.1045,1.1316,1.1615,1.1941,1.2243,1.249,1.2797,1.3224,1.3761,1.395,1.4079,1.4267,1.4396,1.4515,1.4515,1.4569,1.4657,0.0,0.0,0.0,0.0,0.0,0.0,0.0,0.0,0.0,0.0,0.0,1.9956,2.0139,2.1336,2.1862,2.1329,2.2366,2.3065,2.3113,2.3319,2.3541,2.3566,2.3894,2.4313,2.4823,2.5253,2.5705,2.6225,2.6293,2.6293,2.6399,2.6206,2.6082,2.6134,2.6452,2.6589,2.6349,2.6521,2.6708,2.664,2.6674,2.6708,2.6708,2.6708,2.6708,2.6708,2.6708,2.6708,2.6708,2.6708,2.6708,2.6708,2.6708,2.6708,2.6708,2.6742,2.6758,2.6691,2.6725,2.6825,0.5428,0.5428,0.5428,0.5281,0.5169,0.5429,0.5793,0.6082,0.6082,0.6229,0.6384,0.647,0.6548,0.6548,0.6613,0.6679,0.6679,0.7326,0.7652,0.7652,0.8231,0.849,0.8554,0.9069,0.939,0.9518,1.0168,1.0491,1.0618,1.0618,1.0618,1.0618,1.0624,1.0681,1.0807,1.087,1.0989,1.1185,1.1435,1.1622,1.1622,1.1941,1.2243,1.2482,1.2858,1.3285,1.3838,1.395,1.4079,1.4327,1.4455,1.4515,1.4515,1.501,1.5294,0.0,1.5921,0.0,0.0,0.0,0.0,0.0,0.0,0.0,0.0,2.0435,2.0835,2.1188,2.2175,2.2785,2.2754,2.3246,2.3595,2.3595,2.3595,2.3595,2.3638,2.4297,2.4744,2.4823,2.5556,2.6049,2.6137,2.6173,2.6225,2.6277,2.6277,2.6241,2.6295,2.6504,2.6691,2.6708,2.6708,2.6674,2.6691,2.6708,2.6708,2.6708,2.6708,2.6708,2.6708,2.6708,2.6708,2.6708,2.6708,2.6708,2.6708,2.6708,2.6691,2.6725,2.6808,2.6842,2.6775,2.6808,2.6909,0.5428,0.5428,0.5428,0.5411,0.5387,0.5415,0.5413,0.5424,0.5674,0.5934,0.6273,0.7001,0.733,0.733,0.7847,0.8107,0.8102,0.8226,0.8296,0.8301,0.842,0.849,0.849,0.8619,0.9,0.9454,0.9652,1.0034,1.0618,1.0618,1.0618,1.0618,1.0681,1.0807,1.0807,0.0,0.0,0.0,1.1567,1.1622,1.1622,1.212,1.2421,1.2482,1.3086,0.0,1.395,1.4001,1.4139,1.4446,1.4515,0.0,0.0,0.0,0.0,0.0,0.0,0.0,0.0,0.0,0.0,0.0,1.967,1.9786,1.9991,2.0435,2.0898,2.1313,2.1908,2.242,2.283,2.329,2.3595,2.3595,2.3595,2.3595,2.3595,2.3767,2.4006,2.4461,2.4664,2.4965,2.5535,2.5481,2.5497,2.5684,2.561,2.5659,2.5852,2.6347,2.6691,2.6725,2.6674,2.6657,2.6708,2.6708,2.6708,2.6708,2.6708,2.6708,2.6708,2.6708,2.6708,2.6708,2.6708,2.6708,2.6708,2.6708,2.6742,2.6825,2.6893,2.6876,2.6876,2.694,2.6989,0.5428,0.5428,0.5428,0.5318,0.0,0.5247,0.5185,0.5046,0.5571,0.6002,0.6351,0.6767,0.6937,0.6999,0.7219,0.7364,0.7359,0.7568,0.7762,0.7863,0.818,0.8371,0.849,0.8812,0.9128,0.9518,0.9849,1.0231,1.0555,1.0618,1.0618,1.0618,1.0744,1.0863,1.0933,1.1303,1.149,1.1622,1.1622,1.1685,1.1872,1.2243,1.2613,1.2736,1.3216,0.0,0.0,0.0,0.0,0.0,0.0,0.0,0.0,1.569,0.0,1.6255,1.6549,1.7224,1.8267,1.8536,1.9056,1.994,2.022,2.0422,2.0459,2.097,2.1471,2.1921,2.2374,2.2889,2.329,2.3508,2.361,2.3696,2.3638,2.3638,2.3696,2.3824,2.4188,2.4704,2.4981,2.5329,2.5905,2.5957,2.5941,2.6049,2.6013,2.5908,2.5865,2.6144,2.6453,2.664,2.6674,2.6657,2.6708,2.6708,2.6691,2.6708,2.6708,2.6708,2.6708,2.6708,2.6708,2.6708,2.6708,2.6708,2.6775,2.6792,2.6825,2.6909,2.6975,2.699,2.7007,2.7038,2.7036,0.5428,0.5428,0.5428,0.5287,0.5172,0.5169,0.5104,0.5071,0.5614,0.0,0.0,0.6535,0.6613,0.6601,0.6574,0.6633,0.6619,0.7021,0.7338,0.7621,0.8183,0.8543,0.8678,0.9256,0.9518,0.9518,1.0104,1.0491,1.0555,1.0618,1.0618,1.0624,1.0744,1.0933,1.1122,1.1428,1.1622,1.1685,1.163,1.1809,1.2127,1.2367,1.2674,1.3042,1.3329,1.3692,1.407,1.401,1.441,1.5352,1.542,1.569,1.6255,1.6754,1.709,1.7202,1.7678,1.8236,1.8851,1.921,1.9617,2.0105,2.0485,2.0762,2.0947,2.1361,2.1888,2.242,2.2889,2.3363,2.3782,2.3754,2.3696,2.3839,2.3739,2.3696,2.3839,2.4094,2.441,2.4958,2.523,2.5684,2.603,2.6082,2.6208,2.621,2.6013,2.6108,2.5861,2.6044,2.6385,2.6624,2.6708,2.6691,2.6573,2.6573,2.659,2.6539,2.6505,2.6539,2.6641,2.6657,2.6624,2.6742,2.6742,2.6792,2.6893,2.6926,2.6942,2.7007,2.7208,2.7291,2.7341,2.7493,2.756,0.5428,0.5428,0.5428,0.5415,0.5328,0.5394,0.5377,0.5477,0.5653,0.593,0.6256,0.7057,0.7326,0.7391,0.7936,0.8184,0.8179,0.8212,0.8601,0.914,0.9267,0.9354,0.9326,0.9454,0.9518,0.9518,0.9652,0.9977,1.0555,1.0618,1.0618,1.0624,1.0751,1.0989,1.124,1.1303,1.156,1.1996,1.1747,1.1864,1.2421,1.2482,1.2728,1.3208,1.345,1.3761,1.4198,1.4079,1.4419,1.5352,1.542,1.569,1.6255,1.6425,1.6641,1.7146,1.7268,1.7875,1.921,1.9356,1.9733,2.0498,2.0662,2.0699,2.0749,2.0997,2.1458,2.2221,2.2663,2.3113,2.3839,2.394,2.394,2.3982,2.3982,2.394,2.3982,2.4024,2.4151,2.44,2.44,2.4508,2.4815,2.4799,2.4839,2.4719,2.5036,2.4808,2.5233,2.5947,2.6573,2.6691,2.6708,2.6556,2.635,2.621,2.6262,2.6175,2.598,2.6068,2.6607,2.6572,2.6536,2.6843,2.6944,2.7011,2.7077,2.6992,2.7127,2.7259,2.7736,2.8147,2.8247,2.8743,2.8925,0.5428,0.5428,0.5428,0.5428,0.5428,0.5428,0.5491,0.5609,0.5607,0.5773,0.6039,0.6445,0.6609,0.6666,0.7274,0.7541,0.7536,0.7918,0.8302,0.8668,0.8794,0.8868,0.8994,0.9326,0.9518,0.9518,0.9518,0.9913,1.0498,1.0168,1.0168,1.0624,1.0807,1.1052,1.131,1.156,1.1926,1.2305,1.1996,1.2182,1.2736,1.2797,1.3033,1.3519,1.364,1.389,1.4276,1.4207,1.4715,1.5853,1.5911,1.6312,1.7224,1.7279,1.739,1.7667,1.7941,1.8441,1.9368,1.9836,2.0347,2.0848,2.0848,2.0947,2.1082,2.1375,2.1888,2.2649,2.3009,2.3436,2.4024,2.4024,2.4024,2.4124,2.4067,2.4024,2.4082,2.4024,2.4151,2.4492,2.4549,2.4614,2.4902,2.4942,2.4942,2.4942,2.4942,2.502,2.5176,2.5652,2.6139,2.6315,2.6367,2.6419,2.6401,2.6419,2.6419,2.6419,2.6332,2.6418,2.6792,2.6894,2.7283,2.7488,2.7641,2.7862,2.8152,2.8066,2.8065,2.8405,2.8762,2.9105,2.9225,2.9516,2.9445,0.5428,0.5428,0.5428,0.5428,0.5428,0.5428,0.5425,0.5554,0.555,0.562,0.5756,0.5822,0.5892,0.5943,0.6398,0.6591,0.6633,0.7173,0.7562,0.7892,0.8022,0.818,0.8538,0.9069,0.9326,0.9454,0.9518,0.9907,1.0428,1.004,1.0034,1.0618,1.0933,1.1178,1.1428,1.1809,1.2243,1.2552,1.2428,1.256,1.3103,1.305,1.3285,1.3769,1.389,1.413,1.4497,1.4606,1.5167,1.6425,1.6528,1.6989,1.8084,1.815,1.8096,1.8205,1.8583,1.9011,1.9512,2.0233,2.0799,2.0997,2.0997,2.1131,2.1471,2.1841,2.231,2.2844,2.3246,2.3653,2.404,2.4067,2.4109,2.4208,2.4124,2.4109,2.4208,2.4124,2.4219,2.4679,2.4719,2.4799,2.5137,2.5237,2.516,2.5121,2.5237,2.5237,2.5237,2.5253,2.5465,2.5799,2.5961,2.6104,2.6418,2.6487,2.647,2.6556,2.6741,2.6927,2.7199,2.7794,2.8237,2.8357,2.851,2.8801,2.9317,2.9179,2.9093,2.9434,2.9828,3.0189,3.0466,3.0501,3.0326,0.5428,0.5428,0.5428,0.5428,0.5428,0.5428,0.5428,0.5428,0.5428,0.5425,0.5495,0.576,0.5892,0.5888,0.6129,0.6244,0.631,0.6437,0.695,0.7543,0.7558,0.7887,0.8484,0.8613,0.8941,0.9454,0.9518,0.9907,1.0561,1.0491,1.0618,1.0744,1.0807,1.1178,1.1677,1.1802,1.2174,1.292,1.292,1.3103,1.339,1.3172,1.3346,1.3941,1.407,1.4538,1.5235,1.5391,1.6005,1.6968,1.709,1.749,1.8247,1.8205,1.8205,1.8367,1.8637,1.9158,1.9901,2.0422,2.0812,2.0997,2.1046,2.1229,2.1725,2.2063,2.2282,2.2526,2.2994,2.348,2.3782,2.4094,2.4276,2.4276,2.4276,2.4276,2.4322,2.4261,2.4302,2.4328,2.4431,2.4385,2.4492,2.4492,2.4451,2.4533,2.4574,2.4558,2.4574,2.4695,2.4918,2.5253,2.5594,2.5758,2.5832,2.5941,2.612,2.617,2.6557,2.7078,2.7653,2.8247,2.8749,2.9196,2.9437,2.9627,2.9763,2.9723,2.9843,3.0223,3.0725,3.1315,3.2049,3.2137,3.1888,0.5428,0.5428,0.5428,0.5428,0.5428,0.5491,0.5491,0.5428,0.5627,0.5624,0.5557,0.5822,0.5822,0.5752,0.6276,0.6539,0.6666,0.7195,0.7587,0.7977,0.8425,0.8812,0.9134,0.9588,0.9907,1.0098,0.9716,0.9843,1.0491,1.0681,1.0744,1.08,1.0989,1.1373,1.1809,1.205,1.2482,1.2981,1.3155,1.3398,1.3649,1.3528,1.3649,1.401,1.4478,1.4951,1.541,1.5796,1.6348,1.7146,1.7213,1.7545,1.8356,1.8313,1.8313,1.8422,1.904,1.9798,2.0759,2.1033,2.1377,2.1947,2.1662,2.1801,2.247,2.2555,2.2701,2.3094,2.3437,2.3754,2.4067,2.4219,2.4302,2.4302,2.4302,2.4456,2.4872,2.4548,2.4441,2.4795,2.4548,2.4317,2.4302,2.4302,2.4302,2.4302,2.4302,2.4359,2.4467,2.4549,2.4791,2.5146,2.5416,2.5626,2.5864,2.6046,2.6118,2.6234,2.6713,2.7398,2.7727,2.869,2.9454,2.9932,3.0468,3.087,3.1306,3.1339,3.1442,3.1491,3.1626,3.2186,3.2705,3.259,3.2378,0.5463,0.5439,0.5473,0.5557,0.5561,0.573,0.5748,0.5684,0.5958,0.5929,0.5755,0.5892,0.5992,0.6075,0.6408,0.6605,0.6798,0.7386,0.7847,0.8037,0.8683,0.9069,0.9262,0.9716,1.0104,1.0174,0.9779,0.9907,1.0624,1.0807,1.0863,1.0989,1.1247,1.1622,1.1988,1.2428,1.2797,1.3103,1.3459,1.364,1.3769,1.389,1.3959,1.413,1.4874,1.54,1.5633,1.6322,1.6933,1.7435,1.749,1.7831,1.841,1.8464,1.863,1.9126,1.9868,2.0758,2.1848,2.1925,2.2201,2.2857,2.2525,2.2561,2.2957,2.3008,2.323,2.3749,2.4015,2.4258,2.4612,2.4645,2.4656,2.4825,2.4733,2.481,2.5152,2.4841,2.4702,2.4948,2.4764,2.4487,2.4348,2.4302,2.4317,2.4385,2.4385,2.4467,2.467,2.4766,2.4926,2.5256,2.5333,2.5584,2.6026,2.6134,2.617,2.6599,2.7155,2.8,2.8104,2.934,3.0251,3.0879,3.162,3.1886,3.1812,3.2109,3.2387,3.2472,3.2537,3.2669,3.2852,3.2639,3.2669,0.5494,0.5463,0.5719,0.5917,0.5924,0.6276,0.6343,0.6321,0.6407,0.6339,0.6276,0.6268,0.6578,0.7077,0.6705,0.628,0.6342,0.6609,0.7064,0.7587,0.7722,0.7977,0.8554,0.8619,0.9,0.9716,0.9709,1.0028,1.0807,1.0989,1.1185,1.1303,1.1615,1.1988,1.2421,1.2797,1.3155,1.345,1.364,1.3821,1.383,1.4139,1.4327,1.4378,1.5167,1.5796,1.6275,1.7134,1.7778,1.8041,1.8262,1.8457,1.8607,1.8661,1.9305,2.0608,2.1303,2.2085,2.2983,2.3155,2.3313,2.3589,2.3529,2.3464,2.3308,2.354,2.3891,2.4277,2.4642,2.5062,2.5652,2.5509,2.5549,2.6026,2.5626,2.5364,2.5364,2.5395,2.4979,2.4718,2.4887,2.481,2.4379,2.4302,2.4385,2.4508,2.4589,2.4686,2.4926,2.5123,2.524,2.5317,2.5486,2.5691,2.5937,2.599,2.6225,2.6634,2.7477,2.8898,2.9797,3.0541,3.1124,3.1514,3.1596,3.1726,3.1913,3.2144,3.2369,3.2555,3.2737,3.2884,3.283,3.2948,3.2957,0.5768,0.5863,0.599,0.6079,0.6294,0.7057,0.7011,0.652,0.7783,0.7887,0.7482,0.7966,0.8398,0.8591,0.8323,0.8033,0.7722,0.7712,0.7907,0.8166,0.8619,0.8941,0.9128,0.9588,0.9977,1.0288,1.0358,1.0548,1.0989,1.1365,1.156,1.1677,1.205,1.2421,1.2797,1.292,1.3164,1.3511,1.37,1.383,1.3959,1.4538,1.4893,1.501,1.568,1.6273,1.6815,1.7864,1.8714,1.9218,1.9298,1.9457,1.9728,2.0108,2.0765,2.1701,2.226,2.2891,2.3654,2.3812,2.403,2.4469,2.4161,2.4091,2.4295,2.4552,2.4872,2.5375,2.5681,2.6291,2.6963,2.6627,2.6087,2.6272,2.618,2.6164,2.6441,2.6272,2.5872,2.552,2.5164,2.4548,2.441,2.4302,2.4385,2.4549,2.4574,2.4791,2.5084,2.5256,2.5333,2.5464,2.554,2.5691,2.5954,2.5844,2.5926,2.6385,2.7147,2.8172,2.9104,3.0217,3.0908,3.1664,3.1677,3.177,3.2092,3.247,3.2621,3.2537,3.277,3.2898,3.2759,3.2934,3.2952,0.6008,0.631,0.668,0.6817,0.711,0.8096,0.8192,0.7689,0.8985,0.9164,0.8679,0.9166,0.9552,0.9689,0.9753,0.965,0.919,0.8838,0.8734,0.8984,0.9426,0.9709,0.9964,1.0485,1.0814,1.0933,1.1052,1.1178,1.1373,1.1802,1.205,1.205,1.2421,1.2736,1.2981,1.3164,1.3398,1.364,1.383,1.4063,1.4333,1.489,1.5371,1.5684,1.6222,1.6874,1.7408,1.8527,1.9356,1.9796,1.9948,2.0181,2.0746,2.1288,2.2018,2.2829,2.3392,2.3937,2.4563,2.4657,2.484,2.5205,2.491,2.4864,2.5005,2.5171,2.557,2.6041,2.6419,2.7056,2.7856,2.7565,2.7042,2.6995,2.6842,2.6888,2.7272,2.678,2.6348,2.5914,2.5064,2.4534,2.4508,2.4508,2.463,2.4791,2.4831,2.5005,2.5294,2.541,2.5426,2.5578,2.56,2.5696,2.5864,2.5807,2.5954,2.6399,2.6891,2.7748,2.8653,2.9805,3.0729,3.1524,3.1951,3.2092,3.2366,3.2752,3.277,3.2636,3.277,3.2997,3.2965,3.3023,3.3006,0.6204,0.6685,0.7729,0.8024,0.819,0.9155,0.9793,0.9541,0.9777,0.9643,0.9348,0.9628,0.995,1.0393,1.0621,1.0761,1.0629,0.9729,0.9472,0.9971,0.9882,1.0232,1.0819,1.1037,1.1164,1.127,1.1652,1.1832,1.1909,1.229,1.253,1.2575,1.2805,1.3066,1.3058,1.3527,1.3813,1.39,1.4177,1.4529,1.4878,1.5365,1.5753,1.6138,1.6932,1.7584,1.8057,1.9052,1.9726,1.9936,2.0112,2.0574,2.1456,2.2095,2.2908,2.3987,2.4648,2.5275,2.5725,2.5753,2.5711,2.5781,2.5823,2.5514,2.5202,2.5426,2.5807,2.6238,2.6647,2.7213,2.8179,2.8321,2.8244,2.8304,2.7734,2.7457,2.7396,2.6872,2.6253,2.587,2.5222,2.4773,2.4902,2.4942,2.4966,2.5123,2.5201,2.5278,2.5486,2.5562,2.5616,2.56,2.5659,2.5754,2.5791,2.5828,2.6137,2.6482,2.7011,2.7661,2.8474,2.9482,3.0285,3.1057,3.1652,3.1812,3.2144,3.2519,3.2866,3.2866,3.3015,3.306,3.3037,3.3006,3.3127,0.6772,0.7022,0.7327,0.7929,0.8534,0.8898,0.9074,0.915,0.9669,0.9702,0.9579,0.9947,1.0716,1.1386,1.1584,1.1801,1.2148,1.1583,1.1201,1.0821,1.0712,1.0995,1.1542,1.1682,1.1881,1.2299,1.2557,1.2703,1.2767,1.3091,1.3279,1.3301,1.3342,1.3551,1.3842,1.4108,1.4232,1.4365,1.4872,1.5205,1.5423,1.6419,1.7033,1.7287,1.86,1.9383,1.9319,1.931,1.9727,2.0534,2.0712,2.1331,2.2414,2.3154,2.3861,2.4666,2.5273,2.5655,2.5837,2.5893,2.5893,2.5893,2.5893,2.5823,2.5694,2.5944,2.6335,2.6747,2.7195,2.7792,2.8415,2.8605,2.8573,2.8411,2.8211,2.8137,2.8062,2.7436,2.7099,2.7095,2.591,2.5226,2.544,2.5401,2.5187,2.5294,2.5333,2.541,2.5562,2.5659,2.568,2.568,2.5738,2.5828,2.5864,2.5937,2.6154,2.6378,2.6773,2.7344,2.8154,2.8791,2.9629,3.0638,3.1179,3.1706,3.2022,3.2435,3.2848,3.3011,3.306,3.3032,3.2961,3.3028,3.319,0.7118,0.733,0.7638,0.8169,0.8927,0.9231,0.9453,0.9679,1.0346,1.0426,1.0201,1.095,1.1558,1.2003,1.2305,1.2599,1.2879,1.2834,1.2501,1.206,1.182,1.1969,1.2308,1.2579,1.2781,1.3086,1.3362,1.3518,1.3526,1.3849,1.3978,1.4,1.3987,1.4176,1.4536,1.4753,1.4871,1.5034,1.535,1.5633,1.6039,1.7073,1.7823,1.8134,1.9248,1.9807,1.9668,1.9365,1.9784,2.0794,2.1318,2.2128,2.3289,2.3891,2.4509,2.5272,2.5784,2.6056,2.6002,2.6002,2.5948,2.5948,2.5948,2.6002,2.6042,2.6418,2.6864,2.7276,2.778,2.8253,2.8732,2.8826,2.8795,2.8668,2.8653,2.8607,2.8419,2.7879,2.749,2.7481,2.6681,2.6197,2.6086,2.603,2.5612,2.5583,2.5524,2.5562,2.5675,2.5754,2.5754,2.5791,2.5864,2.5917,2.5954,2.6046,2.6189,2.6322,2.6465,2.6989,2.764,2.7978,2.8609,3.0211,3.1098,3.1984,3.2413,3.2781,3.3152,3.3152,3.305,3.3172,3.3189,3.3225,3.3316,0.7183,0.7629,0.8322,0.8851,0.9296,0.9986,1.0513,1.1037,1.1477,1.1403,1.1329,1.2003,1.2445,1.2298,1.282,1.3185,1.3112,1.323,1.3469,1.345,1.3185,1.3059,1.3082,1.3442,1.3719,1.387,1.4131,1.4231,1.4231,1.4578,1.4784,1.4758,1.4794,1.4902,1.505,1.5328,1.5532,1.5541,1.5716,1.6019,1.6513,1.746,1.828,1.8702,1.9261,1.9632,1.9688,1.9722,2.0098,2.1117,2.1898,2.2809,2.3859,2.4279,2.4908,2.5948,2.6233,2.6233,2.6111,2.6111,2.6056,2.6002,2.6165,2.6165,2.6326,2.6826,2.7327,2.773,2.8189,2.8622,2.8967,2.9121,2.9121,2.9121,2.9121,2.8869,2.83,2.817,2.8108,2.7817,2.7522,2.7347,2.7016,2.6942,2.6613,2.6297,2.6138,2.6073,2.6008,2.6024,2.5914,2.5934,2.597,2.6007,2.6043,2.6134,2.6241,2.6256,2.6369,2.6745,2.7147,2.7431,2.7751,2.9329,3.0733,3.1749,3.2307,3.234,3.2733,3.2883,3.2997,3.3255,3.3393,3.3375,3.3379,0.7439,0.7557,0.8021,0.8703,0.9296,0.9679,1.0282,1.0812,1.0944,1.1174,1.1254,1.1761,1.2425,1.2945,1.339,1.376,1.4049,1.4194,1.4274,1.4394,1.4545,1.4355,1.4221,1.43,1.4522,1.4755,1.484,1.4926,1.4934,1.5154,1.5297,1.528,1.5235,1.5358,1.5686,1.5882,1.6024,1.6145,1.645,1.6975,1.7705,1.8461,1.9308,2.0068,2.0618,2.0817,2.0665,2.0807,2.1219,2.191,2.2621,2.3623,2.4654,2.4951,2.5412,2.6096,2.6286,2.6286,2.6286,2.6218,2.6233,2.6272,2.6563,2.6811,2.6864,2.7363,2.7864,2.8207,2.8479,2.8764,2.9243,2.9396,2.9486,2.9637,2.9486,2.93,2.9106,2.8854,2.8742,2.9097,2.8394,2.8119,2.8168,2.802,2.7683,2.7427,2.7049,2.6738,2.6709,2.6414,2.6352,2.6125,2.6043,2.6132,2.6168,2.6222,2.6258,2.6258,2.6378,2.6535,2.6852,2.7081,2.7434,2.8171,2.9368,3.0468,3.0677,3.0774,3.1446,3.2324,3.243,3.2495,3.3169,3.3415,3.3382,0.8241,0.8466,0.8922,0.9448,1.0051,1.0201,1.0651,1.1397,1.1607,1.1681,1.1983,1.2645,1.3084,1.3455,1.3897,1.4338,1.4776,1.4848,1.4927,1.515,1.5338,1.5259,1.5147,1.5121,1.5233,1.5446,1.5557,1.5532,1.5592,1.5739,1.5816,1.585,1.5783,1.5927,1.6251,1.6424,1.6686,1.7043,1.7377,1.7794,1.8388,1.9444,2.003,2.0628,2.1128,2.1365,2.1176,2.1272,2.1655,2.2221,2.2912,2.3774,2.4724,2.5287,2.5742,2.6312,2.6433,2.65,2.6379,2.6365,2.6379,2.6433,2.6826,2.7108,2.7363,2.7898,2.8543,2.8701,2.8951,2.9289,2.9531,2.9681,2.977,2.9814,2.9814,2.9726,2.9665,2.9442,2.9524,2.9632,2.9391,2.8854,2.9214,2.8829,2.85,2.8217,2.7861,2.7657,2.7542,2.7151,2.6792,2.6561,2.6396,2.6465,2.6358,2.6312,2.6382,2.6382,2.6619,2.6707,2.6962,2.7095,2.7044,2.7503,2.8323,2.9022,2.94,2.9859,3.0622,3.1255,3.142,3.1769,3.234,3.3002,3.304,0.9372,0.9744,1.034,1.087,1.1105,1.1335,1.1835,1.2492,1.3011,1.3164,1.3302,1.4194,1.4258,1.389,1.4489,1.4927,1.5275,1.5275,1.5497,1.5647,1.5797,1.5797,1.5788,1.5754,1.5737,1.5771,1.5991,1.6105,1.614,1.6237,1.6324,1.6341,1.648,1.6645,1.6748,1.6913,1.7482,1.7968,1.8237,1.8629,1.9217,2.0127,2.0685,2.0923,2.1237,2.1463,2.1488,2.1596,2.1922,2.2334,2.3027,2.3904,2.4567,2.5398,2.5892,2.6404,2.6645,2.6712,2.6592,2.6525,2.6486,2.6553,2.7071,2.7434,2.775,2.8543,2.9166,2.9257,2.9665,2.9814,2.9886,2.9902,2.9886,2.9946,3.0022,3.0022,2.9962,2.9989,3.0017,3.0017,3.0113,2.9903,2.9626,2.937,2.9263,2.9121,2.8748,2.8444,2.8295,2.8004,2.7561,2.7114,2.6982,2.6919,2.6678,2.64,2.6469,2.6504,2.691,2.7165,2.7489,2.7491,2.7019,2.7188,2.7967,2.8491,2.8802,2.9382,2.9905,3.0373,3.0712,3.0918,3.1196,3.1964,3.2294,1.019,1.0335,1.1156,1.1452,1.1755,1.2712,1.3237,1.3448,1.4049,1.4274,1.4338,1.484,1.4991,1.4911,1.5284,1.5576,1.5647,1.5647,1.5797,1.6,1.6061,1.607,1.614,1.607,1.5982,1.5903,1.6123,1.6281,1.643,1.6491,1.6533,1.6524,1.6811,1.689,1.7139,1.7658,1.8085,1.8499,1.8946,1.9651,2.0278,2.0685,2.1239,2.1655,2.1906,2.2005,2.2238,2.2637,2.3047,2.3361,2.3904,2.4697,2.5673,2.6244,2.6539,2.6645,2.6779,2.6779,2.6779,2.6712,2.6765,2.6937,2.763,2.8319,2.8432,2.9196,2.9782,2.9913,2.9973,3.0017,3.0103,2.9962,2.9978,3.0087,3.0162,3.0162,3.0162,3.0162,3.0189,3.0274,3.0316,3.0293,3.027,3.0187,3.0038,2.9947,2.9648,2.9268,2.9075,2.8899,2.8395,2.7935,2.7537,2.7408,2.6881,2.6636,2.6621,2.6791,2.7181,2.7743,2.8068,2.8163,2.7788,2.756,2.7574,2.8057,2.8657,2.8452,2.8909,2.9457,3.0016,3.027,3.0603,3.1187,3.1526,1.1607,1.1829,1.2712,1.3084,1.3157,1.3818,1.4258,1.4402,1.4697,1.4999,1.515,1.5426,1.5568,1.5638,1.585,1.5929,1.6,1.6,1.607,1.6202,1.6202,1.6202,1.6272,1.6333,1.6254,1.6088,1.6315,1.6482,1.6551,1.6603,1.666,1.6583,1.7123,1.7407,1.7552,1.8312,1.9135,1.9607,1.9933,2.059,2.1325,2.1526,2.1702,2.2173,2.2309,2.2482,2.298,2.3207,2.3846,2.4412,2.4867,2.5259,2.6014,2.6539,2.6779,2.6779,2.6884,2.6884,2.6884,2.6974,2.713,2.7408,2.8174,2.8638,2.9058,2.9722,3.006,3.0146,3.0146,3.0146,3.0189,3.014,3.014,3.0172,3.0307,3.029,3.0274,3.0274,3.0333,3.0359,3.0401,3.0576,3.0658,3.0634,3.0828,3.0662,3.0294,2.9962,3.0195,2.9945,2.9337,2.8821,2.8277,2.7798,2.715,2.6889,2.6824,2.7095,2.7554,2.8186,2.8763,2.8786,2.8722,2.8618,2.8576,2.834,2.8711,2.839,2.8308,2.8694,2.9258,2.9606,3.0002,3.0369,3.0656,1.3091,1.3462,1.4346,1.4713,1.4713,1.4784,1.4991,1.5213,1.5275,1.5505,1.5788,1.5867,1.5929,1.607,1.6132,1.6202,1.6281,1.6281,1.6272,1.6333,1.6342,1.6412,1.6482,1.6551,1.6542,1.6324,1.6533,1.6603,1.6673,1.6811,1.6849,1.6735,1.7639,1.8004,1.8127,1.9047,1.9998,2.0655,2.0985,2.1325,2.1925,2.2123,2.2247,2.2359,2.2653,2.2932,2.3458,2.3917,2.4439,2.5508,2.5742,2.5797,2.5974,2.6379,2.6846,2.6846,2.6951,2.7041,2.7041,2.713,2.7372,2.7898,2.8448,2.8966,2.9422,2.9897,3.0189,3.029,3.0274,3.0274,3.0248,3.0258,3.0274,3.029,3.0392,3.0434,3.0443,3.0443,3.0459,3.0459,3.0485,3.0634,3.0821,3.0902,3.1201,3.1355,3.0965,3.074,3.0965,3.0948,3.0352,2.9727,2.9198,2.8565,2.7947,2.7698,2.7584,2.7771,2.8129,2.88,2.9541,2.9919,3.0014,2.988,2.9769,2.9538,2.9336,2.9375,2.9179,2.8712,2.8807,2.9526,2.9692,2.9646,2.9848,1.4049,1.4418,1.4911,1.5133,1.5133,1.5434,1.5584,1.5655,1.5726,1.5797,1.6,1.6061,1.6132,1.6272,1.6272,1.6272,1.6342,1.6342,1.6412,1.6542,1.6542,1.6621,1.676,1.683,1.683,1.683,1.683,1.683,1.689,1.7019,1.7142,1.7269,1.8113,1.8522,1.8989,1.9901,2.0794,2.1198,2.1588,2.1987,2.2123,2.2259,2.2359,2.2531,2.2992,2.3518,2.4021,2.4768,2.5467,2.5879,2.6433,2.6659,2.6712,2.6884,2.6951,2.7003,2.7093,2.7196,2.7218,2.7218,2.7509,2.8027,2.8606,2.9166,2.9661,3.0087,3.0316,3.0443,3.0443,3.0443,3.0443,3.0426,3.0443,3.0485,3.0485,3.0584,3.0609,3.0651,3.0609,3.0568,3.0551,3.0675,3.0942,3.1162,3.1376,3.1603,3.1528,3.1376,3.1452,3.1462,3.1244,3.0668,3.0111,2.9434,2.878,2.8682,2.8636,2.8752,2.9113,2.9595,3.0328,3.1147,3.1341,3.0903,3.0784,3.0692,3.0531,3.0378,3.0015,2.9566,2.9569,2.9606,2.9423,2.931,2.9237,1.4776,1.4919,1.5355,1.5497,1.5505,1.5726,1.5859,1.5929,1.5929,1.607,1.6132,1.6202,1.6272,1.6412,1.6473,1.6482,1.6551,1.6621,1.6691,1.676,1.6751,1.689,1.7028,1.7038,1.7116,1.7185,1.7194,1.7194,1.7194,1.7638,1.7668,1.7982,1.8944,1.9695,1.9898,2.0859,2.1502,2.1788,2.1987,2.2247,2.2309,2.2371,2.2665,2.3173,2.3577,2.4137,2.4993,2.5439,2.6082,2.6539,2.6922,2.7093,2.7093,2.7144,2.7196,2.7159,2.7248,2.7423,2.7595,2.773,2.8158,2.8919,2.9257,2.9617,3.0027,3.0359,3.0485,3.051,3.0609,3.0609,3.0609,3.0634,3.0675,3.0708,3.0725,3.0766,3.079,3.0773,3.0773,3.0692,3.0733,3.0935,3.1235,3.1411,3.1603,3.1787,3.1932,3.1967,3.1932,3.1899,3.183,3.1463,3.087,3.0208,2.9578,2.9474,2.9525,2.9746,2.9895,3.0381,3.0854,3.147,3.167,3.1428,3.1462,3.1477,3.1411,3.1166,3.0789,3.0436,3.0186,2.9874,2.9305,2.8994,2.8975,1.5275,1.5346,1.5647,1.5797,1.5867,1.5867,1.6,1.614,1.6132,1.6272,1.6412,1.6412,1.6551,1.6682,1.6682,1.676,1.6908,1.6899,1.6968,1.6978,1.7047,1.7116,1.7245,1.7235,1.7314,1.7401,1.7461,1.747,1.7461,1.7842,1.8108,1.8502,1.9965,2.0699,2.0694,2.1522,2.2087,2.2247,2.2247,2.2309,2.2494,2.2848,2.3185,2.3859,2.415,2.4924,2.5837,2.6229,2.6616,2.6945,2.7181,2.7233,2.7299,2.7401,2.7386,2.7335,2.7386,2.771,2.8027,2.8207,2.8575,2.9483,2.9705,3.0027,3.0342,3.0485,3.0568,3.0609,3.0651,3.0733,3.0733,3.0814,3.0838,3.0855,3.0945,3.0979,3.0929,3.0912,3.0952,3.0912,3.0952,3.1095,3.1351,3.1657,3.1806,3.1896,3.2074,3.2231,3.2196,3.2299,3.2228,3.2038,3.1585,3.0889,3.0418,3.015,3.0304,3.0557,3.0585,3.0789,3.1196,3.162,3.1649,3.1689,3.1876,3.1898,3.1905,3.2019,3.1861,3.1476,3.079,3.0226,2.9738,2.9237,2.8975,1.5426,1.5735,1.5805,1.5929,1.607,1.607,1.6132,1.6272,1.6281,1.6491,1.6839,1.6839,1.6899,1.7028,1.6968,1.6899,1.6968,1.7107,1.7176,1.7176,1.7332,1.7401,1.7461,1.7295,1.7373,1.7529,1.7569,1.7569,1.7657,1.7852,1.8287,1.8885,1.9803,2.0493,2.1112,2.1854,2.2235,2.2359,2.2359,2.2494,2.28,2.3412,2.38,2.4355,2.5148,2.5946,2.6404,2.6721,2.7115,2.7167,2.7335,2.7401,2.7401,2.7524,2.7575,2.7575,2.7625,2.7795,2.8207,2.8432,2.8857,2.9705,2.9881,3.007,3.0426,3.0651,3.0733,3.0871,3.0871,3.0871,3.0871,3.0929,3.0929,3.0969,3.0986,3.1026,3.1009,3.1032,3.1032,3.1072,3.1072,3.1213,3.1389,3.1714,3.1968,3.2056,3.2179,3.2334,3.2468,3.2502,3.2716,3.2545,3.2294,3.1636,3.1307,3.1027,3.1024,3.133,3.1308,3.1285,3.161,3.1877,3.1765,3.1827,3.2122,3.2432,3.2607,3.2746,3.2838,3.232,3.1409,3.0766,3.0228,2.9714,2.92,1.578,1.6008,1.5929,1.607,1.6211,1.6211,1.6342,1.6621,1.6621,1.6839,1.7185,1.7254,1.7323,1.7314,1.7254,1.7254,1.7254,1.7314,1.7382,1.7382,1.7461,1.7539,1.7588,1.7501,1.7569,1.7725,1.7794,1.7862,1.7998,1.8643,1.9299,1.9562,2.0624,2.1463,2.1651,2.2111,2.2297,2.242,2.2604,2.2896,2.3365,2.3872,2.4496,2.5161,2.5946,2.6457,2.6893,2.7115,2.7335,2.7372,2.7488,2.7539,2.7539,2.7575,2.766,2.8027,2.7993,2.8271,2.8701,2.8966,2.9512,3.0011,3.0284,3.0468,3.0675,3.0773,3.0814,3.0855,3.0935,3.0952,3.0992,3.1049,3.1089,3.1089,3.1106,3.1089,3.1128,3.1112,3.1151,3.119,3.119,3.1291,3.1368,3.16,3.1787,3.186,3.2003,3.2248,3.2453,3.2619,3.2862,3.3099,3.2827,3.2444,3.2207,3.2002,3.1795,3.1969,3.1969,3.1987,3.2109,3.2214,3.2127,3.2248,3.2642,3.296,3.3232,3.3216,3.3122,3.2572,3.1953,3.1329,3.0705,3.0246,2.9787,1.6132,1.6202,1.6132,1.6272,1.6412,1.6412,1.6621,1.6968,1.7047,1.7254,1.7461,1.7529,1.7529,1.7529,1.7539,1.7461,1.747,1.7529,1.7529,1.7529,1.7598,1.7735,1.7725,1.7774,1.7784,1.8008,1.8357,1.8347,1.8731,1.9507,2.0226,2.0161,2.1135,2.1925,2.2235,2.2371,2.2494,2.2592,2.2848,2.3318,2.3872,2.4394,2.5217,2.5892,2.6496,2.6878,2.7335,2.7452,2.7524,2.7575,2.7575,2.7575,2.7575,2.776,2.7929,2.8304,2.8496,2.895,2.9287,2.9617,3.0097,3.051,3.0733,3.0733,3.0871,3.0912,3.0935,3.0975,3.1157,3.1196,3.1196,3.1291,3.1312,3.1329,3.1269,3.123,3.123,3.1269,3.123,3.119,3.119,3.119,3.1291,3.1428,3.1562,3.162,3.1823,3.2109,3.2317,3.2519,3.2781,3.3068,3.3006,3.2749,3.2666,3.2586,3.2519,3.2519,3.2519,3.2586,3.2666,3.2634,3.2535,3.2795,3.3093,3.3154,3.3232,3.3296,3.333,3.2958,3.254,3.1788,3.1182,3.0742,3.0386,1.6263,1.6542,1.6342,1.6403,1.6612,1.676,1.6968,1.7235,1.7392,1.752,1.7647,1.7716,1.7716,1.7647,1.7598,1.7529,1.7539,1.7647,1.7647,1.7725,1.7862,1.794,1.793,1.794,1.8008,1.8212,1.8714,1.9029,1.932,2.0409,2.0613,2.042,2.1388,2.1851,2.2235,2.2555,2.2726,2.2896,2.321,2.3721,2.4381,2.5063,2.5851,2.6443,2.7086,2.7509,2.7575,2.7575,2.7575,2.756,2.7625,2.7625,2.766,2.7993,2.8255,2.8575,2.9225,2.9645,2.9924,3.0027,3.0241,3.0593,3.0814,3.0895,3.0992,3.1015,3.1055,3.1173,3.1334,3.1545,3.1582,3.1657,3.1694,3.1657,3.16,3.1504,3.1466,3.1406,3.1368,3.123,3.1213,3.1291,3.1213,3.1351,3.1368,3.1428,3.1545,3.1823,3.2003,3.2196,3.2535,3.2781,3.2925,3.2894,3.2876,3.2844,3.2862,3.2894,3.2957,3.3019,3.3093,3.3032,3.2983,3.2983,3.3184,3.3214,3.3262,3.3458,3.357,3.3515,3.3091,3.2291,3.1801,3.1483,3.1088,1.6542,1.6751,1.683,1.689,1.695,1.7185,1.7382,1.751,1.7579,1.7725,1.7862,1.7862,1.7862,1.7862,1.7872,1.7803,1.7803,1.7872,1.7862,1.793,1.794,1.8008,1.8008,1.8144,1.8212,1.8674,1.9316,1.9768,1.9944,2.1049,2.1239,2.1302,2.1776,2.2235,2.2616,2.2726,2.2969,2.3271,2.3734,2.4292,2.5007,2.5728,2.6457,2.7063,2.7306,2.756,2.7575,2.756,2.756,2.7625,2.7675,2.7725,2.7825,2.8286,2.8638,2.8934,2.9673,3.0182,3.0468,3.0551,3.0692,3.0814,3.0975,3.1055,3.1095,3.1095,3.1151,3.1291,3.1487,3.1694,3.1714,3.1896,3.2074,3.2039,3.1932,3.1804,3.1731,3.1674,3.1674,3.1637,3.1524,3.1449,3.1389,3.1291,3.1252,3.1269,3.1389,3.1545,3.175,3.1967,3.2265,3.2619,3.2749,3.305,3.3081,3.3111,3.319,3.325,3.3309,3.3368,3.3437,3.3541,3.3494,3.3437,3.3361,3.3465,3.3597,3.3734,3.376,3.3687,3.3309,3.2691,3.2354,3.2201,3.1898,1.683,1.7116,1.7235,1.7304,1.7314,1.7451,1.7588,1.7706,1.7774,1.7852,1.8008,1.8008,1.8008,1.8008,1.8076,1.8076,1.8076,1.8144,1.8144,1.8212,1.8259,1.8327,1.8462,1.8721,1.911,1.9507,1.9977,2.0495,2.0707,2.1553,2.1877,2.2137,2.2543,2.2739,2.28,2.2982,2.315,2.345,2.391,2.4637,2.5398,2.596,2.6721,2.7269,2.7575,2.7625,2.7675,2.7675,2.7725,2.774,2.7806,2.784,2.8122,2.8479,2.8996,2.9496,2.9995,3.0535,3.0814,3.0952,3.0952,3.1072,3.1112,3.119,3.119,3.119,3.119,3.123,3.1487,3.175,3.1787,3.1986,3.2127,3.2074,3.1932,3.1823,3.1932,3.1932,3.2003,3.2039,3.1932,3.186,3.1787,3.1694,3.1504,3.1445,3.1406,3.1504,3.1617,3.1821,3.202,3.2351,3.2619,3.2957,3.328,3.3368,3.3426,3.3484,3.3541,3.3625,3.3726,3.3807,3.3807,3.368,3.3652,3.378,3.3834,3.3842,3.3842,3.3842,3.3489,3.3172,3.3222,3.3087,3.2797,1.7116,1.7461,1.7647,1.7588,1.7529,1.7647,1.7706,1.7784,1.7862,1.8008,1.8008,1.8008,1.8008,1.8066,1.8269,1.8462,1.8539,1.8607,1.8674,1.8721,1.911,1.9243,1.9441,1.9759,2.0009,2.0579,2.0985,2.1313,2.1616,2.2261,2.2702,2.2836,2.2957,2.303,2.2969,2.321,2.3403,2.3463,2.3819,2.4694,2.5412,2.596,2.6759,2.7306,2.7625,2.769,2.774,2.779,2.784,2.7905,2.7955,2.8039,2.8186,2.8935,2.9361,2.9585,3.0435,3.0878,3.1015,3.1032,3.1072,3.1151,3.119,3.119,3.119,3.119,3.119,3.123,3.1524,3.186,3.195,3.2021,3.2127,3.2179,3.2039,3.2039,3.2144,3.2214,3.2266,3.2317,3.2351,3.2368,3.2299,3.2196,3.1877,3.1674,3.1538,3.1538,3.1651,3.1746,3.193,3.2197,3.2537,3.2862,3.3202,3.3541,3.3698,3.3726,3.3726,3.378,3.3807,3.3807,3.3807,3.3807,3.3834,3.3834,3.386,3.386,3.3913,3.3947,3.3972,3.3839,3.3944,3.3877,3.3536,1.7254,1.7529,1.7647,1.7638,1.7657,1.7872,1.7862,1.793,1.794,1.8008,1.8008,1.8144,1.8212,1.8327,1.8844,1.9177,1.9243,1.9759,1.9824,1.9824,2.0074,2.0139,2.0268,2.0462,2.0835,2.1227,2.1678,2.2137,2.2457,2.2896,2.3078,2.321,2.333,2.333,2.333,2.345,2.3582,2.3865,2.4536,2.53,2.5797,2.6481,2.7122,2.756,2.7675,2.774,2.7806,2.789,2.7955,2.8054,2.8103,2.8235,2.8542,2.9287,2.9777,3.0081,3.0838,3.1095,3.1151,3.1151,3.1134,3.119,3.119,3.119,3.119,3.119,3.119,3.1252,3.1487,3.1804,3.1913,3.2144,3.2283,3.2454,3.242,3.2369,3.2437,3.247,3.2521,3.2537,3.2553,3.2619,3.2619,3.2634,3.2368,3.2144,3.1985,3.1802,3.1856,3.1819,3.1912,3.2144,3.2437,3.2766,3.3111,3.3437,3.3707,3.3753,3.378,3.3807,3.3807,3.3834,3.3834,3.3834,3.386,3.3887,3.3913,3.3965,3.4049,3.4099,3.4074,3.4099,3.4087,3.4093,3.4024,1.7043,1.7456,1.7504,1.7649,1.7833,1.7998,1.8066,1.8134,1.8337,1.8462,1.8529,1.8921,1.911,1.9299,1.9683,2.0009,2.0074,2.0473,2.0643,2.0707,2.0974,2.0974,2.1101,2.1302,2.1803,2.2063,2.231,2.2702,2.303,2.3198,2.3318,2.345,2.3641,2.3641,2.3641,2.37,2.3865,2.4261,2.4921,2.5522,2.6122,2.6774,2.7306,2.756,2.7725,2.7855,2.7905,2.8005,2.8103,2.8152,2.8299,2.851,2.8997,2.9467,2.9995,3.0493,3.0918,3.1134,3.119,3.119,3.119,3.119,3.119,3.123,3.1213,3.1252,3.1252,3.1368,3.1542,3.1694,3.1913,3.2179,3.2197,3.2318,3.2386,3.2335,3.2369,3.2369,3.2555,3.2603,3.2798,3.2862,3.2957,3.2939,3.2858,3.2634,3.2435,3.2248,3.2091,3.1948,3.1965,3.2179,3.2403,3.2716,3.3063,3.339,3.3606,3.378,3.3807,3.3807,3.386,3.3842,3.3842,3.3868,3.3895,3.3947,3.3991,3.4067,3.4099,3.4148,3.4148,3.4173,3.4216,3.4216,3.4216,1.6541,1.7288,1.7166,1.7484,1.8027,1.8337,1.8462,1.8405,1.9044,1.9365,1.9365,2.0139,2.0333,2.0515,2.076,2.0824,2.0951,2.1175,2.1227,2.1279,2.1667,2.1803,2.2125,2.2457,2.2628,2.2944,2.3198,2.3138,2.339,2.3509,2.3569,2.3628,2.3819,2.3936,2.3995,2.4112,2.4261,2.465,2.5258,2.5865,2.651,2.6826,2.7306,2.7575,2.779,2.789,2.7989,2.8152,2.825,2.8299,2.8411,2.87,2.909,2.9528,3.0011,3.0518,3.0998,3.1134,3.119,3.119,3.123,3.123,3.123,3.1252,3.1274,3.1312,3.1368,3.1423,3.1521,3.1711,3.1896,3.1804,3.1765,3.1894,3.202,3.2056,3.2091,3.2231,3.247,3.2669,3.2988,3.3142,3.335,3.3379,3.3214,3.3154,3.2952,3.289,3.2619,3.2091,3.2126,3.2249,3.2504,3.2749,3.3045,3.3361,3.3606,3.3807,3.3834,3.3834,3.3868,3.3895,3.3921,3.3947,3.3972,3.4023,3.4074,3.4099,3.4124,3.4173,3.4173,3.4197,3.4216,3.4216,3.4216,1.6577,1.7156,1.7307,1.7807,1.8613,1.942,1.942,1.9177,1.989,2.0268,2.0268,2.0579,2.0899,2.076,2.1404,2.1655,2.1916,2.2175,2.2445,2.2567,2.2506,2.2689,2.2884,2.3078,2.3271,2.333,2.3437,2.3569,2.3569,2.3688,2.3819,2.3819,2.3995,2.4287,2.4505,2.4677,2.4821,2.5147,2.5756,2.6297,2.6774,2.7203,2.7524,2.774,2.794,2.8039,2.8137,2.825,2.8348,2.8411,2.8411,2.87,2.9572,2.975,3.0097,3.0878,3.1134,3.119,3.119,3.1252,3.1291,3.1291,3.1346,3.1329,3.1351,3.1389,3.1445,3.15,3.1538,3.1691,3.1785,3.1728,3.1709,3.1802,3.1894,3.1894,3.1948,3.2002,3.2249,3.2537,3.2862,3.3172,3.3408,3.3578,3.3437,3.3494,3.3465,3.3379,3.3124,3.2553,3.2369,3.2504,3.2651,3.289,3.3075,3.3343,3.3606,3.3807,3.386,3.3887,3.3895,3.3947,3.3991,3.3998,3.4049,3.408,3.4148,3.4173,3.4173,3.4173,3.4216,3.4216,3.4216,3.4216,3.4216,1.6249,1.6997,1.71,1.7785,1.885,2.0083,2.0198,1.9909,2.0665,2.1112,2.1164,2.153,2.1717,2.1842,2.2359,2.2555,2.2555,2.2884,2.3078,2.3078,2.321,2.3258,2.3318,2.339,2.345,2.3509,2.3628,2.3688,2.3747,2.3878,2.4008,2.3995,2.4229,2.4607,2.4991,2.5384,2.5756,2.6014,2.639,2.6826,2.7255,2.7575,2.779,2.789,2.8088,2.8186,2.8235,2.8348,2.8411,2.8493,2.8493,2.9013,2.9793,3.0097,3.0452,3.1151,3.119,3.1213,3.1252,3.1274,3.1295,3.1389,3.1483,3.1466,3.1466,3.1504,3.1559,3.1614,3.1614,3.1651,3.1671,3.1671,3.1746,3.18,3.18,3.18,3.18,3.18,3.202,3.2318,3.2636,3.2957,3.3232,3.3484,3.3652,3.368,3.368,3.3625,3.3361,3.2921,3.2763,3.2844,3.2952,3.3105,3.3255,3.34,3.3689,3.3887,3.3939,3.3965,3.3972,3.3998,3.4049,3.4074,3.4105,3.4154,3.4197,3.4197,3.4216,3.4216,3.4216,3.4216,3.4216,3.4216,3.4216,1.592,1.7095,1.6977,1.786,1.8917,2.0402,2.076,2.0473,2.1343,2.1894,2.2017,2.2676,2.2917,2.2847,2.3125,2.3138,2.3138,2.3271,2.339,2.339,2.339,2.345,2.3509,2.3628,2.3641,2.3688,2.3747,2.3878,2.3949,2.4008,2.4067,2.4112,2.4505,2.4892,2.53,2.5906,2.639,2.6864,2.7071,2.7342,2.7675,2.7905,2.802,2.8054,2.8137,2.8235,2.8235,2.8299,2.8411,2.8573,2.8842,2.9303,2.9951,3.0576,3.1032,3.1168,3.119,3.1213,3.1274,3.1295,3.1406,3.15,3.1576,3.1596,3.1634,3.1617,3.1671,3.1726,3.1726,3.1726,3.1726,3.1746,3.18,3.18,3.18,3.18,3.18,3.1852,3.2031,3.2354,3.2739,3.3075,3.3476,3.3755,3.3852,3.3835,3.378,3.378,3.3634,3.3225,3.3136,3.3184,3.3196,3.3255,3.3372,3.356,3.3823,3.3991,3.4016,3.4023,3.4023,3.4074,3.4105,3.413,3.4173,3.4173,3.4216,3.4216,3.4216,3.4216,3.4216,3.4216,3.4216,3.4216,3.4216,1.6591,1.7908,1.8845,1.9482,1.9936,2.0773,2.123,2.1369,2.1594,2.1981,2.2401,2.2723,2.3056,2.3229,2.342,2.3386,2.339,2.3509,2.3569,2.3569,2.3569,2.3569,2.3641,2.376,2.3819,2.3878,2.3949,2.4008,2.4067,2.4067,2.4112,2.4112,2.4492,2.4921,2.5714,2.6322,2.6797,2.756,2.771,2.7775,2.7955,2.8088,2.8137,2.8186,2.8284,2.8348,2.8348,2.8348,2.8621,2.892,2.8997,2.9512,3.0293,3.0878,3.1151,3.119,3.123,3.1252,3.1312,3.1389,3.1483,3.1559,3.1671,3.1726,3.1763,3.1746,3.1746,3.18,3.18,3.18,3.18,3.18,3.18,3.18,3.1817,3.1817,3.1817,3.2009,3.2184,3.2574,3.2947,3.33,3.3723,3.3947,3.4,3.3953,3.3844,3.3807,3.386,3.3662,3.3447,3.3419,3.3361,3.3419,3.356,3.3698,3.3947,3.4049,3.4049,3.4074,3.4099,3.4124,3.4173,3.4173,3.4216,3.4216,3.4216,3.4216,3.4216,3.4216,3.4216,3.4216,3.4216,3.4216,3.4216,1.7207,1.8306,1.9637,2.0113,2.0067,2.0717,2.1046,2.0993,2.1074,2.1501,2.1997,2.2321,2.2674,2.3076,2.3244,2.3462,2.3492,2.37,2.37,2.376,2.3747,2.3806,2.3878,2.3936,2.3936,2.4008,2.4067,2.4125,2.4112,2.4112,2.4112,2.4319,2.4637,2.5287,2.6254,2.6625,2.7174,2.8039,2.8201,2.8201,2.8168,2.825,2.8299,2.8348,2.8348,2.8411,2.8411,2.846,2.8716,2.9182,2.9467,3.0107,3.0707,3.1117,3.1269,3.1308,3.1346,3.1385,3.1445,3.1466,3.1576,3.1723,3.1726,3.1834,3.18,3.1783,3.1783,3.18,3.18,3.18,3.18,3.18,3.18,3.18,3.1869,3.1903,3.2179,3.2472,3.2873,3.3377,3.3671,3.382,3.42,3.4577,3.4596,3.4415,3.4237,3.4062,3.406,3.3965,3.3815,3.3689,3.3643,3.3671,3.3805,3.391,3.403,3.4099,3.4099,3.4124,3.4148,3.4173,3.4216,3.4216,3.4216,3.4216,3.4216,3.4216,3.4216,3.4216,3.4216,3.4216,3.4234,3.429,3.4253,1.7765,1.8619,1.9883,2.0142,1.9768,2.0469,2.0549,2.0258,2.0476,2.0836,2.1289,2.1725,2.221,2.2583,2.2967,2.3257,2.3528,2.3754,2.3865,2.3949,2.3949,2.3936,2.3995,2.4054,2.4067,2.4067,2.4125,2.4171,2.4216,2.4216,2.4421,2.4781,2.5439,2.6133,2.6759,2.7306,2.794,2.8137,2.8299,2.8299,2.8348,2.8411,2.8411,2.8411,2.8411,2.8411,2.8411,2.8541,2.8748,2.9348,3.0021,3.0666,3.1021,3.1274,3.1368,3.1423,3.1423,3.15,3.1559,3.1579,3.1757,3.1901,3.1921,3.199,3.2024,3.2127,3.2145,3.2145,3.2145,3.2093,3.211,3.2162,3.2162,3.2179,3.2248,3.2334,3.2731,3.3076,3.3576,3.4111,3.4332,3.4432,3.4756,3.512,3.5091,3.4901,3.471,3.4523,3.4371,3.4146,3.3972,3.3928,3.3928,3.4005,3.4055,3.408,3.4124,3.4148,3.4148,3.4173,3.4216,3.4216,3.4216,3.4216,3.4216,3.4253,3.4216,3.4216,3.4216,3.4439,3.4569,3.4699,3.4649,3.4649,3.4426,1.859,1.9408,1.9897,2.004,1.9952,2.0207,2.0322,2.0501,2.0927,2.1043,2.1003,2.1381,2.1835,2.2295,2.2942,2.3197,2.3308,2.3761,2.4041,2.4067,2.4067,2.4067,2.4067,2.4125,2.4125,2.4125,2.4112,2.4274,2.4434,2.4465,2.4794,2.5398,2.5453,2.6187,2.7093,2.758,2.786,2.8186,2.8348,2.8348,2.8396,2.8411,2.8411,2.8411,2.8411,2.8411,2.8493,2.8795,2.9182,2.9821,3.0609,3.1145,3.1465,3.1645,3.1807,3.1931,3.1897,3.1901,3.2012,3.1994,3.2225,3.2641,3.2766,3.2955,3.311,3.3386,3.3404,3.3421,3.3386,3.3214,3.3214,3.3352,3.3404,3.3421,3.349,3.3542,3.3766,3.3938,3.4214,3.4663,3.5013,3.5196,3.5451,3.5629,3.5669,3.5468,3.5193,3.5015,3.4917,3.4589,3.4191,3.4216,3.4278,3.4124,3.4099,3.408,3.4124,3.4173,3.4216,3.4216,3.4216,3.4216,3.4216,3.4216,3.4271,3.4346,3.4309,3.4587,3.4847,3.5126,3.5237,3.5318,3.525,3.5194,3.5095]}]]